Time,TemperatureF,DewpointF,PressureIn,WindDirection,WindDirectionDegrees,WindSpeedMPH,WindSpeedGustMPH,Humidity,HourlyPrecipIn,Conditions,Clouds,dailyrainin,SoftwareType,DateUTC
2013-05-05 00:00:00,63.6,48.1,29.45,SW,225,4.0,11.0,57,0.00,,SKC,0.00,VWS V13.01,2013-05-05 07:00:00,
2013-05-05 00:01:00,63.6,48.1,29.44,SW,227,5.0,5.0,57,0.00,,SKC,0.00,VWS V13.01,2013-05-05 07:01:00,
2013-05-05 00:02:00,63.5,48.0,29.44,SW,219,7.0,7.0,57,0.00,,SKC,0.00,VWS V13.01,2013-05-05 07:02:00,
2013-05-05 00:03:00,63.4,47.9,29.44,SW,214,3.0,10.0,57,0.00,,SKC,0.00,VWS V13.01,2013-05-05 07:03:00,
2013-05-05 00:04:00,63.4,47.9,29.44,SW,229,9.0,11.0,57,0.00,,SKC,0.00,VWS V13.01,2013-05-05 07:04:00,
2013-05-05 00:05:00,63.3,47.8,29.45,SW,214,6.0,11.0,57,0.00,,SKC,0.00,VWS V13.01,2013-05-05 07:05:00,
2013-05-05 00:06:00,63.2,47.7,29.45,SSW,213,7.0,10.0,57,0.00,,SKC,0.00,VWS V13.01,2013-05-05 07:06:00,
2013-05-05 00:07:00,63.2,47.7,29.45,SSW,194,4.0,10.0,57,0.00,,SKC,0.00,VWS V13.01,2013-05-05 07:07:00,
2013-05-05 00:08:00,63.1,47.6,29.45,SSW,211,10.0,10.0,57,0.00,,SKC,0.00,VWS V13.01,2013-05-05 07:08:00,
2013-05-05 00:09:00,63.1,48.1,29.45,SSW,208,9.0,10.0,58,0.00,,SKC,0.00,VWS V13.01,2013-05-05 07:09:00,
2013-05-05 00:10:00,63.0,48.0,29.45,SSW,208,6.0,11.0,58,0.00,,SKC,0.00,VWS V13.01,2013-05-05 07:10:00,
2013-05-05 00:11:00,63.0,48.0,29.45,SW,219,7.0,9.0,58,0.00,,SKC,0.00,VWS V13.01,2013-05-05 07:11:00,
2013-05-05 00:12:00,62.9,47.9,29.45,SW,231,6.0,10.0,58,0.00,,SKC,0.00,VWS V13.01,2013-05-05 07:12:00,
2013-05-05 00:13:00,62.8,47.8,29.45,SSW,213,6.0,10.0,58,0.00,,SKC,0.00,VWS V13.01,2013-05-05 07:13:00,
2013-05-05 00:14:00,62.8,47.8,29.45,SSW,208,7.0,12.0,58,0.00,,SKC,0.00,VWS V13.01,2013-05-05 07:14:00,
2013-05-05 00:15:00,62.7,47.7,29.45,SW,221,1.0,12.0,58,0.00,,SKC,0.00,VWS V13.01,2013-05-05 07:15:00,
2013-05-05 00:16:00,62.7,47.7,29.45,SW,221,5.0,8.0,58,0.00,,SKC,0.00,VWS V13.01,2013-05-05 07:16:00,
2013-05-05 00:17:00,62.6,47.6,29.45,WSW,238,2.0,8.0,58,0.00,,SKC,0.00,VWS V13.01,2013-05-05 07:17:00,
2013-05-05 00:18:00,62.5,47.5,29.45,WSW,237,10.0,10.0,58,0.00,,SKC,0.00,VWS V13.01,2013-05-05 07:18:00,
2013-05-05 00:19:00,62.4,47.5,29.45,SW,217,5.0,10.0,58,0.00,,SKC,0.00,VWS V13.01,2013-05-05 07:19:00,
2013-05-05 00:20:00,62.4,47.5,29.46,SW,229,10.0,10.0,58,0.00,,SKC,0.00,VWS V13.01,2013-05-05 07:20:00,
2013-05-05 00:21:00,62.3,47.8,29.45,SW,227,7.0,12.0,59,0.00,,SKC,0.00,VWS V13.01,2013-05-05 07:21:00,
2013-05-05 00:22:00,62.2,47.7,29.45,SSW,209,10.0,12.0,59,0.00,,SKC,0.00,VWS V13.01,2013-05-05 07:22:00,
2013-05-05 00:23:00,62.1,47.6,29.46,SW,220,6.0,12.0,59,0.00,,SKC,0.00,VWS V13.01,2013-05-05 07:23:00,
2013-05-05 00:24:00,62.0,47.5,29.46,WSW,242,3.0,12.0,59,0.00,,SKC,0.00,VWS V13.01,2013-05-05 07:24:00,
2013-05-05 00:25:00,61.9,47.4,29.45,SW,221,5.0,12.0,59,0.00,,SKC,0.00,VWS V13.01,2013-05-05 07:25:00,
2013-05-05 00:26:00,61.8,47.3,29.46,SW,217,6.0,6.0,59,0.00,,SKC,0.00,VWS V13.01,2013-05-05 07:26:00,
2013-05-05 00:27:00,61.7,47.2,29.46,SSW,207,6.0,6.0,59,0.00,,SKC,0.00,VWS V13.01,2013-05-05 07:27:00,
2013-05-05 00:28:00,61.7,47.7,29.46,SW,214,10.0,11.0,60,0.00,,SKC,0.00,VWS V13.01,2013-05-05 07:28:00,
2013-05-05 00:29:00,61.6,47.6,29.46,SSW,211,3.0,11.0,60,0.00,,SKC,0.00,VWS V13.01,2013-05-05 07:29:00,
2013-05-05 00:30:00,61.6,47.6,29.45,SSW,202,6.0,11.0,60,0.00,,SKC,0.00,VWS V13.01,2013-05-05 07:30:00,
2013-05-05 00:31:00,61.5,47.5,29.46,SW,215,6.0,6.0,60,0.00,,SKC,0.00,VWS V13.01,2013-05-05 07:31:00,
2013-05-05 00:32:00,61.4,47.4,29.46,SW,222,5.0,7.0,60,0.00,,SKC,0.00,VWS V13.01,2013-05-05 07:32:00,
2013-05-05 00:33:00,61.4,47.4,29.46,SW,224,6.0,7.0,60,0.00,,SKC,0.00,VWS V13.01,2013-05-05 07:33:00,
2013-05-05 00:34:00,61.3,47.3,29.46,SW,223,3.0,7.0,60,0.00,,SKC,0.00,VWS V13.01,2013-05-05 07:34:00,
2013-05-05 00:35:00,61.3,47.3,29.46,SW,223,4.0,7.0,60,0.00,,SKC,0.00,VWS V13.01,2013-05-05 07:35:00,
2013-05-05 00:36:00,61.2,47.2,29.46,SW,222,2.0,6.0,60,0.00,,SKC,0.00,VWS V13.01,2013-05-05 07:36:00,
2013-05-05 00:37:00,61.2,47.2,29.46,SW,215,4.0,7.0,60,0.00,,SKC,0.00,VWS V13.01,2013-05-05 07:37:00,
2013-05-05 00:38:00,61.1,47.1,29.46,SW,215,4.0,7.0,60,0.00,,SKC,0.00,VWS V13.01,2013-05-05 07:38:00,
2013-05-05 00:39:00,61.0,47.5,29.46,SSW,209,7.0,9.0,61,0.00,,SKC,0.00,VWS V13.01,2013-05-05 07:39:00,
2013-05-05 00:40:00,60.9,47.4,29.46,SW,216,3.0,9.0,61,0.00,,SKC,0.00,VWS V13.01,2013-05-05 07:40:00,
2013-05-05 00:41:00,60.9,47.4,29.46,SW,216,4.0,6.0,61,0.00,,SKC,0.00,VWS V13.01,2013-05-05 07:41:00,
2013-05-05 00:42:00,60.9,47.4,29.46,SSW,212,4.0,7.0,61,0.00,,SKC,0.00,VWS V13.01,2013-05-05 07:42:00,
2013-05-05 00:43:00,60.8,47.3,29.46,SSW,212,6.0,7.0,61,0.00,,SKC,0.00,VWS V13.01,2013-05-05 07:43:00,
2013-05-05 00:44:00,60.7,47.2,29.46,SSW,206,7.0,9.0,61,0.00,,SKC,0.00,VWS V13.01,2013-05-05 07:44:00,
2013-05-05 00:45:00,60.7,47.6,29.46,SW,215,5.0,9.0,62,0.00,,SKC,0.00,VWS V13.01,2013-05-05 07:45:00,
2013-05-05 00:46:00,60.6,47.5,29.46,SW,221,5.0,5.0,62,0.00,,SKC,0.00,VWS V13.01,2013-05-05 07:46:00,
2013-05-05 00:47:00,60.6,47.5,29.46,SW,225,5.0,5.0,62,0.00,,SKC,0.00,VWS V13.01,2013-05-05 07:47:00,
2013-05-05 00:48:00,60.5,47.4,29.46,SW,236,7.0,7.0,62,0.00,,SKC,0.00,VWS V13.01,2013-05-05 07:48:00,
2013-05-05 00:49:00,60.5,47.4,29.46,SW,232,3.0,10.0,62,0.00,,SKC,0.00,VWS V13.01,2013-05-05 07:49:00,
2013-05-05 00:50:00,60.4,47.3,29.46,WSW,244,5.0,10.0,62,0.00,,SKC,0.00,VWS V13.01,2013-05-05 07:50:00,
2013-05-05 00:51:00,60.3,47.2,29.46,SW,217,5.0,7.0,62,0.00,,SKC,0.00,VWS V13.01,2013-05-05 07:51:00,
2013-05-05 00:52:00,60.3,47.7,29.46,SW,225,5.0,9.0,63,0.00,,SKC,0.00,VWS V13.01,2013-05-05 07:52:00,
2013-05-05 00:53:00,60.2,47.6,29.46,SSW,213,4.0,9.0,63,0.00,,SKC,0.00,VWS V13.01,2013-05-05 07:53:00,
2013-05-05 00:54:00,60.1,47.5,29.46,South,190,6.0,9.0,63,0.00,,SKC,0.00,VWS V13.01,2013-05-05 07:54:00,
2013-05-05 00:55:00,60.1,47.5,29.46,SSW,203,5.0,9.0,63,0.00,,SKC,0.00,VWS V13.01,2013-05-05 07:55:00,
2013-05-05 00:56:00,60.0,47.4,29.46,SSW,202,3.0,6.0,63,0.00,,SKC,0.00,VWS V13.01,2013-05-05 07:56:00,
2013-05-05 00:57:00,60.0,47.4,29.46,SSW,209,5.0,6.0,63,0.00,,SKC,0.00,VWS V13.01,2013-05-05 07:57:00,
2013-05-05 00:58:00,59.9,47.3,29.46,SSW,196,8.0,10.0,63,0.00,,SKC,0.00,VWS V13.01,2013-05-05 07:58:00,
2013-05-05 00:59:00,59.8,47.2,29.46,SW,217,5.0,10.0,63,0.00,,SKC,0.00,VWS V13.01,2013-05-05 07:59:00,
2013-05-05 01:00:00,59.8,47.2,29.46,SSW,207,3.0,10.0,63,0.00,,SKC,0.00,VWS V13.01,2013-05-05 08:00:00,
2013-05-05 01:01:00,59.7,47.1,29.46,SSW,203,5.0,6.0,63,0.00,,SKC,0.00,VWS V13.01,2013-05-05 08:01:00,
2013-05-05 01:02:00,59.6,47.0,29.46,SSW,203,6.0,6.0,63,0.00,,SKC,0.00,VWS V13.01,2013-05-05 08:02:00,
2013-05-05 01:03:00,59.6,47.0,29.46,SW,225,3.0,6.0,63,0.00,,SKC,0.00,VWS V13.01,2013-05-05 08:03:00,
2013-05-05 01:04:00,59.5,46.9,29.46,SSW,207,4.0,9.0,63,0.00,,SKC,0.00,VWS V13.01,2013-05-05 08:04:00,
2013-05-05 01:05:00,59.5,46.9,29.46,SSW,209,3.0,9.0,63,0.00,,SKC,0.00,VWS V13.01,2013-05-05 08:05:00,
2013-05-05 01:06:00,59.4,46.8,29.46,SW,219,6.0,9.0,63,0.00,,SKC,0.00,VWS V13.01,2013-05-05 08:06:00,
2013-05-05 01:07:00,59.4,46.8,29.46,SW,220,4.0,9.0,63,0.00,,SKC,0.00,VWS V13.01,2013-05-05 08:07:00,
2013-05-05 01:08:00,59.3,46.7,29.46,SW,220,2.0,9.0,63,0.00,,SKC,0.00,VWS V13.01,2013-05-05 08:08:00,
2013-05-05 01:09:00,59.1,46.5,29.46,SW,218,4.0,9.0,63,0.00,,SKC,0.00,VWS V13.01,2013-05-05 08:09:00,
2013-05-05 01:10:00,59.0,46.8,29.46,SW,225,6.0,9.0,64,0.00,,SKC,0.00,VWS V13.01,2013-05-05 08:10:00,
2013-05-05 01:11:00,59.0,46.8,29.46,SW,225,8.0,8.0,64,0.00,,SKC,0.00,VWS V13.01,2013-05-05 08:11:00,
2013-05-05 01:12:00,59.0,46.8,29.45,SW,217,5.0,9.0,64,0.00,,SKC,0.00,VWS V13.01,2013-05-05 08:12:00,
2013-05-05 01:13:00,59.0,46.8,29.45,SW,217,5.0,9.0,64,0.00,,SKC,0.00,VWS V13.01,2013-05-05 08:13:00,
2013-05-05 01:14:00,59.0,46.8,29.46,SW,218,3.0,10.0,64,0.00,,SKC,0.00,VWS V13.01,2013-05-05 08:14:00,
2013-05-05 01:15:00,59.0,46.8,29.46,WSW,239,6.0,10.0,64,0.00,,SKC,0.00,VWS V13.01,2013-05-05 08:15:00,
2013-05-05 01:16:00,59.0,46.8,29.46,SW,216,5.0,11.0,64,0.00,,SKC,0.00,VWS V13.01,2013-05-05 08:16:00,
2013-05-05 01:17:00,59.0,46.8,29.46,SW,218,8.0,11.0,64,0.00,,SKC,0.00,VWS V13.01,2013-05-05 08:17:00,
2013-05-05 01:18:00,59.0,46.8,29.46,SSW,213,6.0,11.0,64,0.00,,SKC,0.00,VWS V13.01,2013-05-05 08:18:00,
2013-05-05 01:19:00,59.0,46.8,29.46,SW,219,5.0,11.0,64,0.00,,SKC,0.00,VWS V13.01,2013-05-05 08:19:00,
2013-05-05 01:20:00,59.0,46.8,29.46,SSW,213,5.0,11.0,64,0.00,,SKC,0.00,VWS V13.01,2013-05-05 08:20:00,
2013-05-05 01:21:00,59.0,46.8,29.46,SW,228,4.0,12.0,64,0.00,,SKC,0.00,VWS V13.01,2013-05-05 08:21:00,
2013-05-05 01:22:00,59.0,46.4,29.46,SSW,211,4.0,12.0,63,0.00,,SKC,0.00,VWS V13.01,2013-05-05 08:22:00,
2013-05-05 01:23:00,59.0,46.4,29.46,SSW,210,7.0,12.0,63,0.00,,SKC,0.00,VWS V13.01,2013-05-05 08:23:00,
2013-05-05 01:24:00,59.0,46.4,29.46,SSW,209,4.0,12.0,63,0.00,,SKC,0.00,VWS V13.01,2013-05-05 08:24:00,
2013-05-05 01:25:00,59.0,46.4,29.46,SSW,209,5.0,12.0,63,0.00,,SKC,0.00,VWS V13.01,2013-05-05 08:25:00,
2013-05-05 01:26:00,59.0,46.4,29.46,SSW,205,3.0,6.0,63,0.00,,SKC,0.00,VWS V13.01,2013-05-05 08:26:00,
2013-05-05 01:27:00,59.0,46.8,29.46,SSW,204,3.0,8.0,64,0.00,,SKC,0.00,VWS V13.01,2013-05-05 08:27:00,
2013-05-05 01:28:00,59.0,46.8,29.46,SSW,197,3.0,8.0,64,0.00,,SKC,0.00,VWS V13.01,2013-05-05 08:28:00,
2013-05-05 01:29:00,59.0,46.8,29.46,SSW,196,2.0,8.0,64,0.00,,SKC,0.00,VWS V13.01,2013-05-05 08:29:00,
2013-05-05 01:30:00,59.0,46.8,29.46,SSW,196,4.0,8.0,64,0.00,,SKC,0.00,VWS V13.01,2013-05-05 08:30:00,
2013-05-05 01:31:00,59.0,46.8,29.46,SW,219,4.0,7.0,64,0.00,,SKC,0.00,VWS V13.01,2013-05-05 08:31:00,
2013-05-05 01:32:00,59.0,46.8,29.46,SSW,213,7.0,7.0,64,0.00,,SKC,0.00,VWS V13.01,2013-05-05 08:32:00,
2013-05-05 01:33:00,59.0,46.8,29.46,SSW,213,5.0,11.0,64,0.00,,SKC,0.00,VWS V13.01,2013-05-05 08:33:00,
2013-05-05 01:34:00,59.0,46.8,29.46,SSW,212,5.0,11.0,64,0.00,,SKC,0.00,VWS V13.01,2013-05-05 08:34:00,
2013-05-05 01:35:00,59.0,46.8,29.46,SSW,200,4.0,11.0,64,0.00,,SKC,0.00,VWS V13.01,2013-05-05 08:35:00,
2013-05-05 01:36:00,59.0,46.8,29.46,SW,215,5.0,7.0,64,0.00,,SKC,0.00,VWS V13.01,2013-05-05 08:36:00,
2013-05-05 01:37:00,59.0,46.8,29.46,SSW,211,6.0,9.0,64,0.00,,SKC,0.00,VWS V13.01,2013-05-05 08:37:00,
2013-05-05 01:38:00,59.0,46.8,29.46,SW,217,5.0,10.0,64,0.00,,SKC,0.00,VWS V13.01,2013-05-05 08:38:00,
2013-05-05 01:39:00,59.0,46.8,29.46,SSW,211,7.0,10.0,64,0.00,,SKC,0.00,VWS V13.01,2013-05-05 08:39:00,
2013-05-05 01:40:00,59.0,46.8,29.46,SW,216,6.0,10.0,64,0.00,,SKC,0.00,VWS V13.01,2013-05-05 08:40:00,
2013-05-05 01:41:00,59.0,46.8,29.46,SSW,208,5.0,9.0,64,0.00,,SKC,0.00,VWS V13.01,2013-05-05 08:41:00,
2013-05-05 01:42:00,59.0,46.8,29.46,SW,216,4.0,9.0,64,0.00,,SKC,0.00,VWS V13.01,2013-05-05 08:42:00,
2013-05-05 01:43:00,59.0,46.8,29.46,SW,215,3.0,9.0,64,0.00,,SKC,0.00,VWS V13.01,2013-05-05 08:43:00,
2013-05-05 01:44:00,59.0,46.8,29.46,SW,215,3.0,9.0,64,0.00,,SKC,0.00,VWS V13.01,2013-05-05 08:44:00,
2013-05-05 01:45:00,59.0,46.8,29.46,SW,215,5.0,9.0,64,0.00,,SKC,0.00,VWS V13.01,2013-05-05 08:45:00,
2013-05-05 01:46:00,59.0,46.8,29.46,SW,226,10.0,13.0,64,0.00,,SKC,0.00,VWS V13.01,2013-05-05 08:46:00,
2013-05-05 01:47:00,59.0,46.8,29.46,South,190,6.0,13.0,64,0.00,,SKC,0.00,VWS V13.01,2013-05-05 08:47:00,
2013-05-05 01:48:00,59.0,46.8,29.45,SW,219,6.0,13.0,64,0.00,,SKC,0.00,VWS V13.01,2013-05-05 08:48:00,
2013-05-05 01:49:00,59.0,46.8,29.45,SSW,211,5.0,13.0,64,0.00,,SKC,0.00,VWS V13.01,2013-05-05 08:49:00,
2013-05-05 01:50:00,59.0,46.8,29.45,SSW,197,6.0,13.0,64,0.00,,SKC,0.00,VWS V13.01,2013-05-05 08:50:00,
2013-05-05 01:51:00,59.0,46.8,29.45,SSW,205,4.0,10.0,64,0.00,,SKC,0.00,VWS V13.01,2013-05-05 08:51:00,
2013-05-05 01:52:00,58.9,46.8,29.45,SW,219,5.0,10.0,64,0.00,,SKC,0.00,VWS V13.01,2013-05-05 08:52:00,
2013-05-05 01:53:00,58.9,46.8,29.45,SW,224,6.0,10.0,64,0.00,,SKC,0.00,VWS V13.01,2013-05-05 08:53:00,
2013-05-05 01:54:00,58.7,46.6,29.45,SW,226,4.0,10.0,64,0.00,,SKC,0.00,VWS V13.01,2013-05-05 08:54:00,
2013-05-05 01:55:00,58.6,46.5,29.45,SW,224,6.0,10.0,64,0.00,,SKC,0.00,VWS V13.01,2013-05-05 08:55:00,
2013-05-05 01:56:00,58.6,46.9,29.45,SW,214,4.0,9.0,65,0.00,,SKC,0.00,VWS V13.01,2013-05-05 08:56:00,
2013-05-05 01:57:00,58.5,46.8,29.45,SW,233,5.0,9.0,65,0.00,,SKC,0.00,VWS V13.01,2013-05-05 08:57:00,
2013-05-05 01:58:00,58.4,46.7,29.45,SSW,213,5.0,9.0,65,0.00,,SKC,0.00,VWS V13.01,2013-05-05 08:58:00,
2013-05-05 01:59:00,58.4,46.7,29.46,SSW,213,4.0,9.0,65,0.00,,SKC,0.00,VWS V13.01,2013-05-05 08:59:00,
2013-05-05 02:00:00,58.3,46.6,29.46,SSW,213,4.0,9.0,65,0.00,,SKC,0.00,VWS V13.01,2013-05-05 09:00:00,
2013-05-05 02:01:00,58.2,46.5,29.45,SSW,213,4.0,6.0,65,0.00,,SKC,0.00,VWS V13.01,2013-05-05 09:01:00,
2013-05-05 02:02:00,58.1,46.4,29.45,SSW,213,0.0,6.0,65,0.00,,SKC,0.00,VWS V13.01,2013-05-05 09:02:00,
2013-05-05 02:03:00,58.1,46.4,29.45,SSW,211,6.0,9.0,65,0.00,,SKC,0.00,VWS V13.01,2013-05-05 09:03:00,
2013-05-05 02:04:00,58.0,46.7,29.46,SSW,203,4.0,9.0,66,0.00,,SKC,0.00,VWS V13.01,2013-05-05 09:04:00,
2013-05-05 02:05:00,58.0,46.7,29.46,SSW,208,6.0,9.0,66,0.00,,SKC,0.00,VWS V13.01,2013-05-05 09:05:00,
2013-05-05 02:06:00,57.9,46.6,29.45,SW,220,7.0,10.0,66,0.00,,SKC,0.00,VWS V13.01,2013-05-05 09:06:00,
2013-05-05 02:07:00,57.9,46.6,29.45,SW,221,5.0,10.0,66,0.00,,SKC,0.00,VWS V13.01,2013-05-05 09:07:00,
2013-05-05 02:08:00,57.9,46.6,29.45,SW,220,5.0,10.0,66,0.00,,SKC,0.00,VWS V13.01,2013-05-05 09:08:00,
2013-05-05 02:09:00,57.8,46.5,29.45,SSW,213,5.0,10.0,66,0.00,,SKC,0.00,VWS V13.01,2013-05-05 09:09:00,
2013-05-05 02:10:00,57.8,46.5,29.45,SSW,211,3.0,10.0,66,0.00,,SKC,0.00,VWS V13.01,2013-05-05 09:10:00,
2013-05-05 02:11:00,57.8,46.9,29.45,SSW,212,7.0,7.0,67,0.00,,SKC,0.00,VWS V13.01,2013-05-05 09:11:00,
2013-05-05 02:12:00,57.8,46.9,29.45,SSW,212,5.0,7.0,67,0.00,,SKC,0.00,VWS V13.01,2013-05-05 09:12:00,
2013-05-05 02:13:00,57.7,46.8,29.45,SSW,205,6.0,8.0,67,0.00,,SKC,0.00,VWS V13.01,2013-05-05 09:13:00,
2013-05-05 02:14:00,57.7,46.8,29.45,SSW,209,5.0,8.0,67,0.00,,SKC,0.00,VWS V13.01,2013-05-05 09:14:00,
2013-05-05 02:15:00,57.7,46.8,29.45,SSW,211,7.0,10.0,67,0.00,,SKC,0.00,VWS V13.01,2013-05-05 09:15:00,
2013-05-05 02:16:00,57.7,46.8,29.45,SSW,212,6.0,9.0,67,0.00,,SKC,0.00,VWS V13.01,2013-05-05 09:16:00,
2013-05-05 02:17:00,57.7,46.8,29.45,SW,215,4.0,9.0,67,0.00,,SKC,0.00,VWS V13.01,2013-05-05 09:17:00,
2013-05-05 02:18:00,57.7,46.8,29.45,SW,221,7.0,11.0,67,0.00,,SKC,0.00,VWS V13.01,2013-05-05 09:18:00,
2013-05-05 02:19:00,57.6,46.7,29.45,SW,215,8.0,13.0,67,0.00,,SKC,0.00,VWS V13.01,2013-05-05 09:19:00,
2013-05-05 02:20:00,57.6,46.7,29.45,SSW,213,7.0,13.0,67,0.00,,SKC,0.00,VWS V13.01,2013-05-05 09:20:00,
2013-05-05 02:21:00,57.6,46.7,29.45,SW,225,5.0,9.0,67,0.00,,SKC,0.00,VWS V13.01,2013-05-05 09:21:00,
2013-05-05 02:22:00,57.6,46.7,29.45,SW,224,11.0,11.0,67,0.00,,SKC,0.00,VWS V13.01,2013-05-05 09:22:00,
2013-05-05 02:23:00,57.5,46.6,29.45,SW,215,7.0,12.0,67,0.00,,SKC,0.00,VWS V13.01,2013-05-05 09:23:00,
2013-05-05 02:24:00,57.5,46.6,29.45,SW,227,9.0,13.0,67,0.00,,SKC,0.00,VWS V13.01,2013-05-05 09:24:00,
2013-05-05 02:25:00,57.5,47.0,29.45,SW,227,11.0,13.0,68,0.00,,SKC,0.00,VWS V13.01,2013-05-05 09:25:00,
2013-05-05 02:26:00,57.4,46.9,29.46,SW,219,6.0,11.0,68,0.00,,SKC,0.00,VWS V13.01,2013-05-05 09:26:00,
2013-05-05 02:27:00,57.4,46.9,29.46,SW,216,6.0,11.0,68,0.00,,SKC,0.00,VWS V13.01,2013-05-05 09:27:00,
2013-05-05 02:28:00,57.3,46.8,29.46,SW,224,4.0,11.0,68,0.00,,SKC,0.00,VWS V13.01,2013-05-05 09:28:00,
2013-05-05 02:29:00,57.3,46.8,29.46,SW,230,6.0,11.0,68,0.00,,SKC,0.00,VWS V13.01,2013-05-05 09:29:00,
2013-05-05 02:30:00,57.3,46.8,29.46,SW,232,8.0,11.0,68,0.00,,SKC,0.00,VWS V13.01,2013-05-05 09:30:00,
2013-05-05 02:31:00,57.2,46.8,29.46,SSW,208,10.0,10.0,68,0.00,,SKC,0.00,VWS V13.01,2013-05-05 09:31:00,
2013-05-05 02:32:00,57.2,46.8,29.46,SW,217,3.0,11.0,68,0.00,,SKC,0.00,VWS V13.01,2013-05-05 09:32:00,
2013-05-05 02:33:00,57.1,46.7,29.46,SW,223,6.0,12.0,68,0.00,,SKC,0.00,VWS V13.01,2013-05-05 09:33:00,
2013-05-05 02:34:00,57.1,46.7,29.46,SW,217,7.0,12.0,68,0.00,,SKC,0.00,VWS V13.01,2013-05-05 09:34:00,
2013-05-05 02:35:00,57.1,47.0,29.46,SSW,213,4.0,12.0,69,0.00,,SKC,0.00,VWS V13.01,2013-05-05 09:35:00,
2013-05-05 02:36:00,57.0,46.9,29.46,SW,214,6.0,10.0,69,0.00,,SKC,0.00,VWS V13.01,2013-05-05 09:36:00,
2013-05-05 02:37:00,57.0,46.9,29.46,SW,219,6.0,13.0,69,0.00,,SKC,0.00,VWS V13.01,2013-05-05 09:37:00,
2013-05-05 02:38:00,57.0,46.9,29.46,SSW,205,8.0,13.0,69,0.00,,SKC,0.00,VWS V13.01,2013-05-05 09:38:00,
2013-05-05 02:39:00,56.9,46.8,29.46,SW,218,4.0,13.0,69,0.00,,SKC,0.00,VWS V13.01,2013-05-05 09:39:00,
2013-05-05 02:40:00,56.9,46.8,29.46,SSW,201,9.0,13.0,69,0.00,,SKC,0.00,VWS V13.01,2013-05-05 09:40:00,
2013-05-05 02:41:00,56.9,46.8,29.46,SSW,197,6.0,12.0,69,0.00,,SKC,0.00,VWS V13.01,2013-05-05 09:41:00,
2013-05-05 02:42:00,56.9,46.8,29.46,SSW,209,6.0,12.0,69,0.00,,SKC,0.00,VWS V13.01,2013-05-05 09:42:00,
2013-05-05 02:43:00,56.9,46.8,29.46,SSW,200,11.0,12.0,69,0.00,,SKC,0.00,VWS V13.01,2013-05-05 09:43:00,
2013-05-05 02:44:00,56.8,47.1,29.47,SSW,210,7.0,12.0,70,0.00,,SKC,0.00,VWS V13.01,2013-05-05 09:44:00,
2013-05-05 02:45:00,56.8,47.1,29.47,SSW,211,6.0,12.0,70,0.00,,SKC,0.00,VWS V13.01,2013-05-05 09:45:00,
2013-05-05 02:46:00,56.8,47.1,29.47,SSW,192,4.0,9.0,70,0.00,,SKC,0.00,VWS V13.01,2013-05-05 09:46:00,
2013-05-05 02:47:00,56.8,47.1,29.47,SSW,208,6.0,12.0,70,0.00,,SKC,0.00,VWS V13.01,2013-05-05 09:47:00,
2013-05-05 02:48:00,56.7,47.0,29.47,SW,220,12.0,13.0,70,0.00,,SKC,0.00,VWS V13.01,2013-05-05 09:48:00,
2013-05-05 02:49:00,56.8,47.1,29.47,SSW,207,9.0,14.0,70,0.00,,SKC,0.00,VWS V13.01,2013-05-05 09:49:00,
2013-05-05 02:50:00,56.8,47.1,29.47,SSW,213,9.0,14.0,70,0.00,,SKC,0.00,VWS V13.01,2013-05-05 09:50:00,
2013-05-05 02:51:00,56.7,47.0,29.47,SW,223,6.0,10.0,70,0.00,,SKC,0.00,VWS V13.01,2013-05-05 09:51:00,
2013-05-05 02:52:00,56.7,47.0,29.47,SSW,206,10.0,10.0,70,0.00,,SKC,0.00,VWS V13.01,2013-05-05 09:52:00,
2013-05-05 02:53:00,56.7,47.0,29.47,SW,229,10.0,11.0,70,0.00,,SKC,0.00,VWS V13.01,2013-05-05 09:53:00,
2013-05-05 02:54:00,56.7,47.0,29.47,SSW,213,12.0,12.0,70,0.00,,SKC,0.00,VWS V13.01,2013-05-05 09:54:00,
2013-05-05 02:55:00,56.6,46.9,29.47,SSW,209,8.0,12.0,70,0.00,,SKC,0.00,VWS V13.01,2013-05-05 09:55:00,
2013-05-05 02:56:00,56.6,46.9,29.47,SW,221,5.0,13.0,70,0.00,,SKC,0.00,VWS V13.01,2013-05-05 09:56:00,
2013-05-05 02:57:00,56.6,46.9,29.47,SW,217,6.0,13.0,70,0.00,,SKC,0.00,VWS V13.01,2013-05-05 09:57:00,
2013-05-05 02:58:00,56.5,46.8,29.47,SSW,205,7.0,13.0,70,0.00,,SKC,0.00,VWS V13.01,2013-05-05 09:58:00,
2013-05-05 02:59:00,56.5,47.2,29.47,SSW,204,6.0,13.0,71,0.00,,SKC,0.00,VWS V13.01,2013-05-05 09:59:00,
2013-05-05 03:00:00,56.4,47.1,29.47,SW,214,8.0,13.0,71,0.00,,SKC,0.00,VWS V13.01,2013-05-05 10:00:00,
2013-05-05 03:01:00,56.4,47.1,29.47,South,186,5.0,10.0,71,0.00,,SKC,0.00,VWS V13.01,2013-05-05 10:01:00,
2013-05-05 03:02:00,56.4,47.1,29.47,SW,236,6.0,10.0,71,0.00,,SKC,0.00,VWS V13.01,2013-05-05 10:02:00,
2013-05-05 03:03:00,56.3,47.0,29.47,SSW,212,5.0,10.0,71,0.00,,SKC,0.00,VWS V13.01,2013-05-05 10:03:00,
2013-05-05 03:04:00,56.3,47.0,29.47,SSW,208,11.0,13.0,71,0.00,,SKC,0.00,VWS V13.01,2013-05-05 10:04:00,
2013-05-05 03:05:00,56.3,47.0,29.47,SW,231,9.0,13.0,71,0.00,,SKC,0.00,VWS V13.01,2013-05-05 10:05:00,
2013-05-05 03:06:00,56.3,47.4,29.48,SW,225,2.0,11.0,72,0.00,,SKC,0.00,VWS V13.01,2013-05-05 10:06:00,
2013-05-05 03:07:00,56.3,47.4,29.48,SW,220,6.0,11.0,72,0.00,,SKC,0.00,VWS V13.01,2013-05-05 10:07:00,
2013-05-05 03:08:00,56.2,47.3,29.48,SSW,203,7.0,13.0,72,0.00,,SKC,0.00,VWS V13.01,2013-05-05 10:08:00,
2013-05-05 03:09:00,56.2,47.3,29.48,SSW,202,6.0,13.0,72,0.00,,SKC,0.00,VWS V13.01,2013-05-05 10:09:00,
2013-05-05 03:10:00,56.2,47.3,29.48,SW,221,9.0,13.0,72,0.00,,SKC,0.00,VWS V13.01,2013-05-05 10:10:00,
2013-05-05 03:11:00,56.2,47.3,29.48,SSW,212,13.0,17.0,72,0.00,,SKC,0.00,VWS V13.01,2013-05-05 10:11:00,
2013-05-05 03:12:00,56.2,47.3,29.48,South,189,10.0,17.0,72,0.00,,SKC,0.00,VWS V13.01,2013-05-05 10:12:00,
2013-05-05 03:13:00,56.2,47.3,29.48,SSW,192,11.0,17.0,72,0.00,,SKC,0.00,VWS V13.01,2013-05-05 10:13:00,
2013-05-05 03:14:00,56.2,47.3,29.48,SSW,209,9.0,17.0,72,0.00,,SKC,0.00,VWS V13.01,2013-05-05 10:14:00,
2013-05-05 03:15:00,56.2,47.3,29.48,SSW,204,6.0,17.0,72,0.00,,SKC,0.00,VWS V13.01,2013-05-05 10:15:00,
2013-05-05 03:16:00,56.2,47.3,29.48,SW,223,10.0,10.0,72,0.00,,SKC,0.00,VWS V13.01,2013-05-05 10:16:00,
2013-05-05 03:17:00,56.2,47.7,29.48,SSW,207,3.0,10.0,73,0.00,,SKC,0.00,VWS V13.01,2013-05-05 10:17:00,
2013-05-05 03:18:00,56.1,47.6,29.48,SW,214,9.0,10.0,73,0.00,,SKC,0.00,VWS V13.01,2013-05-05 10:18:00,
2013-05-05 03:19:00,56.0,47.5,29.48,SSW,195,13.0,13.0,73,0.00,,SKC,0.00,VWS V13.01,2013-05-05 10:19:00,
2013-05-05 03:20:00,56.0,47.5,29.48,South,190,5.0,13.0,73,0.00,,SKC,0.00,VWS V13.01,2013-05-05 10:20:00,
2013-05-05 03:21:00,56.0,47.5,29.48,SW,214,12.0,12.0,73,0.00,,SKC,0.00,VWS V13.01,2013-05-05 10:21:00,
2013-05-05 03:22:00,56.0,47.5,29.48,SSW,207,10.0,13.0,73,0.00,,SKC,0.00,VWS V13.01,2013-05-05 10:22:00,
2013-05-05 03:23:00,55.9,47.4,29.48,SSW,207,6.0,13.0,73,0.00,,SKC,0.00,VWS V13.01,2013-05-05 10:23:00,
2013-05-05 03:24:00,55.9,47.4,29.48,SSW,202,5.0,13.0,73,0.00,,SKC,0.00,VWS V13.01,2013-05-05 10:24:00,
2013-05-05 03:25:00,55.9,47.4,29.48,SSW,207,9.0,13.0,73,0.00,,SKC,0.00,VWS V13.01,2013-05-05 10:25:00,
2013-05-05 03:26:00,55.9,47.4,29.48,SSW,211,7.0,9.0,73,0.00,,SKC,0.00,VWS V13.01,2013-05-05 10:26:00,
2013-05-05 03:27:00,55.9,47.4,29.48,SSW,196,5.0,12.0,73,0.00,,SKC,0.00,VWS V13.01,2013-05-05 10:27:00,
2013-05-05 03:28:00,55.8,47.3,29.48,SW,215,7.0,12.0,73,0.00,,SKC,0.00,VWS V13.01,2013-05-05 10:28:00,
2013-05-05 03:29:00,55.8,47.3,29.48,SSW,209,10.0,12.0,73,0.00,,SKC,0.00,VWS V13.01,2013-05-05 10:29:00,
2013-05-05 03:30:00,55.8,47.7,29.49,SSW,213,12.0,12.0,74,0.00,,SKC,0.00,VWS V13.01,2013-05-05 10:30:00,
2013-05-05 03:31:00,55.7,47.5,29.48,SSW,207,5.0,12.0,74,0.00,,SKC,0.00,VWS V13.01,2013-05-05 10:31:00,
2013-05-05 03:32:00,55.7,47.5,29.49,SW,214,11.0,12.0,74,0.00,,SKC,0.00,VWS V13.01,2013-05-05 10:32:00,
2013-05-05 03:33:00,55.7,47.5,29.49,SSW,206,8.0,13.0,74,0.00,,SKC,0.00,VWS V13.01,2013-05-05 10:33:00,
2013-05-05 03:34:00,55.7,47.5,29.49,SSW,203,10.0,15.0,74,0.00,,SKC,0.00,VWS V13.01,2013-05-05 10:34:00,
2013-05-05 03:35:00,55.7,47.5,29.49,SSW,208,6.0,15.0,74,0.00,,SKC,0.00,VWS V13.01,2013-05-05 10:35:00,
2013-05-05 03:36:00,55.7,47.5,29.49,SW,217,7.0,13.0,74,0.00,,SKC,0.00,VWS V13.01,2013-05-05 10:36:00,
2013-05-05 03:37:00,55.7,47.5,29.49,SSW,194,4.0,13.0,74,0.00,,SKC,0.00,VWS V13.01,2013-05-05 10:37:00,
2013-05-05 03:38:00,55.7,47.5,29.49,SW,215,9.0,14.0,74,0.00,,SKC,0.00,VWS V13.01,2013-05-05 10:38:00,
2013-05-05 03:39:00,55.7,47.5,29.49,SSW,211,9.0,14.0,74,0.00,,SKC,0.00,VWS V13.01,2013-05-05 10:39:00,
2013-05-05 03:40:00,55.7,47.5,29.49,SSW,211,4.0,14.0,74,0.00,,SKC,0.00,VWS V13.01,2013-05-05 10:40:00,
2013-05-05 03:41:00,55.7,47.5,29.49,SSW,205,10.0,10.0,74,0.00,,SKC,0.00,VWS V13.01,2013-05-05 10:41:00,
2013-05-05 03:42:00,55.6,47.5,29.49,SSW,208,6.0,11.0,74,0.00,,SKC,0.00,VWS V13.01,2013-05-05 10:42:00,
2013-05-05 03:43:00,55.6,47.5,29.50,SSW,205,6.0,11.0,74,0.00,,SKC,0.00,VWS V13.01,2013-05-05 10:43:00,
2013-05-05 03:44:00,55.6,47.5,29.50,SSW,211,6.0,11.0,74,0.00,,SKC,0.00,VWS V13.01,2013-05-05 10:44:00,
2013-05-05 03:45:00,55.6,47.5,29.50,SSW,212,9.0,11.0,74,0.00,,SKC,0.00,VWS V13.01,2013-05-05 10:45:00,
2013-05-05 03:46:00,55.6,47.5,29.50,SSW,210,11.0,12.0,74,0.00,,SKC,0.00,VWS V13.01,2013-05-05 10:46:00,
2013-05-05 03:47:00,55.6,47.5,29.50,SSW,211,5.0,12.0,74,0.00,,SKC,0.00,VWS V13.01,2013-05-05 10:47:00,
2013-05-05 03:48:00,55.6,47.5,29.50,SSW,205,5.0,13.0,74,0.00,,SKC,0.00,VWS V13.01,2013-05-05 10:48:00,
2013-05-05 03:49:00,55.6,47.5,29.50,SSW,201,5.0,13.0,74,0.00,,SKC,0.00,VWS V13.01,2013-05-05 10:49:00,
2013-05-05 03:50:00,55.5,47.4,29.50,South,190,5.0,13.0,74,0.00,,SKC,0.00,VWS V13.01,2013-05-05 10:50:00,
2013-05-05 03:51:00,55.5,47.4,29.50,SSW,213,13.0,16.0,74,0.00,,SKC,0.00,VWS V13.01,2013-05-05 10:51:00,
2013-05-05 03:52:00,55.5,47.4,29.50,SSW,193,5.0,16.0,74,0.00,,SKC,0.00,VWS V13.01,2013-05-05 10:52:00,
2013-05-05 03:53:00,55.5,47.4,29.50,SW,221,13.0,16.0,74,0.00,,SKC,0.00,VWS V13.01,2013-05-05 10:53:00,
2013-05-05 03:54:00,55.5,47.4,29.50,SW,223,6.0,16.0,74,0.00,,SKC,0.00,VWS V13.01,2013-05-05 10:54:00,
2013-05-05 03:55:00,55.5,47.4,29.50,SSW,209,10.0,16.0,74,0.00,,SKC,0.00,VWS V13.01,2013-05-05 10:55:00,
2013-05-05 03:56:00,55.5,47.4,29.50,SSW,194,5.0,10.0,74,0.00,,SKC,0.00,VWS V13.01,2013-05-05 10:56:00,
2013-05-05 03:57:00,55.5,47.4,29.50,SSW,213,6.0,10.0,74,0.00,,SKC,0.00,VWS V13.01,2013-05-05 10:57:00,
2013-05-05 03:58:00,55.5,47.4,29.50,SSW,207,8.0,12.0,74,0.00,,SKC,0.00,VWS V13.01,2013-05-05 10:58:00,
2013-05-05 03:59:00,55.4,47.3,29.51,SW,221,7.0,12.0,74,0.00,,SKC,0.00,VWS V13.01,2013-05-05 10:59:00,
2013-05-05 04:00:00,55.4,47.3,29.51,SW,215,9.0,12.0,74,0.00,,SKC,0.00,VWS V13.01,2013-05-05 11:00:00,
2013-05-05 04:01:00,55.4,47.3,29.51,SW,215,6.0,12.0,74,0.00,,SKC,0.00,VWS V13.01,2013-05-05 11:01:00,
2013-05-05 04:02:00,55.4,47.3,29.51,SSW,212,6.0,12.0,74,0.00,,SKC,0.00,VWS V13.01,2013-05-05 11:02:00,
2013-05-05 04:03:00,55.4,47.3,29.51,SSW,207,12.0,13.0,74,0.00,,SKC,0.00,VWS V13.01,2013-05-05 11:03:00,
2013-05-05 04:04:00,55.4,47.3,29.51,SSW,205,13.0,13.0,74,0.00,,SKC,0.00,VWS V13.01,2013-05-05 11:04:00,
2013-05-05 04:05:00,55.3,47.2,29.51,SW,223,12.0,13.0,74,0.00,,SKC,0.00,VWS V13.01,2013-05-05 11:05:00,
2013-05-05 04:06:00,55.3,47.2,29.51,SSW,213,8.0,14.0,74,0.00,,SKC,0.00,VWS V13.01,2013-05-05 11:06:00,
2013-05-05 04:07:00,55.3,47.2,29.51,South,178,9.0,17.0,74,0.00,,SKC,0.00,VWS V13.01,2013-05-05 11:07:00,
2013-05-05 04:08:00,55.3,47.2,29.51,South,190,6.0,17.0,74,0.00,,SKC,0.00,VWS V13.01,2013-05-05 11:08:00,
2013-05-05 04:09:00,55.3,47.2,29.51,SSW,207,9.0,17.0,74,0.00,,SKC,0.00,VWS V13.01,2013-05-05 11:09:00,
2013-05-05 04:10:00,55.3,47.2,29.51,SSW,209,6.0,17.0,74,0.00,,SKC,0.00,VWS V13.01,2013-05-05 11:10:00,
2013-05-05 04:11:00,55.3,47.2,29.51,SSW,198,10.0,10.0,74,0.00,,SKC,0.00,VWS V13.01,2013-05-05 11:11:00,
2013-05-05 04:12:00,55.3,47.2,29.51,SSW,198,6.0,12.0,74,0.00,,SKC,0.00,VWS V13.01,2013-05-05 11:12:00,
2013-05-05 04:13:00,55.2,47.1,29.51,SSW,200,16.0,16.0,74,0.00,,SKC,0.00,VWS V13.01,2013-05-05 11:13:00,
2013-05-05 04:14:00,55.2,47.1,29.51,SSW,198,10.0,16.0,74,0.00,,SKC,0.00,VWS V13.01,2013-05-05 11:14:00,
2013-05-05 04:15:00,55.2,47.4,29.52,South,191,11.0,16.0,75,0.00,,SKC,0.00,VWS V13.01,2013-05-05 11:15:00,
2013-05-05 04:16:00,55.2,47.4,29.52,SSW,205,10.0,12.0,75,0.00,,SKC,0.00,VWS V13.01,2013-05-05 11:16:00,
2013-05-05 04:17:00,55.2,47.4,29.52,SSW,213,13.0,13.0,75,0.00,,SKC,0.00,VWS V13.01,2013-05-05 11:17:00,
2013-05-05 04:18:00,55.1,47.3,29.52,SSW,204,11.0,14.0,75,0.00,,SKC,0.00,VWS V13.01,2013-05-05 11:18:00,
2013-05-05 04:19:00,55.1,47.3,29.52,SW,224,10.0,14.0,75,0.00,,SKC,0.00,VWS V13.01,2013-05-05 11:19:00,
2013-05-05 04:20:00,55.1,47.3,29.52,SSW,198,5.0,14.0,75,0.00,,SKC,0.00,VWS V13.01,2013-05-05 11:20:00,
2013-05-05 04:21:00,55.1,47.3,29.52,SW,216,7.0,15.0,75,0.00,,SKC,0.00,VWS V13.01,2013-05-05 11:21:00,
2013-05-05 04:22:00,55.1,47.3,29.52,SSW,211,10.0,15.0,75,0.00,,SKC,0.00,VWS V13.01,2013-05-05 11:22:00,
2013-05-05 04:23:00,55.1,47.3,29.52,SSW,202,8.0,15.0,75,0.00,,SKC,0.00,VWS V13.01,2013-05-05 11:23:00,
2013-05-05 04:24:00,55.1,47.3,29.52,SSW,203,4.0,15.0,75,0.00,,SKC,0.00,VWS V13.01,2013-05-05 11:24:00,
2013-05-05 04:25:00,55.0,47.2,29.52,SSW,211,12.0,15.0,75,0.00,,SKC,0.00,VWS V13.01,2013-05-05 11:25:00,
2013-05-05 04:26:00,55.1,47.3,29.52,SSW,207,6.0,12.0,75,0.00,,SKC,0.00,VWS V13.01,2013-05-05 11:26:00,
2013-05-05 04:27:00,55.0,47.2,29.52,SSW,200,7.0,12.0,75,0.00,,SKC,0.00,VWS V13.01,2013-05-05 11:27:00,
2013-05-05 04:28:00,55.0,47.2,29.52,SSW,198,7.0,15.0,75,0.00,,SKC,0.00,VWS V13.01,2013-05-05 11:28:00,
2013-05-05 04:29:00,55.0,47.2,29.52,SSW,200,8.0,15.0,75,0.00,,SKC,0.00,VWS V13.01,2013-05-05 11:29:00,
2013-05-05 04:30:00,55.0,47.2,29.53,SSW,207,7.0,15.0,75,0.00,,SKC,0.00,VWS V13.01,2013-05-05 11:30:00,
2013-05-05 04:31:00,55.0,47.2,29.52,SSW,193,7.0,12.0,75,0.00,,SKC,0.00,VWS V13.01,2013-05-05 11:31:00,
2013-05-05 04:32:00,55.0,47.2,29.53,SSW,192,7.0,12.0,75,0.00,,SKC,0.00,VWS V13.01,2013-05-05 11:32:00,
2013-05-05 04:33:00,55.0,47.2,29.53,SSW,205,10.0,16.0,75,0.00,,SKC,0.00,VWS V13.01,2013-05-05 11:33:00,
2013-05-05 04:34:00,55.0,47.2,29.53,South,188,5.0,16.0,75,0.00,,SKC,0.00,VWS V13.01,2013-05-05 11:34:00,
2013-05-05 04:35:00,55.0,47.2,29.53,SSW,205,10.0,16.0,75,0.00,,SKC,0.00,VWS V13.01,2013-05-05 11:35:00,
2013-05-05 04:36:00,55.0,47.2,29.53,SSW,209,6.0,12.0,75,0.00,,SKC,0.00,VWS V13.01,2013-05-05 11:36:00,
2013-05-05 04:37:00,55.0,47.2,29.53,SSW,199,11.0,15.0,75,0.00,,SKC,0.00,VWS V13.01,2013-05-05 11:37:00,
2013-05-05 04:38:00,55.0,47.2,29.53,SSW,204,10.0,15.0,75,0.00,,SKC,0.00,VWS V13.01,2013-05-05 11:38:00,
2013-05-05 04:39:00,55.0,47.2,29.53,South,172,6.0,15.0,75,0.00,,SKC,0.00,VWS V13.01,2013-05-05 11:39:00,
2013-05-05 04:40:00,55.0,47.2,29.53,South,190,7.0,15.0,75,0.00,,SKC,0.00,VWS V13.01,2013-05-05 11:40:00,
2013-05-05 04:41:00,55.0,47.2,29.53,SSW,192,11.0,14.0,75,0.00,,SKC,0.00,VWS V13.01,2013-05-05 11:41:00,
2013-05-05 04:42:00,55.0,47.2,29.53,South,188,7.0,14.0,75,0.00,,SKC,0.00,VWS V13.01,2013-05-05 11:42:00,
2013-05-05 04:43:00,55.0,47.2,29.53,SSW,205,6.0,14.0,75,0.00,,SKC,0.00,VWS V13.01,2013-05-05 11:43:00,
2013-05-05 04:44:00,55.0,47.2,29.53,SSW,194,9.0,14.0,75,0.00,,SKC,0.00,VWS V13.01,2013-05-05 11:44:00,
2013-05-05 04:45:00,55.0,47.2,29.53,SSW,196,10.0,14.0,75,0.00,,SKC,0.00,VWS V13.01,2013-05-05 11:45:00,
2013-05-05 04:46:00,55.0,47.2,29.53,South,179,7.0,10.0,75,0.00,,SKC,0.00,VWS V13.01,2013-05-05 11:46:00,
2013-05-05 04:47:00,54.9,47.1,29.53,SSW,200,8.0,11.0,75,0.00,,SKC,0.00,VWS V13.01,2013-05-05 11:47:00,
2013-05-05 04:48:00,54.9,47.1,29.53,South,182,4.0,11.0,75,0.00,,SKC,0.00,VWS V13.01,2013-05-05 11:48:00,
2013-05-05 04:49:00,54.9,47.1,29.53,SSE,159,6.0,12.0,75,0.00,,SKC,0.00,VWS V13.01,2013-05-05 11:49:00,
2013-05-05 04:50:00,54.9,47.1,29.53,SSW,200,5.0,12.0,75,0.00,,SKC,0.00,VWS V13.01,2013-05-05 11:50:00,
2013-05-05 04:51:00,54.9,47.1,29.53,South,182,4.0,6.0,75,0.00,,SKC,0.00,VWS V13.01,2013-05-05 11:51:00,
2013-05-05 04:52:00,54.8,47.0,29.53,South,190,5.0,8.0,75,0.00,,SKC,0.00,VWS V13.01,2013-05-05 11:52:00,
2013-05-05 04:53:00,54.8,47.0,29.53,SSW,194,6.0,8.0,75,0.00,,SKC,0.00,VWS V13.01,2013-05-05 11:53:00,
2013-05-05 04:54:00,54.8,47.0,29.53,SSW,202,13.0,14.0,75,0.00,,SKC,0.00,VWS V13.01,2013-05-05 11:54:00,
2013-05-05 04:55:00,54.8,47.4,29.53,SSW,202,7.0,14.0,76,0.00,,SKC,0.00,VWS V13.01,2013-05-05 11:55:00,
2013-05-05 04:56:00,54.8,47.4,29.53,SSW,198,6.0,8.0,76,0.00,,SKC,0.00,VWS V13.01,2013-05-05 11:56:00,
2013-05-05 04:57:00,54.8,47.4,29.53,South,188,5.0,10.0,76,0.00,,SKC,0.00,VWS V13.01,2013-05-05 11:57:00,
2013-05-05 04:58:00,54.8,47.4,29.53,SSE,161,3.0,10.0,76,0.00,,SKC,0.00,VWS V13.01,2013-05-05 11:58:00,
2013-05-05 04:59:00,54.8,47.4,29.53,South,169,4.0,10.0,76,0.00,,SKC,0.00,VWS V13.01,2013-05-05 11:59:00,
2013-05-05 05:00:00,54.8,47.4,29.53,SSW,202,3.0,13.0,76,0.00,,SKC,0.00,VWS V13.01,2013-05-05 12:00:00,
2013-05-05 05:01:00,54.7,47.3,29.53,SSW,198,5.0,10.0,76,0.00,,SKC,0.00,VWS V13.01,2013-05-05 12:01:00,
2013-05-05 05:02:00,54.8,47.4,29.53,SSW,196,7.0,10.0,76,0.00,,SKC,0.00,VWS V13.01,2013-05-05 12:02:00,
2013-05-05 05:03:00,54.7,47.3,29.53,South,177,3.0,10.0,76,0.00,,SKC,0.00,VWS V13.01,2013-05-05 12:03:00,
2013-05-05 05:04:00,54.7,47.3,29.53,South,190,6.0,10.0,76,0.00,,SKC,0.00,VWS V13.01,2013-05-05 12:04:00,
2013-05-05 05:05:00,54.7,47.3,29.53,South,185,3.0,10.0,76,0.00,,SKC,0.00,VWS V13.01,2013-05-05 12:05:00,
2013-05-05 05:06:00,54.7,47.3,29.53,SSW,200,6.0,9.0,76,0.00,,SKC,0.00,VWS V13.01,2013-05-05 12:06:00,
2013-05-05 05:07:00,54.7,47.3,29.53,South,175,5.0,14.0,76,0.00,,SKC,0.00,VWS V13.01,2013-05-05 12:07:00,
2013-05-05 05:08:00,54.8,47.4,29.53,SSW,194,5.0,14.0,76,0.00,,SKC,0.00,VWS V13.01,2013-05-05 12:08:00,
2013-05-05 05:09:00,54.7,47.3,29.53,South,186,5.0,14.0,76,0.00,,SKC,0.00,VWS V13.01,2013-05-05 12:09:00,
2013-05-05 05:10:00,54.7,47.3,29.53,South,190,7.0,14.0,76,0.00,,SKC,0.00,VWS V13.01,2013-05-05 12:10:00,
2013-05-05 05:11:00,54.7,47.3,29.53,SSW,192,10.0,10.0,76,0.00,,SKC,0.00,VWS V13.01,2013-05-05 12:11:00,
2013-05-05 05:12:00,54.7,47.3,29.53,SSW,206,7.0,12.0,76,0.00,,SKC,0.00,VWS V13.01,2013-05-05 12:12:00,
2013-05-05 05:13:00,54.8,47.4,29.53,South,186,8.0,12.0,76,0.00,,SKC,0.00,VWS V13.01,2013-05-05 12:13:00,
2013-05-05 05:14:00,54.8,47.4,29.53,SSW,196,4.0,12.0,76,0.00,,SKC,0.00,VWS V13.01,2013-05-05 12:14:00,
2013-05-05 05:15:00,54.8,47.4,29.53,SSW,212,7.0,15.0,76,0.00,,SKC,0.00,VWS V13.01,2013-05-05 12:15:00,
2013-05-05 05:16:00,54.8,47.4,29.53,SSW,195,3.0,8.0,76,0.00,,SKC,0.00,VWS V13.01,2013-05-05 12:16:00,
2013-05-05 05:17:00,54.8,47.4,29.53,SSW,195,4.0,8.0,76,0.00,,SKC,0.00,VWS V13.01,2013-05-05 12:17:00,
2013-05-05 05:18:00,54.8,47.4,29.54,South,190,8.0,9.0,76,0.00,,SKC,0.00,VWS V13.01,2013-05-05 12:18:00,
2013-05-05 05:19:00,54.8,47.4,29.54,SSW,202,5.0,10.0,76,0.00,,SKC,0.00,VWS V13.01,2013-05-05 12:19:00,
2013-05-05 05:20:00,54.8,47.4,29.54,South,186,3.0,10.0,76,0.00,,SKC,0.00,VWS V13.01,2013-05-05 12:20:00,
2013-05-05 05:21:00,54.7,47.3,29.54,SSW,198,3.0,6.0,76,0.00,,SKC,0.00,VWS V13.01,2013-05-05 12:21:00,
2013-05-05 05:22:00,54.7,47.3,29.53,SSW,200,7.0,7.0,76,0.00,,SKC,0.00,VWS V13.01,2013-05-05 12:22:00,
2013-05-05 05:23:00,54.7,47.3,29.54,South,173,3.0,7.0,76,0.00,,SKC,0.00,VWS V13.01,2013-05-05 12:23:00,
2013-05-05 05:24:00,54.7,47.3,29.54,South,189,5.0,9.0,76,0.00,,SKC,0.00,VWS V13.01,2013-05-05 12:24:00,
2013-05-05 05:25:00,54.7,47.3,29.54,South,185,4.0,9.0,76,0.00,,SKC,0.00,VWS V13.01,2013-05-05 12:25:00,
2013-05-05 05:26:00,54.7,47.3,29.54,South,182,5.0,5.0,76,0.00,,SKC,0.00,VWS V13.01,2013-05-05 12:26:00,
2013-05-05 05:27:00,54.7,47.3,29.54,SSW,196,12.0,12.0,76,0.00,,SKC,0.00,VWS V13.01,2013-05-05 12:27:00,
2013-05-05 05:28:00,54.7,47.3,29.54,South,186,5.0,13.0,76,0.00,,SKC,0.00,VWS V13.01,2013-05-05 12:28:00,
2013-05-05 05:29:00,54.7,47.3,29.54,SSW,194,7.0,13.0,76,0.00,,SKC,0.00,VWS V13.01,2013-05-05 12:29:00,
2013-05-05 05:30:00,54.7,47.3,29.54,SSW,195,7.0,13.0,76,0.00,,SKC,0.00,VWS V13.01,2013-05-05 12:30:00,
2013-05-05 05:31:00,54.7,47.3,29.54,SSW,193,7.0,9.0,76,0.00,,SKC,0.00,VWS V13.01,2013-05-05 12:31:00,
2013-05-05 05:32:00,54.7,47.3,29.54,SSW,202,5.0,9.0,76,0.00,,SKC,0.00,VWS V13.01,2013-05-05 12:32:00,
2013-05-05 05:33:00,54.7,47.3,29.54,SSW,201,3.0,9.0,76,0.00,,SKC,0.00,VWS V13.01,2013-05-05 12:33:00,
2013-05-05 05:34:00,54.7,47.3,29.54,South,188,5.0,9.0,76,0.00,,SKC,0.00,VWS V13.01,2013-05-05 12:34:00,
2013-05-05 05:35:00,54.7,47.3,29.54,South,191,5.0,10.0,76,0.00,,SKC,0.00,VWS V13.01,2013-05-05 12:35:00,
2013-05-05 05:36:00,54.7,47.3,29.54,South,187,4.0,7.0,76,0.00,,SKC,0.00,VWS V13.01,2013-05-05 12:36:00,
2013-05-05 05:37:00,54.7,47.3,29.54,South,187,4.0,7.0,76,0.00,,SKC,0.00,VWS V13.01,2013-05-05 12:37:00,
2013-05-05 05:38:00,54.7,47.3,29.54,South,171,3.0,7.0,76,0.00,,SKC,0.00,VWS V13.01,2013-05-05 12:38:00,
2013-05-05 05:39:00,54.7,47.3,29.54,SSW,193,6.0,7.0,76,0.00,,SKC,0.00,VWS V13.01,2013-05-05 12:39:00,
2013-05-05 05:40:00,54.7,47.3,29.54,South,190,5.0,7.0,76,0.00,,SKC,0.00,VWS V13.01,2013-05-05 12:40:00,
2013-05-05 05:41:00,54.6,47.2,29.54,South,181,3.0,5.0,76,0.00,,SKC,0.00,VWS V13.01,2013-05-05 12:41:00,
2013-05-05 05:42:00,54.6,47.2,29.54,South,175,5.0,8.0,76,0.00,,SKC,0.00,VWS V13.01,2013-05-05 12:42:00,
2013-05-05 05:43:00,54.6,47.2,29.54,South,181,4.0,8.0,76,0.00,,SKC,0.00,VWS V13.01,2013-05-05 12:43:00,
2013-05-05 05:44:00,54.6,47.2,29.54,SSW,200,4.0,8.0,76,0.00,,SKC,0.00,VWS V13.01,2013-05-05 12:44:00,
2013-05-05 05:45:00,54.6,47.2,29.54,SSW,203,3.0,8.0,76,0.00,,SKC,0.00,VWS V13.01,2013-05-05 12:45:00,
2013-05-05 05:46:00,54.6,47.2,29.54,SSW,203,5.0,6.0,76,0.00,,SKC,0.00,VWS V13.01,2013-05-05 12:46:00,
2013-05-05 05:47:00,54.6,47.2,29.54,SSW,202,2.0,8.0,76,0.00,,SKC,0.00,VWS V13.01,2013-05-05 12:47:00,
2013-05-05 05:48:00,54.6,47.2,29.54,SSW,195,6.0,8.0,76,0.00,,SKC,0.00,VWS V13.01,2013-05-05 12:48:00,
2013-05-05 05:49:00,54.5,47.1,29.54,SSW,195,9.0,9.0,76,0.00,,SKC,0.00,VWS V13.01,2013-05-05 12:49:00,
2013-05-05 05:50:00,54.5,47.1,29.54,SSW,194,4.0,9.0,76,0.00,,SKC,0.00,VWS V13.01,2013-05-05 12:50:00,
2013-05-05 05:51:00,54.5,47.1,29.54,SSW,198,5.0,7.0,76,0.00,,SKC,0.00,VWS V13.01,2013-05-05 12:51:00,
2013-05-05 05:52:00,54.5,47.1,29.54,SSW,196,4.0,7.0,76,0.00,,SKC,0.00,VWS V13.01,2013-05-05 12:52:00,
2013-05-05 05:53:00,54.5,47.1,29.54,SSW,200,3.0,7.0,76,0.00,,SKC,0.00,VWS V13.01,2013-05-05 12:53:00,
2013-05-05 05:54:00,54.5,47.1,29.54,SSW,197,3.0,7.0,76,0.00,,SKC,0.00,VWS V13.01,2013-05-05 12:54:00,
2013-05-05 05:55:00,54.5,47.1,29.54,SSW,198,3.0,7.0,76,0.00,,SKC,0.00,VWS V13.01,2013-05-05 12:55:00,
2013-05-05 05:56:00,54.5,47.1,29.54,South,187,2.0,4.0,76,0.00,,SKC,0.00,VWS V13.01,2013-05-05 12:56:00,
2013-05-05 05:57:00,54.4,47.0,29.55,SSW,194,3.0,5.0,76,0.00,,SKC,0.00,VWS V13.01,2013-05-05 12:57:00,
2013-05-05 05:58:00,54.4,47.0,29.54,SSW,194,3.0,5.0,76,0.00,,SKC,0.00,VWS V13.01,2013-05-05 12:58:00,
2013-05-05 05:59:00,54.4,47.0,29.55,SSW,194,6.0,7.0,76,0.00,,SKC,0.00,VWS V13.01,2013-05-05 12:59:00,
2013-05-05 06:00:00,54.4,47.0,29.55,SSW,194,3.0,7.0,76,0.00,,SKC,0.00,VWS V13.01,2013-05-05 13:00:00,
2013-05-05 06:01:00,54.4,47.0,29.56,SSW,194,0.0,4.0,76,0.00,,SKC,0.00,VWS V13.01,2013-05-05 13:01:00,
2013-05-05 06:02:00,54.3,46.9,29.56,SSW,201,3.0,7.0,76,0.00,,SKC,0.00,VWS V13.01,2013-05-05 13:02:00,
2013-05-05 06:03:00,54.3,46.9,29.56,SSW,201,3.0,7.0,76,0.00,,SKC,0.00,VWS V13.01,2013-05-05 13:03:00,
2013-05-05 06:04:00,54.3,46.9,29.56,SSW,206,6.0,7.0,76,0.00,,SKC,0.00,VWS V13.01,2013-05-05 13:04:00,
2013-05-05 06:05:00,54.3,46.9,29.56,SSW,205,5.0,7.0,76,0.00,,SKC,0.00,VWS V13.01,2013-05-05 13:05:00,
2013-05-05 06:06:00,54.3,46.9,29.56,SSW,200,4.0,6.0,76,0.00,,SKC,0.00,VWS V13.01,2013-05-05 13:06:00,
2013-05-05 06:07:00,54.3,46.9,29.56,SSW,200,4.0,6.0,76,0.00,,SKC,0.00,VWS V13.01,2013-05-05 13:07:00,
2013-05-05 06:08:00,54.3,46.9,29.56,SSW,200,3.0,6.0,76,0.00,,SKC,0.00,VWS V13.01,2013-05-05 13:08:00,
2013-05-05 06:09:00,54.3,46.9,29.56,SSW,203,6.0,10.0,76,0.00,,SKC,0.00,VWS V13.01,2013-05-05 13:09:00,
2013-05-05 06:10:00,54.3,46.9,29.56,SSW,207,6.0,10.0,76,0.00,,SKC,0.00,VWS V13.01,2013-05-05 13:10:00,
2013-05-05 06:11:00,54.4,47.0,29.56,SSW,203,6.0,8.0,76,0.00,,SKC,0.00,VWS V13.01,2013-05-05 13:11:00,
2013-05-05 06:12:00,54.4,47.0,29.56,SSW,205,5.0,11.0,76,0.00,,SKC,0.00,VWS V13.01,2013-05-05 13:12:00,
2013-05-05 06:13:00,54.4,47.0,29.56,South,189,5.0,11.0,76,0.00,,SKC,0.00,VWS V13.01,2013-05-05 13:13:00,
2013-05-05 06:14:00,54.4,47.0,29.56,SSW,212,6.0,11.0,76,0.00,,SKC,0.00,VWS V13.01,2013-05-05 13:14:00,
2013-05-05 06:15:00,54.5,47.1,29.56,SSW,209,3.0,11.0,76,0.00,,SKC,0.00,VWS V13.01,2013-05-05 13:15:00,
2013-05-05 06:16:00,54.5,46.8,29.56,SSW,213,5.0,8.0,75,0.00,,SKC,0.00,VWS V13.01,2013-05-05 13:16:00,
2013-05-05 06:17:00,54.5,46.8,29.56,SSW,213,4.0,8.0,75,0.00,,SKC,0.00,VWS V13.01,2013-05-05 13:17:00,
2013-05-05 06:18:00,54.5,46.8,29.56,SW,219,5.0,8.0,75,0.00,,SKC,0.00,VWS V13.01,2013-05-05 13:18:00,
2013-05-05 06:19:00,54.5,46.8,29.56,SW,219,7.0,8.0,75,0.00,,SKC,0.00,VWS V13.01,2013-05-05 13:19:00,
2013-05-05 06:20:00,54.5,46.8,29.56,SSW,197,6.0,11.0,75,0.00,,SKC,0.00,VWS V13.01,2013-05-05 13:20:00,
2013-05-05 06:21:00,54.6,46.8,29.56,South,191,8.0,9.0,75,0.00,,SKC,0.00,VWS V13.01,2013-05-05 13:21:00,
2013-05-05 06:22:00,54.6,46.8,29.56,SSW,212,9.0,13.0,75,0.00,,SKC,0.00,VWS V13.01,2013-05-05 13:22:00,
2013-05-05 06:23:00,54.6,46.8,29.56,SSW,207,7.0,13.0,75,0.00,,SKC,0.00,VWS V13.01,2013-05-05 13:23:00,
2013-05-05 06:24:00,54.6,46.8,29.56,SSW,200,4.0,13.0,75,0.00,,SKC,0.00,VWS V13.01,2013-05-05 13:24:00,
2013-05-05 06:25:00,54.6,46.8,29.56,SSW,200,8.0,13.0,75,0.00,,SKC,0.00,VWS V13.01,2013-05-05 13:25:00,
2013-05-05 06:26:00,54.6,46.8,29.56,SSW,207,6.0,10.0,75,0.00,,SKC,0.00,VWS V13.01,2013-05-05 13:26:00,
2013-05-05 06:27:00,54.6,46.8,29.56,SSW,207,5.0,10.0,75,0.00,,SKC,0.00,VWS V13.01,2013-05-05 13:27:00,
2013-05-05 06:28:00,54.6,46.8,29.56,SSW,203,4.0,10.0,75,0.00,,SKC,0.00,VWS V13.01,2013-05-05 13:28:00,
2013-05-05 06:29:00,54.6,46.8,29.56,SSW,206,6.0,11.0,75,0.00,,SKC,0.00,VWS V13.01,2013-05-05 13:29:00,
2013-05-05 06:30:00,54.7,46.9,29.57,SSW,198,3.0,11.0,75,0.00,,SKC,0.00,VWS V13.01,2013-05-05 13:30:00,
2013-05-05 06:31:00,54.7,46.9,29.56,SSW,198,6.0,6.0,75,0.00,,SKC,0.00,VWS V13.01,2013-05-05 13:31:00,
2013-05-05 06:32:00,54.7,46.6,29.57,SSW,201,4.0,6.0,74,0.00,,SKC,0.00,VWS V13.01,2013-05-05 13:32:00,
2013-05-05 06:33:00,54.7,46.6,29.57,SW,215,5.0,8.0,74,0.00,,SKC,0.00,VWS V13.01,2013-05-05 13:33:00,
2013-05-05 06:34:00,54.8,47.0,29.57,SSW,205,6.0,8.0,75,0.00,,SKC,0.00,VWS V13.01,2013-05-05 13:34:00,
2013-05-05 06:35:00,54.8,47.0,29.57,SSW,205,5.0,8.0,75,0.00,,SKC,0.00,VWS V13.01,2013-05-05 13:35:00,
2013-05-05 06:36:00,54.8,47.0,29.56,SSW,205,3.0,5.0,75,0.00,,SKC,0.00,VWS V13.01,2013-05-05 13:36:00,
2013-05-05 06:37:00,54.9,47.1,29.56,SSW,205,4.0,5.0,75,0.00,,SKC,0.00,VWS V13.01,2013-05-05 13:37:00,
2013-05-05 06:38:00,54.9,47.1,29.56,SSW,205,4.0,5.0,75,0.00,,SKC,0.00,VWS V13.01,2013-05-05 13:38:00,
2013-05-05 06:39:00,54.9,47.1,29.56,SSW,205,0.0,5.0,75,0.00,,SKC,0.00,VWS V13.01,2013-05-05 13:39:00,
2013-05-05 06:40:00,55.0,47.2,29.56,SSW,207,5.0,6.0,75,0.00,,SKC,0.00,VWS V13.01,2013-05-05 13:40:00,
2013-05-05 06:41:00,55.0,46.9,29.57,SW,219,6.0,10.0,74,0.00,,SKC,0.00,VWS V13.01,2013-05-05 13:41:00,
2013-05-05 06:42:00,55.1,47.0,29.57,SW,219,4.0,10.0,74,0.00,,SKC,0.00,VWS V13.01,2013-05-05 13:42:00,
2013-05-05 06:43:00,55.1,47.0,29.56,SW,225,2.0,10.0,74,0.00,,SKC,0.00,VWS V13.01,2013-05-05 13:43:00,
2013-05-05 06:44:00,55.2,47.1,29.57,SW,224,3.0,10.0,74,0.00,,SKC,0.00,VWS V13.01,2013-05-05 13:44:00,
2013-05-05 06:45:00,55.2,47.1,29.57,SW,221,4.0,10.0,74,0.00,,SKC,0.00,VWS V13.01,2013-05-05 13:45:00,
2013-05-05 06:46:00,55.3,47.2,29.57,SSW,210,2.0,7.0,74,0.00,,SKC,0.00,VWS V13.01,2013-05-05 13:46:00,
2013-05-05 06:47:00,55.3,47.2,29.57,SW,217,6.0,7.0,74,0.00,,SKC,0.00,VWS V13.01,2013-05-05 13:47:00,
2013-05-05 06:48:00,55.4,47.3,29.57,SW,218,3.0,7.0,74,0.00,,SKC,0.00,VWS V13.01,2013-05-05 13:48:00,
2013-05-05 06:49:00,55.5,47.4,29.57,SSW,213,6.0,7.0,74,0.00,,SKC,0.00,VWS V13.01,2013-05-05 13:49:00,
2013-05-05 06:50:00,55.5,47.4,29.57,SSW,208,5.0,9.0,74,0.00,,SKC,0.00,VWS V13.01,2013-05-05 13:50:00,
2013-05-05 06:51:00,55.5,47.4,29.57,SSW,210,6.0,7.0,74,0.00,,SKC,0.00,VWS V13.01,2013-05-05 13:51:00,
2013-05-05 06:52:00,55.6,47.5,29.57,SSW,212,9.0,9.0,74,0.00,,SKC,0.00,VWS V13.01,2013-05-05 13:52:00,
2013-05-05 06:53:00,55.6,47.1,29.57,SW,217,5.0,9.0,73,0.00,,SKC,0.00,VWS V13.01,2013-05-05 13:53:00,
2013-05-05 06:54:00,55.7,47.2,29.57,SW,217,6.0,9.0,73,0.00,,SKC,0.00,VWS V13.01,2013-05-05 13:54:00,
2013-05-05 06:55:00,55.7,47.2,29.57,SW,220,5.0,9.0,73,0.00,,SKC,0.00,VWS V13.01,2013-05-05 13:55:00,
2013-05-05 06:56:00,55.8,47.3,29.57,SSW,211,4.0,6.0,73,0.00,,SKC,0.00,VWS V13.01,2013-05-05 13:56:00,
2013-05-05 06:57:00,55.8,47.3,29.57,SW,224,4.0,6.0,73,0.00,,SKC,0.00,VWS V13.01,2013-05-05 13:57:00,
2013-05-05 06:58:00,55.9,47.4,29.57,SW,224,2.0,7.0,73,0.00,,SKC,0.00,VWS V13.01,2013-05-05 13:58:00,
2013-05-05 06:59:00,55.9,47.4,29.57,South,188,4.0,7.0,73,0.00,,SKC,0.00,VWS V13.01,2013-05-05 13:59:00,
2013-05-05 07:00:00,56.0,47.5,29.59,SSW,205,3.0,7.0,73,0.00,,SKC,0.00,VWS V13.01,2013-05-05 14:00:00,
2013-05-05 07:01:00,56.1,47.6,29.59,SSW,192,4.0,5.0,73,0.00,,SKC,0.00,VWS V13.01,2013-05-05 14:01:00,
2013-05-05 07:02:00,56.2,47.7,29.59,SW,234,4.0,6.0,73,0.00,,SKC,0.00,VWS V13.01,2013-05-05 14:02:00,
2013-05-05 07:03:00,56.2,47.7,29.59,SW,234,6.0,10.0,73,0.00,,SKC,0.00,VWS V13.01,2013-05-05 14:03:00,
2013-05-05 07:04:00,56.2,47.7,29.59,SW,218,3.0,10.0,73,0.00,,SKC,0.00,VWS V13.01,2013-05-05 14:04:00,
2013-05-05 07:05:00,56.3,47.8,29.59,SSW,204,6.0,10.0,73,0.00,,SKC,0.00,VWS V13.01,2013-05-05 14:05:00,
2013-05-05 07:06:00,56.3,47.4,29.59,WSW,246,7.0,10.0,72,0.00,,SKC,0.00,VWS V13.01,2013-05-05 14:06:00,
2013-05-05 07:07:00,56.2,47.3,29.59,SW,234,3.0,12.0,72,0.00,,SKC,0.00,VWS V13.01,2013-05-05 14:07:00,
2013-05-05 07:08:00,56.2,47.3,29.59,SW,232,4.0,12.0,72,0.00,,SKC,0.00,VWS V13.01,2013-05-05 14:08:00,
2013-05-05 07:09:00,56.3,47.4,29.59,SW,232,3.0,12.0,72,0.00,,SKC,0.00,VWS V13.01,2013-05-05 14:09:00,
2013-05-05 07:10:00,56.3,47.4,29.59,SSW,208,7.0,12.0,72,0.00,,SKC,0.00,VWS V13.01,2013-05-05 14:10:00,
2013-05-05 07:11:00,56.3,47.4,29.60,SW,216,4.0,13.0,72,0.00,,SKC,0.00,VWS V13.01,2013-05-05 14:11:00,
2013-05-05 07:12:00,56.3,47.4,29.60,WSW,238,10.0,13.0,72,0.00,,SKC,0.00,VWS V13.01,2013-05-05 14:12:00,
2013-05-05 07:13:00,56.3,47.4,29.60,SW,227,9.0,13.0,72,0.00,,SKC,0.00,VWS V13.01,2013-05-05 14:13:00,
2013-05-05 07:14:00,56.2,46.9,29.60,SW,232,10.0,13.0,71,0.00,,SKC,0.00,VWS V13.01,2013-05-05 14:14:00,
2013-05-05 07:15:00,56.2,46.9,29.60,SSW,207,3.0,13.0,71,0.00,,SKC,0.00,VWS V13.01,2013-05-05 14:15:00,
2013-05-05 07:16:00,56.2,47.3,29.60,SW,215,4.0,7.0,72,0.00,,SKC,0.00,VWS V13.01,2013-05-05 14:16:00,
2013-05-05 07:17:00,56.3,47.4,29.60,SSW,213,2.0,7.0,72,0.00,,SKC,0.00,VWS V13.01,2013-05-05 14:17:00,
2013-05-05 07:18:00,56.3,47.4,29.60,SW,215,7.0,9.0,72,0.00,,SKC,0.00,VWS V13.01,2013-05-05 14:18:00,
2013-05-05 07:19:00,56.4,47.5,29.60,SSW,213,6.0,9.0,72,0.00,,SKC,0.00,VWS V13.01,2013-05-05 14:19:00,
2013-05-05 07:20:00,56.4,47.5,29.60,SSW,202,5.0,9.0,72,0.00,,SKC,0.00,VWS V13.01,2013-05-05 14:20:00,
2013-05-05 07:21:00,56.5,47.6,29.60,SW,222,5.0,9.0,72,0.00,,SKC,0.00,VWS V13.01,2013-05-05 14:21:00,
2013-05-05 07:22:00,56.5,47.6,29.60,WSW,239,4.0,9.0,72,0.00,,SKC,0.00,VWS V13.01,2013-05-05 14:22:00,
2013-05-05 07:23:00,56.6,47.3,29.60,SW,222,6.0,12.0,71,0.00,,SKC,0.00,VWS V13.01,2013-05-05 14:23:00,
2013-05-05 07:24:00,56.5,47.2,29.60,SW,217,4.0,12.0,71,0.00,,SKC,0.00,VWS V13.01,2013-05-05 14:24:00,
2013-05-05 07:25:00,56.6,47.3,29.60,WSW,244,6.0,12.0,71,0.00,,SKC,0.00,VWS V13.01,2013-05-05 14:25:00,
2013-05-05 07:26:00,56.6,47.3,29.60,SW,230,7.0,9.0,71,0.00,,SKC,0.00,VWS V13.01,2013-05-05 14:26:00,
2013-05-05 07:27:00,56.6,47.3,29.60,SW,228,2.0,9.0,71,0.00,,SKC,0.00,VWS V13.01,2013-05-05 14:27:00,
2013-05-05 07:28:00,56.7,47.8,29.60,SW,231,4.0,9.0,72,0.00,,SKC,0.00,VWS V13.01,2013-05-05 14:28:00,
2013-05-05 07:29:00,56.8,47.9,29.60,WSW,237,2.0,9.0,72,0.00,,SKC,0.00,VWS V13.01,2013-05-05 14:29:00,
2013-05-05 07:30:00,56.9,48.0,29.60,WSW,237,3.0,9.0,72,0.00,,SKC,0.00,VWS V13.01,2013-05-05 14:30:00,
2013-05-05 07:31:00,56.9,47.6,29.60,WSW,237,2.0,6.0,71,0.00,,SKC,0.00,VWS V13.01,2013-05-05 14:31:00,
2013-05-05 07:32:00,57.1,47.8,29.60,SW,236,9.0,10.0,71,0.00,,SKC,0.00,VWS V13.01,2013-05-05 14:32:00,
2013-05-05 07:33:00,57.1,47.8,29.60,WSW,241,6.0,10.0,71,0.00,,SKC,0.00,VWS V13.01,2013-05-05 14:33:00,
2013-05-05 07:34:00,57.1,47.4,29.60,WSW,249,5.0,10.0,70,0.00,,SKC,0.00,VWS V13.01,2013-05-05 14:34:00,
2013-05-05 07:35:00,57.1,47.4,29.60,SW,236,2.0,10.0,70,0.00,,SKC,0.00,VWS V13.01,2013-05-05 14:35:00,
2013-05-05 07:36:00,57.2,47.9,29.60,SW,217,6.0,7.0,71,0.00,,SKC,0.00,VWS V13.01,2013-05-05 14:36:00,
2013-05-05 07:37:00,57.3,47.6,29.60,SW,234,8.0,12.0,70,0.00,,SKC,0.00,VWS V13.01,2013-05-05 14:37:00,
2013-05-05 07:38:00,57.2,47.5,29.60,SW,234,4.0,12.0,70,0.00,,SKC,0.00,VWS V13.01,2013-05-05 14:38:00,
2013-05-05 07:39:00,57.3,47.6,29.60,WSW,239,7.0,12.0,70,0.00,,SKC,0.00,VWS V13.01,2013-05-05 14:39:00,
2013-05-05 07:40:00,57.4,47.7,29.61,SW,234,7.0,12.0,70,0.00,,SKC,0.00,VWS V13.01,2013-05-05 14:40:00,
2013-05-05 07:41:00,57.4,47.7,29.60,SW,221,5.0,10.0,70,0.00,,SKC,0.00,VWS V13.01,2013-05-05 14:41:00,
2013-05-05 07:42:00,57.5,47.8,29.60,West,266,4.0,10.0,70,0.00,,SKC,0.00,VWS V13.01,2013-05-05 14:42:00,
2013-05-05 07:43:00,57.5,47.8,29.60,WSW,251,3.0,10.0,70,0.00,,SKC,0.00,VWS V13.01,2013-05-05 14:43:00,
2013-05-05 07:44:00,57.6,47.9,29.60,WSW,254,3.0,10.0,70,0.00,,SKC,0.00,VWS V13.01,2013-05-05 14:44:00,
2013-05-05 07:45:00,57.7,48.0,29.60,WSW,250,0.0,10.0,70,0.00,,SKC,0.00,VWS V13.01,2013-05-05 14:45:00,
2013-05-05 07:46:00,57.8,48.1,29.61,SW,231,8.0,9.0,70,0.00,,SKC,0.00,VWS V13.01,2013-05-05 14:46:00,
2013-05-05 07:47:00,57.8,47.7,29.61,SSW,212,6.0,9.0,69,0.00,,SKC,0.00,VWS V13.01,2013-05-05 14:47:00,
2013-05-05 07:48:00,57.9,47.8,29.61,SW,232,9.0,10.0,69,0.00,,SKC,0.00,VWS V13.01,2013-05-05 14:48:00,
2013-05-05 07:49:00,57.9,47.4,29.61,SSW,208,5.0,11.0,68,0.00,,SKC,0.00,VWS V13.01,2013-05-05 14:49:00,
2013-05-05 07:50:00,57.8,47.3,29.61,SW,223,3.0,11.0,68,0.00,,SKC,0.00,VWS V13.01,2013-05-05 14:50:00,
2013-05-05 07:51:00,57.9,47.8,29.61,SW,223,4.0,4.0,69,0.00,,SKC,0.00,VWS V13.01,2013-05-05 14:51:00,
2013-05-05 07:52:00,57.9,47.8,29.61,SW,220,8.0,9.0,69,0.00,,SKC,0.00,VWS V13.01,2013-05-05 14:52:00,
2013-05-05 07:53:00,57.9,47.4,29.61,SSW,207,4.0,9.0,68,0.00,,SKC,0.00,VWS V13.01,2013-05-05 14:53:00,
2013-05-05 07:54:00,58.0,47.5,29.61,SW,227,5.0,9.0,68,0.00,,SKC,0.00,VWS V13.01,2013-05-05 14:54:00,
2013-05-05 07:55:00,58.1,47.6,29.61,SW,227,2.0,9.0,68,0.00,,SKC,0.00,VWS V13.01,2013-05-05 14:55:00,
2013-05-05 07:56:00,58.1,47.6,29.61,WSW,244,3.0,4.0,68,0.00,,SKC,0.00,VWS V13.01,2013-05-05 14:56:00,
2013-05-05 07:57:00,58.3,47.8,29.61,WSW,244,3.0,5.0,68,0.00,,SKC,0.00,VWS V13.01,2013-05-05 14:57:00,
2013-05-05 07:58:00,58.4,48.3,29.61,WSW,244,2.0,5.0,69,0.00,,SKC,0.00,VWS V13.01,2013-05-05 14:58:00,
2013-05-05 07:59:00,58.5,48.0,29.61,WSW,249,4.0,5.0,68,0.00,,SKC,0.00,VWS V13.01,2013-05-05 14:59:00,
2013-05-05 08:00:00,58.6,48.1,29.61,WNW,285,4.0,6.0,68,0.00,,SKC,0.00,VWS V13.01,2013-05-05 15:00:00,
2013-05-05 08:01:00,58.7,47.8,29.61,West,277,4.0,4.0,67,0.00,,SKC,0.00,VWS V13.01,2013-05-05 15:01:00,
2013-05-05 08:02:00,59.0,48.5,29.61,West,262,7.0,9.0,68,0.00,,SKC,0.00,VWS V13.01,2013-05-05 15:02:00,
2013-05-05 08:03:00,59.0,48.1,29.61,West,279,3.0,9.0,67,0.00,,SKC,0.00,VWS V13.01,2013-05-05 15:03:00,
2013-05-05 08:04:00,59.0,48.1,29.61,WNW,293,9.0,10.0,67,0.00,,SKC,0.00,VWS V13.01,2013-05-05 15:04:00,
2013-05-05 08:05:00,59.0,48.1,29.61,West,279,2.0,10.0,67,0.00,,SKC,0.00,VWS V13.01,2013-05-05 15:05:00,
2013-05-05 08:06:00,59.0,48.1,29.61,West,275,3.0,5.0,67,0.00,,SKC,0.00,VWS V13.01,2013-05-05 15:06:00,
2013-05-05 08:07:00,59.0,48.1,29.61,SW,234,5.0,7.0,67,0.00,,SKC,0.00,VWS V13.01,2013-05-05 15:07:00,
2013-05-05 08:08:00,59.1,48.2,29.61,SW,236,6.0,8.0,67,0.00,,SKC,0.00,VWS V13.01,2013-05-05 15:08:00,
2013-05-05 08:09:00,59.1,47.8,29.61,WSW,244,4.0,8.0,66,0.00,,SKC,0.00,VWS V13.01,2013-05-05 15:09:00,
2013-05-05 08:10:00,59.3,48.4,29.61,WSW,244,0.0,8.0,67,0.00,,SKC,0.00,VWS V13.01,2013-05-05 15:10:00,
2013-05-05 08:11:00,59.4,48.0,29.61,SW,225,3.0,9.0,66,0.00,,SKC,0.00,VWS V13.01,2013-05-05 15:11:00,
2013-05-05 08:12:00,59.5,48.2,29.61,SW,226,5.0,9.0,66,0.00,,SKC,0.00,VWS V13.01,2013-05-05 15:12:00,
2013-05-05 08:13:00,59.6,48.2,29.61,West,260,6.0,9.0,66,0.00,,SKC,0.00,VWS V13.01,2013-05-05 15:13:00,
2013-05-05 08:14:00,59.7,48.7,29.61,WNW,283,4.0,10.0,67,0.00,,SKC,0.00,VWS V13.01,2013-05-05 15:14:00,
2013-05-05 08:15:00,59.8,48.4,29.61,WNW,283,0.0,10.0,66,0.00,,SKC,0.00,VWS V13.01,2013-05-05 15:15:00,
2013-05-05 08:16:00,59.9,48.5,29.61,WSW,240,4.0,7.0,66,0.00,,SKC,0.00,VWS V13.01,2013-05-05 15:16:00,
2013-05-05 08:17:00,59.9,48.1,29.61,SW,234,6.0,7.0,65,0.00,,SKC,0.00,VWS V13.01,2013-05-05 15:17:00,
2013-05-05 08:18:00,59.9,48.1,29.61,SW,216,3.0,7.0,65,0.00,,SKC,0.00,VWS V13.01,2013-05-05 15:18:00,
2013-05-05 08:19:00,60.0,48.2,29.61,SW,223,5.0,7.0,65,0.00,,SKC,0.00,VWS V13.01,2013-05-05 15:19:00,
2013-05-05 08:20:00,60.1,48.3,29.61,SW,223,0.0,7.0,65,0.00,,SKC,0.00,VWS V13.01,2013-05-05 15:20:00,
2013-05-05 08:21:00,60.2,48.4,29.62,SW,229,4.0,5.0,65,0.00,,SKC,0.00,VWS V13.01,2013-05-05 15:21:00,
2013-05-05 08:22:00,60.3,48.9,29.62,WNW,295,0.0,7.0,66,0.00,,SKC,0.00,VWS V13.01,2013-05-05 15:22:00,
2013-05-05 08:23:00,60.4,48.6,29.61,WNW,295,3.0,7.0,65,0.00,,SKC,0.00,VWS V13.01,2013-05-05 15:23:00,
2013-05-05 08:24:00,60.4,48.6,29.62,West,259,0.0,7.0,65,0.00,,SKC,0.00,VWS V13.01,2013-05-05 15:24:00,
2013-05-05 08:25:00,60.6,48.8,29.62,WSW,256,2.0,7.0,65,0.00,,SKC,0.00,VWS V13.01,2013-05-05 15:25:00,
2013-05-05 08:26:00,60.7,48.5,29.61,WSW,256,3.0,3.0,64,0.00,,SKC,0.00,VWS V13.01,2013-05-05 15:26:00,
2013-05-05 08:27:00,60.8,49.0,29.62,WSW,257,3.0,4.0,65,0.00,,SKC,0.00,VWS V13.01,2013-05-05 15:27:00,
2013-05-05 08:28:00,60.9,49.1,29.62,WSW,257,4.0,5.0,65,0.00,,SKC,0.00,VWS V13.01,2013-05-05 15:28:00,
2013-05-05 08:29:00,61.1,48.8,29.62,WSW,254,0.0,6.0,64,0.00,,SKC,0.00,VWS V13.01,2013-05-05 15:29:00,
2013-05-05 08:30:00,61.2,48.9,29.62,WSW,252,3.0,6.0,64,0.00,,SKC,0.00,VWS V13.01,2013-05-05 15:30:00,
2013-05-05 08:31:00,61.3,49.0,29.62,WSW,250,0.0,5.0,64,0.00,,SKC,0.00,VWS V13.01,2013-05-05 15:31:00,
2013-05-05 08:32:00,61.4,49.1,29.62,WSW,257,0.0,5.0,64,0.00,,SKC,0.00,VWS V13.01,2013-05-05 15:32:00,
2013-05-05 08:33:00,61.5,49.2,29.61,West,279,4.0,5.0,64,0.00,,SKC,0.00,VWS V13.01,2013-05-05 15:33:00,
2013-05-05 08:34:00,61.6,48.9,29.61,WNW,285,5.0,6.0,63,0.00,,SKC,0.00,VWS V13.01,2013-05-05 15:34:00,
2013-05-05 08:35:00,61.6,48.9,29.61,West,279,4.0,10.0,63,0.00,,SKC,0.00,VWS V13.01,2013-05-05 15:35:00,
2013-05-05 08:36:00,61.6,48.9,29.62,WSW,246,2.0,6.0,63,0.00,,SKC,0.00,VWS V13.01,2013-05-05 15:36:00,
2013-05-05 08:37:00,61.7,48.6,29.62,SW,219,7.0,10.0,62,0.00,,SKC,0.00,VWS V13.01,2013-05-05 15:37:00,
2013-05-05 08:38:00,61.7,48.1,29.62,WSW,243,10.0,11.0,61,0.00,,SKC,0.00,VWS V13.01,2013-05-05 15:38:00,
2013-05-05 08:39:00,61.7,47.7,29.62,SW,231,9.0,11.0,60,0.00,,SKC,0.00,VWS V13.01,2013-05-05 15:39:00,
2013-05-05 08:40:00,61.6,47.2,29.62,SW,236,6.0,11.0,59,0.00,,SKC,0.00,VWS V13.01,2013-05-05 15:40:00,
2013-05-05 08:41:00,61.6,47.6,29.62,West,269,4.0,9.0,60,0.00,,SKC,0.00,VWS V13.01,2013-05-05 15:41:00,
2013-05-05 08:42:00,61.6,48.0,29.62,WSW,258,7.0,9.0,61,0.00,,SKC,0.00,VWS V13.01,2013-05-05 15:42:00,
2013-05-05 08:43:00,61.6,47.6,29.62,SW,223,6.0,11.0,60,0.00,,SKC,0.00,VWS V13.01,2013-05-05 15:43:00,
2013-05-05 08:44:00,61.6,47.2,29.62,WSW,242,7.0,11.0,59,0.00,,SKC,0.00,VWS V13.01,2013-05-05 15:44:00,
2013-05-05 08:45:00,61.6,47.2,29.62,WSW,250,4.0,11.0,59,0.00,,SKC,0.00,VWS V13.01,2013-05-05 15:45:00,
2013-05-05 08:46:00,61.6,47.6,29.62,SW,236,7.0,11.0,60,0.00,,SKC,0.00,VWS V13.01,2013-05-05 15:46:00,
2013-05-05 08:47:00,61.6,47.6,29.62,West,260,6.0,11.0,60,0.00,,SKC,0.00,VWS V13.01,2013-05-05 15:47:00,
2013-05-05 08:48:00,61.4,47.4,29.62,West,272,6.0,11.0,60,0.00,,SKC,0.00,VWS V13.01,2013-05-05 15:48:00,
2013-05-05 08:49:00,61.3,46.9,29.62,West,269,5.0,11.0,59,0.00,,SKC,0.00,VWS V13.01,2013-05-05 15:49:00,
2013-05-05 08:50:00,61.1,47.1,29.62,WNW,282,4.0,11.0,60,0.00,,SKC,0.00,VWS V13.01,2013-05-05 15:50:00,
2013-05-05 08:51:00,61.1,47.1,29.62,West,277,5.0,8.0,60,0.00,,SKC,0.00,VWS V13.01,2013-05-05 15:51:00,
2013-05-05 08:52:00,61.0,47.0,29.62,West,277,0.0,8.0,60,0.00,,SKC,0.00,VWS V13.01,2013-05-05 15:52:00,
2013-05-05 08:53:00,61.0,47.0,29.62,West,277,1.0,8.0,60,0.00,,SKC,0.00,VWS V13.01,2013-05-05 15:53:00,
2013-05-05 08:54:00,61.1,47.1,29.62,WSW,240,4.0,8.0,60,0.00,,SKC,0.00,VWS V13.01,2013-05-05 15:54:00,
2013-05-05 08:55:00,61.3,47.3,29.62,WNW,284,5.0,8.0,60,0.00,,SKC,0.00,VWS V13.01,2013-05-05 15:55:00,
2013-05-05 08:56:00,61.4,47.4,29.62,WNW,284,4.0,6.0,60,0.00,,SKC,0.00,VWS V13.01,2013-05-05 15:56:00,
2013-05-05 08:57:00,61.4,47.4,29.62,NW,310,6.0,7.0,60,0.00,,SKC,0.00,VWS V13.01,2013-05-05 15:57:00,
2013-05-05 08:58:00,61.4,47.4,29.62,WNW,289,6.0,7.0,60,0.00,,SKC,0.00,VWS V13.01,2013-05-05 15:58:00,
2013-05-05 08:59:00,61.3,46.9,29.62,WNW,292,6.0,8.0,59,0.00,,SKC,0.00,VWS V13.01,2013-05-05 15:59:00,
2013-05-05 09:00:00,61.3,47.3,29.62,WNW,290,4.0,8.0,60,0.00,,SKC,0.00,VWS V13.01,2013-05-05 16:00:00,
2013-05-05 09:01:00,61.3,46.9,29.62,WNW,300,6.0,6.0,59,0.00,,SKC,0.00,VWS V13.01,2013-05-05 16:01:00,
2013-05-05 09:02:00,61.3,46.9,29.62,West,276,3.0,6.0,59,0.00,,SKC,0.00,VWS V13.01,2013-05-05 16:02:00,
2013-05-05 09:03:00,61.4,47.4,29.62,WNW,286,5.0,6.0,60,0.00,,SKC,0.00,VWS V13.01,2013-05-05 16:03:00,
2013-05-05 09:04:00,61.5,47.9,29.62,WNW,299,4.0,10.0,61,0.00,,SKC,0.00,VWS V13.01,2013-05-05 16:04:00,
2013-05-05 09:05:00,61.7,48.6,29.62,NW,314,7.0,10.0,62,0.00,,SKC,0.00,VWS V13.01,2013-05-05 16:05:00,
2013-05-05 09:06:00,61.7,47.2,29.62,NW,312,4.0,8.0,59,0.00,,SKC,0.00,VWS V13.01,2013-05-05 16:06:00,
2013-05-05 09:07:00,61.7,47.2,29.62,WNW,295,3.0,8.0,59,0.00,,SKC,0.00,VWS V13.01,2013-05-05 16:07:00,
2013-05-05 09:08:00,61.7,47.2,29.62,WNW,286,0.0,8.0,59,0.00,,SKC,0.00,VWS V13.01,2013-05-05 16:08:00,
2013-05-05 09:09:00,61.8,47.3,29.62,SSW,207,4.0,8.0,59,0.00,,SKC,0.00,VWS V13.01,2013-05-05 16:09:00,
2013-05-05 09:10:00,61.9,47.4,29.62,SSW,207,2.0,8.0,59,0.00,,SKC,0.00,VWS V13.01,2013-05-05 16:10:00,
2013-05-05 09:11:00,62.1,47.6,29.62,West,278,0.0,5.0,59,0.00,,SKC,0.00,VWS V13.01,2013-05-05 16:11:00,
2013-05-05 09:12:00,62.3,47.8,29.62,West,273,4.0,5.0,59,0.00,,SKC,0.00,VWS V13.01,2013-05-05 16:12:00,
2013-05-05 09:13:00,62.5,48.4,29.62,WNW,288,3.0,5.0,60,0.00,,SKC,0.00,VWS V13.01,2013-05-05 16:13:00,
2013-05-05 09:14:00,62.8,48.3,29.62,WSW,254,6.0,6.0,59,0.00,,SKC,0.00,VWS V13.01,2013-05-05 16:14:00,
2013-05-05 09:15:00,62.9,47.9,29.62,WSW,250,5.0,9.0,58,0.00,,SKC,0.00,VWS V13.01,2013-05-05 16:15:00,
2013-05-05 09:16:00,62.9,47.5,29.62,SW,231,5.0,5.0,57,0.00,,SKC,0.00,VWS V13.01,2013-05-05 16:16:00,
2013-05-05 09:17:00,62.8,47.4,29.62,WSW,253,4.0,9.0,57,0.00,,SKC,0.00,VWS V13.01,2013-05-05 16:17:00,
2013-05-05 09:18:00,62.6,47.2,29.62,WNW,284,6.0,10.0,57,0.00,,SKC,0.00,VWS V13.01,2013-05-05 16:18:00,
2013-05-05 09:19:00,62.4,47.0,29.62,West,279,1.0,10.0,57,0.00,,SKC,0.00,VWS V13.01,2013-05-05 16:19:00,
2013-05-05 09:20:00,62.3,47.3,29.62,West,260,6.0,10.0,58,0.00,,SKC,0.00,VWS V13.01,2013-05-05 16:20:00,
2013-05-05 09:21:00,62.2,47.3,29.62,WSW,254,2.0,6.0,58,0.00,,SKC,0.00,VWS V13.01,2013-05-05 16:21:00,
2013-05-05 09:22:00,62.1,47.2,29.62,WSW,247,0.0,6.0,58,0.00,,SKC,0.00,VWS V13.01,2013-05-05 16:22:00,
2013-05-05 09:23:00,62.1,47.2,29.62,WNW,294,0.0,6.0,58,0.00,,SKC,0.00,VWS V13.01,2013-05-05 16:23:00,
2013-05-05 09:24:00,62.1,47.6,29.62,West,265,5.0,7.0,59,0.00,,SKC,0.00,VWS V13.01,2013-05-05 16:24:00,
2013-05-05 09:25:00,62.1,47.2,29.62,West,262,5.0,7.0,58,0.00,,SKC,0.00,VWS V13.01,2013-05-05 16:25:00,
2013-05-05 09:26:00,62.1,47.2,29.62,WNW,300,2.0,5.0,58,0.00,,SKC,0.00,VWS V13.01,2013-05-05 16:26:00,
2013-05-05 09:27:00,62.2,47.7,29.62,WSW,252,2.0,5.0,59,0.00,,SKC,0.00,VWS V13.01,2013-05-05 16:27:00,
2013-05-05 09:28:00,62.2,47.3,29.62,West,280,0.0,5.0,58,0.00,,SKC,0.00,VWS V13.01,2013-05-05 16:28:00,
2013-05-05 09:29:00,62.3,47.3,29.62,West,280,0.0,5.0,58,0.00,,SKC,0.00,VWS V13.01,2013-05-05 16:29:00,
2013-05-05 09:30:00,62.4,47.9,29.62,WSW,257,4.0,5.0,59,0.00,,SKC,0.00,VWS V13.01,2013-05-05 16:30:00,
2013-05-05 09:31:00,62.6,48.1,29.62,West,270,7.0,7.0,59,0.00,,SKC,0.00,VWS V13.01,2013-05-05 16:31:00,
2013-05-05 09:32:00,62.7,47.7,29.62,SW,215,6.0,9.0,58,0.00,,SKC,0.00,VWS V13.01,2013-05-05 16:32:00,
2013-05-05 09:33:00,62.8,47.4,29.62,WSW,242,5.0,10.0,57,0.00,,SKC,0.00,VWS V13.01,2013-05-05 16:33:00,
2013-05-05 09:34:00,62.8,47.4,29.62,WSW,242,2.0,10.0,57,0.00,,SKC,0.00,VWS V13.01,2013-05-05 16:34:00,
2013-05-05 09:35:00,62.9,47.9,29.62,SW,234,2.0,10.0,58,0.00,,SKC,0.00,VWS V13.01,2013-05-05 16:35:00,
2013-05-05 09:36:00,63.0,48.0,29.62,SSW,194,5.0,7.0,58,0.00,,SKC,0.00,VWS V13.01,2013-05-05 16:36:00,
2013-05-05 09:37:00,63.0,47.5,29.62,SW,229,4.0,7.0,57,0.00,,SKC,0.00,VWS V13.01,2013-05-05 16:37:00,
2013-05-05 09:38:00,63.0,48.0,29.62,WSW,238,7.0,8.0,58,0.00,,SKC,0.00,VWS V13.01,2013-05-05 16:38:00,
2013-05-05 09:39:00,62.9,47.5,29.62,SW,225,12.0,12.0,57,0.00,,SKC,0.00,VWS V13.01,2013-05-05 16:39:00,
2013-05-05 09:40:00,62.7,47.3,29.62,SW,227,6.0,12.0,57,0.00,,SKC,0.00,VWS V13.01,2013-05-05 16:40:00,
2013-05-05 09:41:00,62.5,46.6,29.62,SW,228,4.0,7.0,56,0.00,,SKC,0.00,VWS V13.01,2013-05-05 16:41:00,
2013-05-05 09:42:00,62.3,46.4,29.63,SW,229,4.0,7.0,56,0.00,,SKC,0.00,VWS V13.01,2013-05-05 16:42:00,
2013-05-05 09:43:00,62.3,47.3,29.63,WNW,290,6.0,7.0,58,0.00,,SKC,0.00,VWS V13.01,2013-05-05 16:43:00,
2013-05-05 09:44:00,62.2,47.7,29.63,WNW,282,5.0,7.0,59,0.00,,SKC,0.00,VWS V13.01,2013-05-05 16:44:00,
2013-05-05 09:45:00,62.2,47.3,29.62,West,279,0.0,7.0,58,0.00,,SKC,0.00,VWS V13.01,2013-05-05 16:45:00,
2013-05-05 09:46:00,62.2,47.3,29.63,West,279,2.0,3.0,58,0.00,,SKC,0.00,VWS V13.01,2013-05-05 16:46:00,
2013-05-05 09:47:00,62.2,47.7,29.63,West,279,3.0,4.0,59,0.00,,SKC,0.00,VWS V13.01,2013-05-05 16:47:00,
2013-05-05 09:48:00,62.2,47.3,29.63,NW,304,7.0,9.0,58,0.00,,SKC,0.00,VWS V13.01,2013-05-05 16:48:00,
2013-05-05 09:49:00,62.2,47.7,29.63,WNW,303,4.0,9.0,59,0.00,,SKC,0.00,VWS V13.01,2013-05-05 16:49:00,
2013-05-05 09:50:00,62.2,48.2,29.63,WNW,287,5.0,9.0,60,0.00,,SKC,0.00,VWS V13.01,2013-05-05 16:50:00,
2013-05-05 09:51:00,62.3,48.2,29.63,West,281,2.0,5.0,60,0.00,,SKC,0.00,VWS V13.01,2013-05-05 16:51:00,
2013-05-05 09:52:00,62.4,47.9,29.63,WNW,282,3.0,5.0,59,0.00,,SKC,0.00,VWS V13.01,2013-05-05 16:52:00,
2013-05-05 09:53:00,62.5,47.5,29.63,NW,318,4.0,5.0,58,0.00,,SKC,0.00,VWS V13.01,2013-05-05 16:53:00,
2013-05-05 09:54:00,62.6,48.1,29.63,North,351,3.0,5.0,59,0.00,,SKC,0.00,VWS V13.01,2013-05-05 16:54:00,
2013-05-05 09:55:00,62.7,47.7,29.63,North,351,1.0,5.0,58,0.00,,SKC,0.00,VWS V13.01,2013-05-05 16:55:00,
2013-05-05 09:56:00,62.8,47.8,29.63,North,351,0.0,3.0,58,0.00,,SKC,0.00,VWS V13.01,2013-05-05 16:56:00,
2013-05-05 09:57:00,63.0,48.5,29.63,NNW,341,4.0,4.0,59,0.00,,SKC,0.00,VWS V13.01,2013-05-05 16:57:00,
2013-05-05 09:58:00,63.2,48.7,29.63,WNW,287,7.0,9.0,59,0.00,,SKC,0.00,VWS V13.01,2013-05-05 16:58:00,
2013-05-05 09:59:00,63.4,48.4,29.63,WNW,300,5.0,9.0,58,0.00,,SKC,0.00,VWS V13.01,2013-05-05 16:59:00,
2013-05-05 10:00:00,63.5,48.0,29.63,WNW,294,4.0,9.0,57,0.00,,SKC,0.00,VWS V13.01,2013-05-05 17:00:00,
2013-05-05 10:01:00,63.5,48.0,29.63,WNW,294,0.0,4.0,57,0.00,,SKC,0.00,VWS V13.01,2013-05-05 17:01:00,
2013-05-05 10:02:00,63.5,48.0,29.63,NW,313,5.0,8.0,57,0.00,,SKC,0.00,VWS V13.01,2013-05-05 17:02:00,
2013-05-05 10:03:00,63.4,47.5,29.63,NW,313,0.0,8.0,56,0.00,,SKC,0.00,VWS V13.01,2013-05-05 17:03:00,
2013-05-05 10:04:00,63.2,47.3,29.63,NNW,347,2.0,8.0,56,0.00,,SKC,0.00,VWS V13.01,2013-05-05 17:04:00,
2013-05-05 10:05:00,63.2,47.3,29.63,NNW,347,0.0,8.0,56,0.00,,SKC,0.00,VWS V13.01,2013-05-05 17:05:00,
2013-05-05 10:06:00,63.2,47.7,29.64,WSW,239,6.0,7.0,57,0.00,,SKC,0.00,VWS V13.01,2013-05-05 17:06:00,
2013-05-05 10:07:00,63.2,47.7,29.63,SW,236,1.0,7.0,57,0.00,,SKC,0.00,VWS V13.01,2013-05-05 17:07:00,
2013-05-05 10:08:00,63.2,47.7,29.63,SW,236,0.0,7.0,57,0.00,,SKC,0.00,VWS V13.01,2013-05-05 17:08:00,
2013-05-05 10:09:00,63.2,48.2,29.64,SW,236,0.0,7.0,58,0.00,,SKC,0.00,VWS V13.01,2013-05-05 17:09:00,
2013-05-05 10:10:00,63.3,48.3,29.64,SW,236,4.0,7.0,58,0.00,,SKC,0.00,VWS V13.01,2013-05-05 17:10:00,
2013-05-05 10:11:00,63.4,47.9,29.64,SW,236,0.0,5.0,57,0.00,,SKC,0.00,VWS V13.01,2013-05-05 17:11:00,
2013-05-05 10:12:00,63.4,47.5,29.64,SW,236,0.0,5.0,56,0.00,,SKC,0.00,VWS V13.01,2013-05-05 17:12:00,
2013-05-05 10:13:00,63.6,48.1,29.63,SW,236,1.0,5.0,57,0.00,,SKC,0.00,VWS V13.01,2013-05-05 17:13:00,
2013-05-05 10:14:00,63.7,47.7,29.63,SW,236,3.0,5.0,56,0.00,,SKC,0.00,VWS V13.01,2013-05-05 17:14:00,
2013-05-05 10:15:00,63.8,48.3,29.63,WNW,288,4.0,5.0,57,0.00,,SKC,0.00,VWS V13.01,2013-05-05 17:15:00,
2013-05-05 10:16:00,64.0,48.5,29.63,WNW,288,1.0,6.0,57,0.00,,SKC,0.00,VWS V13.01,2013-05-05 17:16:00,
2013-05-05 10:17:00,64.1,48.6,29.63,WNW,288,0.0,6.0,57,0.00,,SKC,0.00,VWS V13.01,2013-05-05 17:17:00,
2013-05-05 10:18:00,64.3,48.3,29.64,WNW,288,0.0,6.0,56,0.00,,SKC,0.00,VWS V13.01,2013-05-05 17:18:00,
2013-05-05 10:19:00,64.5,48.0,29.64,WNW,288,4.0,6.0,55,0.00,,SKC,0.00,VWS V13.01,2013-05-05 17:19:00,
2013-05-05 10:20:00,64.6,48.1,29.63,WSW,246,5.0,7.0,55,0.00,,SKC,0.00,VWS V13.01,2013-05-05 17:20:00,
2013-05-05 10:21:00,64.6,47.6,29.63,WSW,258,4.0,9.0,54,0.00,,SKC,0.00,VWS V13.01,2013-05-05 17:21:00,
2013-05-05 10:22:00,64.4,46.9,29.63,SW,215,2.0,9.0,53,0.00,,SKC,0.00,VWS V13.01,2013-05-05 17:22:00,
2013-05-05 10:23:00,64.4,46.9,29.63,SSW,192,2.0,9.0,53,0.00,,SKC,0.00,VWS V13.01,2013-05-05 17:23:00,
2013-05-05 10:24:00,64.4,47.9,29.63,South,176,2.0,9.0,55,0.00,,SKC,0.00,VWS V13.01,2013-05-05 17:24:00,
2013-05-05 10:25:00,64.5,48.0,29.63,South,184,0.0,9.0,55,0.00,,SKC,0.00,VWS V13.01,2013-05-05 17:25:00,
2013-05-05 10:26:00,64.6,48.6,29.63,NW,305,7.0,8.0,56,0.00,,SKC,0.00,VWS V13.01,2013-05-05 17:26:00,
2013-05-05 10:27:00,64.7,48.2,29.64,West,278,3.0,12.0,55,0.00,,SKC,0.00,VWS V13.01,2013-05-05 17:27:00,
2013-05-05 10:28:00,64.7,47.7,29.63,West,273,4.0,12.0,54,0.00,,SKC,0.00,VWS V13.01,2013-05-05 17:28:00,
2013-05-05 10:29:00,64.7,47.2,29.63,West,269,3.0,12.0,53,0.00,,SKC,0.00,VWS V13.01,2013-05-05 17:29:00,
2013-05-05 10:30:00,64.7,47.7,29.63,WSW,241,6.0,12.0,54,0.00,,SKC,0.00,VWS V13.01,2013-05-05 17:30:00,
2013-05-05 10:31:00,64.7,47.2,29.64,WSW,242,3.0,6.0,53,0.00,,SKC,0.00,VWS V13.01,2013-05-05 17:31:00,
2013-05-05 10:32:00,64.8,47.3,29.64,WSW,242,0.0,6.0,53,0.00,,SKC,0.00,VWS V13.01,2013-05-05 17:32:00,
2013-05-05 10:33:00,64.9,47.9,29.64,WSW,240,3.0,7.0,54,0.00,,SKC,0.00,VWS V13.01,2013-05-05 17:33:00,
2013-05-05 10:34:00,64.9,47.9,29.64,SSW,213,7.0,7.0,54,0.00,,SKC,0.00,VWS V13.01,2013-05-05 17:34:00,
2013-05-05 10:35:00,64.9,47.4,29.64,SW,221,4.0,8.0,53,0.00,,SKC,0.00,VWS V13.01,2013-05-05 17:35:00,
2013-05-05 10:36:00,64.9,47.4,29.63,SW,223,0.0,6.0,53,0.00,,SKC,0.00,VWS V13.01,2013-05-05 17:36:00,
2013-05-05 10:37:00,64.9,47.4,29.64,SW,221,4.0,6.0,53,0.00,,SKC,0.00,VWS V13.01,2013-05-05 17:37:00,
2013-05-05 10:38:00,64.9,46.9,29.64,SW,221,0.0,6.0,52,0.00,,SKC,0.00,VWS V13.01,2013-05-05 17:38:00,
2013-05-05 10:39:00,64.9,47.4,29.64,SW,217,0.0,6.0,53,0.00,,SKC,0.00,VWS V13.01,2013-05-05 17:39:00,
2013-05-05 10:40:00,64.9,46.9,29.63,SW,217,0.0,6.0,52,0.00,,SKC,0.00,VWS V13.01,2013-05-05 17:40:00,
2013-05-05 10:41:00,64.9,47.4,29.63,SW,217,0.0,4.0,53,0.00,,SKC,0.00,VWS V13.01,2013-05-05 17:41:00,
2013-05-05 10:42:00,64.9,47.4,29.63,SSW,203,2.0,4.0,53,0.00,,SKC,0.00,VWS V13.01,2013-05-05 17:42:00,
2013-05-05 10:43:00,65.0,47.5,29.64,SSW,203,1.0,4.0,53,0.00,,SKC,0.00,VWS V13.01,2013-05-05 17:43:00,
2013-05-05 10:44:00,65.1,47.6,29.64,SSW,203,0.0,4.0,53,0.00,,SKC,0.00,VWS V13.01,2013-05-05 17:44:00,
2013-05-05 10:45:00,65.2,47.7,29.64,SSW,203,2.0,4.0,53,0.00,,SKC,0.00,VWS V13.01,2013-05-05 17:45:00,
2013-05-05 10:46:00,65.3,47.8,29.64,SSW,203,0.0,2.0,53,0.00,,SKC,0.00,VWS V13.01,2013-05-05 17:46:00,
2013-05-05 10:47:00,65.5,49.4,29.63,WNW,286,4.0,5.0,56,0.00,,SKC,0.00,VWS V13.01,2013-05-05 17:47:00,
2013-05-05 10:48:00,65.7,49.1,29.63,North,5,4.0,5.0,55,0.00,,SKC,0.00,VWS V13.01,2013-05-05 17:48:00,
2013-05-05 10:49:00,65.9,49.3,29.63,North,5,0.0,5.0,55,0.00,,SKC,0.00,VWS V13.01,2013-05-05 17:49:00,
2013-05-05 10:50:00,66.1,49.0,29.63,North,5,4.0,5.0,54,0.00,,SKC,0.00,VWS V13.01,2013-05-05 17:50:00,
2013-05-05 10:51:00,66.3,49.2,29.63,NW,306,6.0,10.0,54,0.00,,SKC,0.00,VWS V13.01,2013-05-05 17:51:00,
2013-05-05 10:52:00,66.2,49.1,29.63,NW,311,6.0,10.0,54,0.00,,SKC,0.00,VWS V13.01,2013-05-05 17:52:00,
2013-05-05 10:53:00,66.1,49.0,29.63,WNW,290,5.0,10.0,54,0.00,,SKC,0.00,VWS V13.01,2013-05-05 17:53:00,
2013-05-05 10:54:00,66.2,49.1,29.63,West,279,5.0,10.0,54,0.00,,SKC,0.00,VWS V13.01,2013-05-05 17:54:00,
2013-05-05 10:55:00,66.0,48.4,29.63,West,277,3.0,10.0,53,0.00,,SKC,0.00,VWS V13.01,2013-05-05 17:55:00,
2013-05-05 10:56:00,65.9,48.3,29.64,WNW,289,4.0,6.0,53,0.00,,SKC,0.00,VWS V13.01,2013-05-05 17:56:00,
2013-05-05 10:57:00,65.9,48.8,29.64,WSW,253,3.0,7.0,54,0.00,,SKC,0.00,VWS V13.01,2013-05-05 17:57:00,
2013-05-05 10:58:00,66.0,48.9,29.64,NW,322,0.0,7.0,54,0.00,,SKC,0.00,VWS V13.01,2013-05-05 17:58:00,
2013-05-05 10:59:00,66.1,48.5,29.64,West,270,4.0,7.0,53,0.00,,SKC,0.00,VWS V13.01,2013-05-05 17:59:00,
2013-05-05 11:00:00,66.1,48.0,29.64,WSW,248,2.0,7.0,52,0.00,,SKC,0.00,VWS V13.01,2013-05-05 18:00:00,
2013-05-05 11:01:00,66.1,48.5,29.64,WSW,240,0.0,3.0,53,0.00,,SKC,0.00,VWS V13.01,2013-05-05 18:01:00,
2013-05-05 11:02:00,66.2,48.6,29.64,WSW,240,0.0,4.0,53,0.00,,SKC,0.00,VWS V13.01,2013-05-05 18:02:00,
2013-05-05 11:03:00,66.3,49.7,29.64,WSW,240,0.0,4.0,55,0.00,,SKC,0.00,VWS V13.01,2013-05-05 18:03:00,
2013-05-05 11:04:00,66.3,48.7,29.64,WSW,240,0.0,4.0,53,0.00,,SKC,0.00,VWS V13.01,2013-05-05 18:04:00,
2013-05-05 11:05:00,66.4,48.3,29.64,SSW,198,0.0,4.0,52,0.00,,SKC,0.00,VWS V13.01,2013-05-05 18:05:00,
2013-05-05 11:06:00,66.4,48.3,29.64,SSW,199,4.0,4.0,52,0.00,,SKC,0.00,VWS V13.01,2013-05-05 18:06:00,
2013-05-05 11:07:00,66.5,48.3,29.64,SSW,199,0.0,4.0,52,0.00,,SKC,0.00,VWS V13.01,2013-05-05 18:07:00,
2013-05-05 11:08:00,66.6,48.4,29.64,WNW,282,0.0,5.0,52,0.00,,SKC,0.00,VWS V13.01,2013-05-05 18:08:00,
2013-05-05 11:09:00,66.8,49.1,29.64,WSW,252,3.0,5.0,53,0.00,,SKC,0.00,VWS V13.01,2013-05-05 18:09:00,
2013-05-05 11:10:00,67.0,49.3,29.64,West,267,2.0,5.0,53,0.00,,SKC,0.00,VWS V13.01,2013-05-05 18:10:00,
2013-05-05 11:11:00,67.2,49.5,29.63,West,267,0.0,2.0,53,0.00,,SKC,0.00,VWS V13.01,2013-05-05 18:11:00,
2013-05-05 11:12:00,67.4,49.7,29.63,WSW,240,6.0,6.0,53,0.00,,SKC,0.00,VWS V13.01,2013-05-05 18:12:00,
2013-05-05 11:13:00,67.5,48.8,29.63,SW,223,3.0,11.0,51,0.00,,SKC,0.00,VWS V13.01,2013-05-05 18:13:00,
2013-05-05 11:14:00,67.5,49.3,29.63,SSW,198,5.0,11.0,52,0.00,,SKC,0.00,VWS V13.01,2013-05-05 18:14:00,
2013-05-05 11:15:00,67.4,48.1,29.63,SSW,196,1.0,11.0,50,0.00,,SKC,0.00,VWS V13.01,2013-05-05 18:15:00,
2013-05-05 11:16:00,67.3,48.0,29.64,SSW,194,0.0,3.0,50,0.00,,SKC,0.00,VWS V13.01,2013-05-05 18:16:00,
2013-05-05 11:17:00,67.3,48.6,29.64,SSW,209,8.0,10.0,51,0.00,,SKC,0.00,VWS V13.01,2013-05-05 18:17:00,
2013-05-05 11:18:00,67.2,48.5,29.64,SSW,192,5.0,10.0,51,0.00,,SKC,0.00,VWS V13.01,2013-05-05 18:18:00,
2013-05-05 11:19:00,67.2,48.5,29.64,West,277,3.0,10.0,51,0.00,,SKC,0.00,VWS V13.01,2013-05-05 18:19:00,
2013-05-05 11:20:00,67.3,49.1,29.64,WNW,288,3.0,10.0,52,0.00,,SKC,0.00,VWS V13.01,2013-05-05 18:20:00,
2013-05-05 11:21:00,67.2,48.5,29.64,WNW,290,0.0,4.0,51,0.00,,SKC,0.00,VWS V13.01,2013-05-05 18:21:00,
2013-05-05 11:22:00,67.2,48.5,29.64,NNW,334,0.0,6.0,51,0.00,,SKC,0.00,VWS V13.01,2013-05-05 18:22:00,
2013-05-05 11:23:00,67.2,49.0,29.64,WNW,294,0.0,6.0,52,0.00,,SKC,0.00,VWS V13.01,2013-05-05 18:23:00,
2013-05-05 11:24:00,67.2,49.0,29.63,WNW,286,5.0,6.0,52,0.00,,SKC,0.00,VWS V13.01,2013-05-05 18:24:00,
2013-05-05 11:25:00,67.2,49.5,29.63,WNW,288,0.0,6.0,53,0.00,,SKC,0.00,VWS V13.01,2013-05-05 18:25:00,
2013-05-05 11:26:00,67.4,50.2,29.63,NW,315,3.0,5.0,54,0.00,,SKC,0.00,VWS V13.01,2013-05-05 18:26:00,
2013-05-05 11:27:00,67.4,49.2,29.63,NNW,345,7.0,7.0,52,0.00,,SKC,0.00,VWS V13.01,2013-05-05 18:27:00,
2013-05-05 11:28:00,67.5,49.3,29.63,NW,319,2.0,7.0,52,0.00,,SKC,0.00,VWS V13.01,2013-05-05 18:28:00,
2013-05-05 11:29:00,67.7,49.5,29.63,WNW,291,0.0,7.0,52,0.00,,SKC,0.00,VWS V13.01,2013-05-05 18:29:00,
2013-05-05 11:30:00,67.8,49.5,29.63,WNW,291,0.0,7.0,52,0.00,,SKC,0.00,VWS V13.01,2013-05-05 18:30:00,
2013-05-05 11:31:00,67.9,49.7,29.63,WNW,291,0.0,0.0,52,0.00,,SKC,0.00,VWS V13.01,2013-05-05 18:31:00,
2013-05-05 11:32:00,68.0,49.2,29.63,South,180,7.0,7.0,51,0.00,,SKC,0.00,VWS V13.01,2013-05-05 18:32:00,
2013-05-05 11:33:00,68.0,48.7,29.63,SSW,201,15.0,17.0,50,0.00,,SKC,0.00,VWS V13.01,2013-05-05 18:33:00,
2013-05-05 11:34:00,67.9,49.7,29.63,WNW,291,10.0,17.0,52,0.00,,SKC,0.00,VWS V13.01,2013-05-05 18:34:00,
2013-05-05 11:35:00,67.9,49.1,29.63,SW,235,6.0,17.0,51,0.00,,SKC,0.00,VWS V13.01,2013-05-05 18:35:00,
2013-05-05 11:36:00,67.9,49.1,29.63,West,277,5.0,6.0,51,0.00,,SKC,0.00,VWS V13.01,2013-05-05 18:36:00,
2013-05-05 11:37:00,68.0,49.2,29.63,NW,309,6.0,10.0,51,0.00,,SKC,0.00,VWS V13.01,2013-05-05 18:37:00,
2013-05-05 11:38:00,68.0,49.7,29.63,NW,311,1.0,10.0,52,0.00,,SKC,0.00,VWS V13.01,2013-05-05 18:38:00,
2013-05-05 11:39:00,68.1,49.3,29.63,NW,308,2.0,10.0,51,0.00,,SKC,0.00,VWS V13.01,2013-05-05 18:39:00,
2013-05-05 11:40:00,68.1,48.8,29.63,West,272,2.0,10.0,50,0.00,,SKC,0.00,VWS V13.01,2013-05-05 18:40:00,
2013-05-05 11:41:00,68.1,48.2,29.63,West,272,0.0,3.0,49,0.00,,SKC,0.00,VWS V13.01,2013-05-05 18:41:00,
2013-05-05 11:42:00,68.2,48.3,29.63,WSW,250,1.0,7.0,49,0.00,,SKC,0.00,VWS V13.01,2013-05-05 18:42:00,
2013-05-05 11:43:00,68.2,48.3,29.63,WSW,250,3.0,7.0,49,0.00,,SKC,0.00,VWS V13.01,2013-05-05 18:43:00,
2013-05-05 11:44:00,68.0,48.2,29.63,WSW,249,3.0,7.0,49,0.00,,SKC,0.00,VWS V13.01,2013-05-05 18:44:00,
2013-05-05 11:45:00,67.9,47.5,29.63,WSW,249,0.0,7.0,48,0.00,,SKC,0.00,VWS V13.01,2013-05-05 18:45:00,
2013-05-05 11:46:00,67.9,48.1,29.63,WSW,249,0.0,0.0,49,0.00,,SKC,0.00,VWS V13.01,2013-05-05 18:46:00,
2013-05-05 11:47:00,67.8,48.0,29.63,WSW,249,0.0,0.0,49,0.00,,SKC,0.00,VWS V13.01,2013-05-05 18:47:00,
2013-05-05 11:48:00,67.9,48.6,29.63,WSW,249,0.0,0.0,50,0.00,,SKC,0.00,VWS V13.01,2013-05-05 18:48:00,
2013-05-05 11:49:00,67.9,49.1,29.63,WNW,296,0.0,4.0,51,0.00,,SKC,0.00,VWS V13.01,2013-05-05 18:49:00,
2013-05-05 11:50:00,68.0,49.2,29.63,NW,310,3.0,4.0,51,0.00,,SKC,0.00,VWS V13.01,2013-05-05 18:50:00,
2013-05-05 11:51:00,68.0,49.2,29.63,NNW,337,3.0,5.0,51,0.00,,SKC,0.00,VWS V13.01,2013-05-05 18:51:00,
2013-05-05 11:52:00,68.0,49.7,29.63,WNW,289,3.0,7.0,52,0.00,,SKC,0.00,VWS V13.01,2013-05-05 18:52:00,
2013-05-05 11:53:00,68.1,50.3,29.63,NW,312,3.0,9.0,53,0.00,,SKC,0.00,VWS V13.01,2013-05-05 18:53:00,
2013-05-05 11:54:00,68.1,49.3,29.63,WNW,298,1.0,9.0,51,0.00,,SKC,0.00,VWS V13.01,2013-05-05 18:54:00,
2013-05-05 11:55:00,68.0,48.7,29.63,NW,307,5.0,9.0,50,0.00,,SKC,0.00,VWS V13.01,2013-05-05 18:55:00,
2013-05-05 11:56:00,67.9,49.1,29.63,WNW,299,2.0,5.0,51,0.00,,SKC,0.00,VWS V13.01,2013-05-05 18:56:00,
2013-05-05 11:57:00,67.9,49.1,29.63,WNW,300,2.0,5.0,51,0.00,,SKC,0.00,VWS V13.01,2013-05-05 18:57:00,
2013-05-05 11:58:00,67.9,49.7,29.63,NNW,344,0.0,6.0,52,0.00,,SKC,0.00,VWS V13.01,2013-05-05 18:58:00,
2013-05-05 11:59:00,68.1,50.3,29.63,NW,324,0.0,6.0,53,0.00,,SKC,0.00,VWS V13.01,2013-05-05 18:59:00,
2013-05-05 12:00:00,68.2,49.9,29.63,NW,324,0.0,6.0,52,0.00,,SKC,0.00,VWS V13.01,2013-05-05 19:00:00,
2013-05-05 12:01:00,68.3,49.5,29.63,NW,324,0.0,3.0,51,0.00,,SKC,0.00,VWS V13.01,2013-05-05 19:01:00,
2013-05-05 12:02:00,68.4,49.1,29.63,NW,319,5.0,5.0,50,0.00,,SKC,0.00,VWS V13.01,2013-05-05 19:02:00,
2013-05-05 12:03:00,68.6,49.2,29.63,WNW,297,6.0,9.0,50,0.00,,SKC,0.00,VWS V13.01,2013-05-05 19:03:00,
2013-05-05 12:04:00,68.6,49.8,29.63,West,275,3.0,9.0,51,0.00,,SKC,0.00,VWS V13.01,2013-05-05 19:04:00,
2013-05-05 12:05:00,68.6,49.2,29.63,WSW,254,10.0,10.0,50,0.00,,SKC,0.00,VWS V13.01,2013-05-05 19:05:00,
2013-05-05 12:06:00,68.6,49.2,29.63,WSW,243,6.0,10.0,50,0.00,,SKC,0.00,VWS V13.01,2013-05-05 19:06:00,
2013-05-05 12:07:00,68.7,49.3,29.63,West,261,2.0,10.0,50,0.00,,SKC,0.00,VWS V13.01,2013-05-05 19:07:00,
2013-05-05 12:08:00,68.6,48.7,29.63,WSW,240,6.0,10.0,49,0.00,,SKC,0.00,VWS V13.01,2013-05-05 19:08:00,
2013-05-05 12:09:00,68.6,48.2,29.63,WSW,242,0.0,10.0,48,0.00,,SKC,0.00,VWS V13.01,2013-05-05 19:09:00,
2013-05-05 12:10:00,68.5,49.7,29.63,WSW,250,3.0,10.0,51,0.00,,SKC,0.00,VWS V13.01,2013-05-05 19:10:00,
2013-05-05 12:11:00,68.6,49.2,29.63,WSW,249,3.0,5.0,50,0.00,,SKC,0.00,VWS V13.01,2013-05-05 19:11:00,
2013-05-05 12:12:00,68.6,48.7,29.63,WNW,288,12.0,12.0,49,0.00,,SKC,0.00,VWS V13.01,2013-05-05 19:12:00,
2013-05-05 12:13:00,68.4,48.5,29.63,West,277,5.0,12.0,49,0.00,,SKC,0.00,VWS V13.01,2013-05-05 19:13:00,
2013-05-05 12:14:00,68.2,47.8,29.63,WNW,283,10.0,12.0,48,0.00,,SKC,0.00,VWS V13.01,2013-05-05 19:14:00,
2013-05-05 12:15:00,68.1,48.2,29.63,WNW,286,0.0,12.0,49,0.00,,SKC,0.00,VWS V13.01,2013-05-05 19:15:00,
2013-05-05 12:16:00,68.1,48.8,29.63,West,259,3.0,6.0,50,0.00,,SKC,0.00,VWS V13.01,2013-05-05 19:16:00,
2013-05-05 12:17:00,68.2,48.9,29.63,West,276,0.0,6.0,50,0.00,,SKC,0.00,VWS V13.01,2013-05-05 19:17:00,
2013-05-05 12:18:00,68.3,49.0,29.63,West,275,8.0,8.0,50,0.00,,SKC,0.00,VWS V13.01,2013-05-05 19:18:00,
2013-05-05 12:19:00,68.4,48.5,29.63,North,5,3.0,9.0,49,0.00,,SKC,0.00,VWS V13.01,2013-05-05 19:19:00,
2013-05-05 12:20:00,68.5,48.6,29.63,NNW,333,0.0,9.0,49,0.00,,SKC,0.00,VWS V13.01,2013-05-05 19:20:00,
2013-05-05 12:21:00,68.5,48.6,29.63,NW,317,9.0,9.0,49,0.00,,SKC,0.00,VWS V13.01,2013-05-05 19:21:00,
2013-05-05 12:22:00,68.6,49.2,29.62,WNW,285,1.0,9.0,50,0.00,,SKC,0.00,VWS V13.01,2013-05-05 19:22:00,
2013-05-05 12:23:00,68.6,48.7,29.62,WNW,294,6.0,9.0,49,0.00,,SKC,0.00,VWS V13.01,2013-05-05 19:23:00,
2013-05-05 12:24:00,68.6,48.7,29.63,NW,311,10.0,13.0,49,0.00,,SKC,0.00,VWS V13.01,2013-05-05 19:24:00,
2013-05-05 12:25:00,68.5,48.6,29.63,WNW,291,2.0,13.0,49,0.00,,SKC,0.00,VWS V13.01,2013-05-05 19:25:00,
2013-05-05 12:26:00,68.4,48.5,29.63,NW,324,1.0,8.0,49,0.00,,SKC,0.00,VWS V13.01,2013-05-05 19:26:00,
2013-05-05 12:27:00,68.3,48.4,29.63,WSW,254,2.0,8.0,49,0.00,,SKC,0.00,VWS V13.01,2013-05-05 19:27:00,
2013-05-05 12:28:00,68.2,48.3,29.63,WSW,238,3.0,9.0,49,0.00,,SKC,0.00,VWS V13.01,2013-05-05 19:28:00,
2013-05-05 12:29:00,68.1,47.7,29.62,WSW,242,3.0,9.0,48,0.00,,SKC,0.00,VWS V13.01,2013-05-05 19:29:00,
2013-05-05 12:30:00,68.2,48.3,29.63,North,349,4.0,9.0,49,0.00,,SKC,0.00,VWS V13.01,2013-05-05 19:30:00,
2013-05-05 12:31:00,68.4,49.1,29.62,North,351,0.0,5.0,50,0.00,,SKC,0.00,VWS V13.01,2013-05-05 19:31:00,
2013-05-05 12:32:00,68.6,50.3,29.62,NW,306,3.0,5.0,52,0.00,,SKC,0.00,VWS V13.01,2013-05-05 19:32:00,
2013-05-05 12:33:00,68.9,49.5,29.62,NW,305,2.0,9.0,50,0.00,,SKC,0.00,VWS V13.01,2013-05-05 19:33:00,
2013-05-05 12:34:00,69.1,49.2,29.62,WSW,243,5.0,12.0,49,0.00,,SKC,0.00,VWS V13.01,2013-05-05 19:34:00,
2013-05-05 12:35:00,69.2,49.2,29.62,West,261,7.0,12.0,49,0.00,,SKC,0.00,VWS V13.01,2013-05-05 19:35:00,
2013-05-05 12:36:00,69.3,48.8,29.62,West,260,1.0,9.0,48,0.00,,SKC,0.00,VWS V13.01,2013-05-05 19:36:00,
2013-05-05 12:37:00,69.2,48.7,29.62,WNW,291,3.0,10.0,48,0.00,,SKC,0.00,VWS V13.01,2013-05-05 19:37:00,
2013-05-05 12:38:00,69.2,48.1,29.62,NW,315,0.0,10.0,47,0.00,,SKC,0.00,VWS V13.01,2013-05-05 19:38:00,
2013-05-05 12:39:00,69.1,47.5,29.62,West,265,4.0,10.0,46,0.00,,SKC,0.00,VWS V13.01,2013-05-05 19:39:00,
2013-05-05 12:40:00,68.9,47.9,29.62,South,188,6.0,10.0,47,0.00,,SKC,0.00,VWS V13.01,2013-05-05 19:40:00,
2013-05-05 12:41:00,68.8,47.8,29.62,South,187,3.0,9.0,47,0.00,,SKC,0.00,VWS V13.01,2013-05-05 19:41:00,
2013-05-05 12:42:00,68.7,47.1,29.62,South,187,0.0,9.0,46,0.00,,SKC,0.00,VWS V13.01,2013-05-05 19:42:00,
2013-05-05 12:43:00,68.5,48.1,29.62,SW,236,3.0,9.0,48,0.00,,SKC,0.00,VWS V13.01,2013-05-05 19:43:00,
2013-05-05 12:44:00,68.4,47.4,29.62,NNW,331,4.0,9.0,47,0.00,,SKC,0.00,VWS V13.01,2013-05-05 19:44:00,
2013-05-05 12:45:00,68.2,47.8,29.62,West,268,6.0,9.0,48,0.00,,SKC,0.00,VWS V13.01,2013-05-05 19:45:00,
2013-05-05 12:46:00,68.1,47.7,29.62,West,273,5.0,7.0,48,0.00,,SKC,0.00,VWS V13.01,2013-05-05 19:46:00,
2013-05-05 12:47:00,68.0,47.6,29.62,WNW,287,7.0,11.0,48,0.00,,SKC,0.00,VWS V13.01,2013-05-05 19:47:00,
2013-05-05 12:48:00,67.9,48.1,29.62,WNW,301,3.0,11.0,49,0.00,,SKC,0.00,VWS V13.01,2013-05-05 19:48:00,
2013-05-05 12:49:00,67.9,48.6,29.62,WNW,300,2.0,11.0,50,0.00,,SKC,0.00,VWS V13.01,2013-05-05 19:49:00,
2013-05-05 12:50:00,67.9,48.6,29.62,WSW,238,1.0,11.0,50,0.00,,SKC,0.00,VWS V13.01,2013-05-05 19:50:00,
2013-05-05 12:51:00,68.2,48.9,29.62,WSW,245,5.0,7.0,50,0.00,,SKC,0.00,VWS V13.01,2013-05-05 19:51:00,
2013-05-05 12:52:00,68.5,48.1,29.62,SW,236,8.0,10.0,48,0.00,,SKC,0.00,VWS V13.01,2013-05-05 19:52:00,
2013-05-05 12:53:00,68.7,48.2,29.62,SW,220,0.0,10.0,48,0.00,,SKC,0.00,VWS V13.01,2013-05-05 19:53:00,
2013-05-05 12:54:00,68.8,48.3,29.62,SW,219,3.0,10.0,48,0.00,,SKC,0.00,VWS V13.01,2013-05-05 19:54:00,
2013-05-05 12:55:00,68.9,48.4,29.62,SSW,211,0.0,10.0,48,0.00,,SKC,0.00,VWS V13.01,2013-05-05 19:55:00,
2013-05-05 12:56:00,69.0,48.5,29.62,West,265,8.0,8.0,48,0.00,,SKC,0.00,VWS V13.01,2013-05-05 19:56:00,
2013-05-05 12:57:00,69.2,48.1,29.62,WNW,299,7.0,8.0,47,0.00,,SKC,0.00,VWS V13.01,2013-05-05 19:57:00,
2013-05-05 12:58:00,69.3,48.8,29.62,WNW,290,8.0,9.0,48,0.00,,SKC,0.00,VWS V13.01,2013-05-05 19:58:00,
2013-05-05 12:59:00,69.3,48.2,29.62,WSW,257,1.0,9.0,47,0.00,,SKC,0.00,VWS V13.01,2013-05-05 19:59:00,
2013-05-05 13:00:00,69.4,48.9,29.62,NW,309,0.0,9.0,48,0.00,,SKC,0.00,VWS V13.01,2013-05-05 20:00:00,
2013-05-05 13:01:00,69.5,49.0,29.62,West,281,5.0,6.0,48,0.00,,SKC,0.00,VWS V13.01,2013-05-05 20:01:00,
2013-05-05 13:02:00,69.5,48.4,29.62,West,281,0.0,6.0,47,0.00,,SKC,0.00,VWS V13.01,2013-05-05 20:02:00,
2013-05-05 13:03:00,69.5,48.4,29.62,West,281,2.0,6.0,47,0.00,,SKC,0.00,VWS V13.01,2013-05-05 20:03:00,
2013-05-05 13:04:00,69.6,48.5,29.62,West,281,0.0,6.0,47,0.00,,SKC,0.00,VWS V13.01,2013-05-05 20:04:00,
2013-05-05 13:05:00,69.7,49.2,29.62,North,360,5.0,10.0,48,0.00,,SKC,0.00,VWS V13.01,2013-05-05 20:05:00,
2013-05-05 13:06:00,69.8,48.7,29.62,NNE,18,6.0,10.0,47,0.00,,SKC,0.00,VWS V13.01,2013-05-05 20:06:00,
2013-05-05 13:07:00,69.8,48.7,29.62,NNE,24,5.0,10.0,47,0.00,,SKC,0.00,VWS V13.01,2013-05-05 20:07:00,
2013-05-05 13:08:00,69.9,49.3,29.62,NW,323,0.0,10.0,48,0.00,,SKC,0.00,VWS V13.01,2013-05-05 20:08:00,
2013-05-05 13:09:00,70.1,50.1,29.62,NW,319,0.0,10.0,49,0.00,,SKC,0.00,VWS V13.01,2013-05-05 20:09:00,
2013-05-05 13:10:00,70.3,50.3,29.62,NNW,333,6.0,10.0,49,0.00,,SKC,0.00,VWS V13.01,2013-05-05 20:10:00,
2013-05-05 13:11:00,70.3,49.7,29.62,NNW,331,3.0,6.0,48,0.00,,SKC,0.00,VWS V13.01,2013-05-05 20:11:00,
2013-05-05 13:12:00,70.3,49.1,29.62,NW,317,0.0,9.0,47,0.00,,SKC,0.00,VWS V13.01,2013-05-05 20:12:00,
2013-05-05 13:13:00,70.3,49.1,29.62,NW,318,2.0,9.0,47,0.00,,SKC,0.00,VWS V13.01,2013-05-05 20:13:00,
2013-05-05 13:14:00,70.3,49.1,29.62,NNW,329,5.0,9.0,47,0.00,,SKC,0.00,VWS V13.01,2013-05-05 20:14:00,
2013-05-05 13:15:00,70.3,49.1,29.62,NNW,340,4.0,9.0,47,0.00,,SKC,0.00,VWS V13.01,2013-05-05 20:15:00,
2013-05-05 13:16:00,70.3,49.1,29.62,NNW,344,0.0,5.0,47,0.00,,SKC,0.00,VWS V13.01,2013-05-05 20:16:00,
2013-05-05 13:17:00,70.2,49.0,29.62,NNW,340,3.0,5.0,47,0.00,,SKC,0.00,VWS V13.01,2013-05-05 20:17:00,
2013-05-05 13:18:00,70.2,49.0,29.62,SW,227,10.0,10.0,47,0.00,,SKC,0.00,VWS V13.01,2013-05-05 20:18:00,
2013-05-05 13:19:00,70.2,49.0,29.62,WNW,303,3.0,10.0,47,0.00,,SKC,0.00,VWS V13.01,2013-05-05 20:19:00,
2013-05-05 13:20:00,70.2,49.0,29.62,NNE,30,5.0,10.0,47,0.00,,SKC,0.00,VWS V13.01,2013-05-05 20:20:00,
2013-05-05 13:21:00,70.2,49.0,29.62,NNE,14,5.0,7.0,47,0.00,,SKC,0.00,VWS V13.01,2013-05-05 20:21:00,
2013-05-05 13:22:00,70.2,48.5,29.61,NNE,15,0.0,7.0,46,0.00,,SKC,0.00,VWS V13.01,2013-05-05 20:22:00,
2013-05-05 13:23:00,70.1,48.4,29.61,NNE,15,0.0,7.0,46,0.00,,SKC,0.00,VWS V13.01,2013-05-05 20:23:00,
2013-05-05 13:24:00,70.0,48.3,29.61,NNE,27,0.0,7.0,46,0.00,,SKC,0.00,VWS V13.01,2013-05-05 20:24:00,
2013-05-05 13:25:00,69.9,48.2,29.61,NNE,27,1.0,7.0,46,0.00,,SKC,0.00,VWS V13.01,2013-05-05 20:25:00,
2013-05-05 13:26:00,69.9,48.8,29.62,NNE,26,0.0,4.0,47,0.00,,SKC,0.00,VWS V13.01,2013-05-05 20:26:00,
2013-05-05 13:27:00,69.8,48.1,29.62,NNE,27,5.0,5.0,46,0.00,,SKC,0.00,VWS V13.01,2013-05-05 20:27:00,
2013-05-05 13:28:00,69.7,48.6,29.61,NNE,26,3.0,5.0,47,0.00,,SKC,0.00,VWS V13.01,2013-05-05 20:28:00,
2013-05-05 13:29:00,69.7,49.7,29.62,NNE,26,1.0,5.0,49,0.00,,SKC,0.00,VWS V13.01,2013-05-05 20:29:00,
2013-05-05 13:30:00,69.8,50.3,29.62,NNE,26,0.0,5.0,50,0.00,,SKC,0.00,VWS V13.01,2013-05-05 20:30:00,
2013-05-05 13:31:00,69.9,48.8,29.61,NNE,25,1.0,4.0,47,0.00,,SKC,0.00,VWS V13.01,2013-05-05 20:31:00,
2013-05-05 13:32:00,70.0,49.4,29.61,NNW,330,4.0,7.0,48,0.00,,SKC,0.00,VWS V13.01,2013-05-05 20:32:00,
2013-05-05 13:33:00,70.1,49.0,29.61,NW,312,1.0,7.0,47,0.00,,SKC,0.00,VWS V13.01,2013-05-05 20:33:00,
2013-05-05 13:34:00,70.2,49.6,29.61,NW,312,3.0,7.0,48,0.00,,SKC,0.00,VWS V13.01,2013-05-05 20:34:00,
2013-05-05 13:35:00,70.4,49.8,29.61,NNW,345,3.0,7.0,48,0.00,,SKC,0.00,VWS V13.01,2013-05-05 20:35:00,
2013-05-05 13:36:00,70.5,49.9,29.61,North,5,0.0,4.0,48,0.00,,SKC,0.00,VWS V13.01,2013-05-05 20:36:00,
2013-05-05 13:37:00,70.6,48.8,29.61,NNE,15,3.0,5.0,46,0.00,,SKC,0.00,VWS V13.01,2013-05-05 20:37:00,
2013-05-05 13:38:00,70.6,48.8,29.61,North,360,3.0,5.0,46,0.00,,SKC,0.00,VWS V13.01,2013-05-05 20:38:00,
2013-05-05 13:39:00,70.7,48.3,29.61,North,360,0.0,5.0,45,0.00,,SKC,0.00,VWS V13.01,2013-05-05 20:39:00,
2013-05-05 13:40:00,70.8,49.0,29.61,North,355,0.0,5.0,46,0.00,,SKC,0.00,VWS V13.01,2013-05-05 20:40:00,
2013-05-05 13:41:00,70.8,49.0,29.61,West,280,6.0,10.0,46,0.00,,SKC,0.00,VWS V13.01,2013-05-05 20:41:00,
2013-05-05 13:42:00,70.8,49.0,29.61,WNW,290,5.0,10.0,46,0.00,,SKC,0.00,VWS V13.01,2013-05-05 20:42:00,
2013-05-05 13:43:00,70.7,48.3,29.61,WNW,287,7.0,12.0,45,0.00,,SKC,0.00,VWS V13.01,2013-05-05 20:43:00,
2013-05-05 13:44:00,70.6,48.8,29.62,NW,314,4.0,12.0,46,0.00,,SKC,0.00,VWS V13.01,2013-05-05 20:44:00,
2013-05-05 13:45:00,70.6,48.8,29.62,NW,323,1.0,12.0,46,0.00,,SKC,0.00,VWS V13.01,2013-05-05 20:45:00,
2013-05-05 13:46:00,70.6,49.4,29.62,WNW,302,5.0,5.0,47,0.00,,SKC,0.00,VWS V13.01,2013-05-05 20:46:00,
2013-05-05 13:47:00,70.5,48.8,29.62,NW,318,4.0,5.0,46,0.00,,SKC,0.00,VWS V13.01,2013-05-05 20:47:00,
2013-05-05 13:48:00,70.5,48.8,29.61,WNW,295,3.0,7.0,46,0.00,,SKC,0.00,VWS V13.01,2013-05-05 20:48:00,
2013-05-05 13:49:00,70.5,48.2,29.61,WNW,295,3.0,7.0,45,0.00,,SKC,0.00,VWS V13.01,2013-05-05 20:49:00,
2013-05-05 13:50:00,70.4,48.1,29.61,NW,315,1.0,7.0,45,0.00,,SKC,0.00,VWS V13.01,2013-05-05 20:50:00,
2013-05-05 13:51:00,70.4,48.7,29.61,NW,315,0.0,2.0,46,0.00,,SKC,0.00,VWS V13.01,2013-05-05 20:51:00,
2013-05-05 13:52:00,70.4,48.1,29.61,NW,312,0.0,5.0,45,0.00,,SKC,0.00,VWS V13.01,2013-05-05 20:52:00,
2013-05-05 13:53:00,70.4,48.1,29.61,WNW,300,0.0,5.0,45,0.00,,SKC,0.00,VWS V13.01,2013-05-05 20:53:00,
2013-05-05 13:54:00,70.4,48.7,29.61,NW,309,3.0,5.0,46,0.00,,SKC,0.00,VWS V13.01,2013-05-05 20:54:00,
2013-05-05 13:55:00,70.4,48.7,29.61,WNW,303,7.0,8.0,46,0.00,,SKC,0.00,VWS V13.01,2013-05-05 20:55:00,
2013-05-05 13:56:00,70.3,49.1,29.62,WNW,301,3.0,10.0,47,0.00,,SKC,0.00,VWS V13.01,2013-05-05 20:56:00,
2013-05-05 13:57:00,70.4,49.2,29.61,NW,308,6.0,10.0,47,0.00,,SKC,0.00,VWS V13.01,2013-05-05 20:57:00,
2013-05-05 13:58:00,70.4,48.7,29.61,NNW,328,0.0,10.0,46,0.00,,SKC,0.00,VWS V13.01,2013-05-05 20:58:00,
2013-05-05 13:59:00,70.5,48.8,29.61,NNW,328,0.0,10.0,46,0.00,,SKC,0.00,VWS V13.01,2013-05-05 20:59:00,
2013-05-05 14:00:00,70.7,50.1,29.61,NNW,328,0.0,10.0,48,0.00,,SKC,0.00,VWS V13.01,2013-05-05 21:00:00,
2013-05-05 14:01:00,71.0,51.5,29.62,NNE,32,4.0,5.0,50,0.00,,SKC,0.00,VWS V13.01,2013-05-05 21:01:00,
2013-05-05 14:02:00,71.3,51.2,29.62,North,360,5.0,6.0,49,0.00,,SKC,0.00,VWS V13.01,2013-05-05 21:02:00,
2013-05-05 14:03:00,71.6,49.8,29.62,NNE,23,0.0,6.0,46,0.00,,SKC,0.00,VWS V13.01,2013-05-05 21:03:00,
2013-05-05 14:04:00,71.7,48.7,29.61,ENE,75,4.0,6.0,44,0.00,,SKC,0.00,VWS V13.01,2013-05-05 21:04:00,
2013-05-05 14:05:00,71.7,48.7,29.61,ESE,117,3.0,6.0,44,0.00,,SKC,0.00,VWS V13.01,2013-05-05 21:05:00,
2013-05-05 14:06:00,71.4,47.8,29.61,SSE,161,5.0,6.0,43,0.00,,SKC,0.00,VWS V13.01,2013-05-05 21:06:00,
2013-05-05 14:07:00,71.1,48.1,29.62,South,170,4.0,7.0,44,0.00,,SKC,0.00,VWS V13.01,2013-05-05 21:07:00,
2013-05-05 14:08:00,70.7,47.7,29.62,South,169,0.0,7.0,44,0.00,,SKC,0.00,VWS V13.01,2013-05-05 21:08:00,
2013-05-05 14:09:00,70.6,48.2,29.62,SSE,168,0.0,7.0,45,0.00,,SKC,0.00,VWS V13.01,2013-05-05 21:09:00,
2013-05-05 14:10:00,70.6,48.8,29.62,SE,145,0.0,7.0,46,0.00,,SKC,0.00,VWS V13.01,2013-05-05 21:10:00,
2013-05-05 14:11:00,70.6,48.8,29.62,WNW,286,0.0,5.0,46,0.00,,SKC,0.00,VWS V13.01,2013-05-05 21:11:00,
2013-05-05 14:12:00,70.6,48.8,29.62,WNW,286,8.0,8.0,46,0.00,,SKC,0.00,VWS V13.01,2013-05-05 21:12:00,
2013-05-05 14:13:00,70.6,47.7,29.62,WNW,286,1.0,8.0,44,0.00,,SKC,0.00,VWS V13.01,2013-05-05 21:13:00,
2013-05-05 14:14:00,70.7,48.9,29.62,WNW,286,0.0,8.0,46,0.00,,SKC,0.00,VWS V13.01,2013-05-05 21:14:00,
2013-05-05 14:15:00,70.8,49.6,29.62,WNW,294,5.0,8.0,47,0.00,,SKC,0.00,VWS V13.01,2013-05-05 21:15:00,
2013-05-05 14:16:00,70.9,48.5,29.62,NW,311,4.0,6.0,45,0.00,,SKC,0.00,VWS V13.01,2013-05-05 21:16:00,
2013-05-05 14:17:00,71.0,48.6,29.62,NW,311,1.0,6.0,45,0.00,,SKC,0.00,VWS V13.01,2013-05-05 21:17:00,
2013-05-05 14:18:00,71.1,48.7,29.62,NW,312,4.0,6.0,45,0.00,,SKC,0.00,VWS V13.01,2013-05-05 21:18:00,
2013-05-05 14:19:00,71.2,48.8,29.62,NW,315,5.0,6.0,45,0.00,,SKC,0.00,VWS V13.01,2013-05-05 21:19:00,
2013-05-05 14:20:00,71.3,48.9,29.62,West,281,3.0,7.0,45,0.00,,SKC,0.00,VWS V13.01,2013-05-05 21:20:00,
2013-05-05 14:21:00,71.3,48.9,29.62,NW,318,6.0,7.0,45,0.00,,SKC,0.00,VWS V13.01,2013-05-05 21:21:00,
2013-05-05 14:22:00,71.3,48.3,29.62,NW,317,3.0,7.0,44,0.00,,SKC,0.00,VWS V13.01,2013-05-05 21:22:00,
2013-05-05 14:23:00,71.3,48.9,29.62,NW,311,6.0,7.0,45,0.00,,SKC,0.00,VWS V13.01,2013-05-05 21:23:00,
2013-05-05 14:24:00,71.3,48.3,29.62,WNW,300,3.0,7.0,44,0.00,,SKC,0.00,VWS V13.01,2013-05-05 21:24:00,
2013-05-05 14:25:00,71.2,48.2,29.62,WNW,300,0.0,7.0,44,0.00,,SKC,0.00,VWS V13.01,2013-05-05 21:25:00,
2013-05-05 14:26:00,71.2,48.2,29.62,WNW,300,0.0,1.0,44,0.00,,SKC,0.00,VWS V13.01,2013-05-05 21:26:00,
2013-05-05 14:27:00,71.2,49.4,29.62,WNW,300,2.0,3.0,46,0.00,,SKC,0.00,VWS V13.01,2013-05-05 21:27:00,
2013-05-05 14:28:00,71.2,48.8,29.62,WNW,300,5.0,6.0,45,0.00,,SKC,0.00,VWS V13.01,2013-05-05 21:28:00,
2013-05-05 14:29:00,71.2,48.2,29.61,WNW,300,1.0,6.0,44,0.00,,SKC,0.00,VWS V13.01,2013-05-05 21:29:00,
2013-05-05 14:30:00,71.1,48.1,29.62,WNW,298,4.0,6.0,44,0.00,,SKC,0.00,VWS V13.01,2013-05-05 21:30:00,
2013-05-05 14:31:00,71.1,48.1,29.62,WNW,298,0.0,4.0,44,0.00,,SKC,0.00,VWS V13.01,2013-05-05 21:31:00,
2013-05-05 14:32:00,71.2,48.8,29.61,NNW,338,5.0,5.0,45,0.00,,SKC,0.00,VWS V13.01,2013-05-05 21:32:00,
2013-05-05 14:33:00,71.3,49.5,29.61,NNW,333,2.0,6.0,46,0.00,,SKC,0.00,VWS V13.01,2013-05-05 21:33:00,
2013-05-05 14:34:00,71.3,48.3,29.62,NNW,329,6.0,6.0,44,0.00,,SKC,0.00,VWS V13.01,2013-05-05 21:34:00,
2013-05-05 14:35:00,71.3,48.3,29.62,NNW,348,9.0,9.0,44,0.00,,SKC,0.00,VWS V13.01,2013-05-05 21:35:00,
2013-05-05 14:36:00,71.4,49.6,29.62,North,5,3.0,9.0,46,0.00,,SKC,0.00,VWS V13.01,2013-05-05 21:36:00,
2013-05-05 14:37:00,71.5,49.1,29.62,NNE,22,3.0,9.0,45,0.00,,SKC,0.00,VWS V13.01,2013-05-05 21:37:00,
2013-05-05 14:38:00,71.6,49.8,29.61,NNE,19,0.0,9.0,46,0.00,,SKC,0.00,VWS V13.01,2013-05-05 21:38:00,
2013-05-05 14:39:00,71.8,48.7,29.61,NNE,32,3.0,9.0,44,0.00,,SKC,0.00,VWS V13.01,2013-05-05 21:39:00,
2013-05-05 14:40:00,72.0,50.1,29.61,NW,314,3.0,9.0,46,0.00,,SKC,0.00,VWS V13.01,2013-05-05 21:40:00,
2013-05-05 14:41:00,72.1,48.4,29.61,NW,314,0.0,3.0,43,0.00,,SKC,0.00,VWS V13.01,2013-05-05 21:41:00,
2013-05-05 14:42:00,72.0,48.3,29.61,NW,314,0.0,3.0,43,0.00,,SKC,0.00,VWS V13.01,2013-05-05 21:42:00,
2013-05-05 14:43:00,72.0,47.7,29.61,NW,314,0.0,3.0,42,0.00,,SKC,0.00,VWS V13.01,2013-05-05 21:43:00,
2013-05-05 14:44:00,72.1,48.4,29.61,East,88,0.0,4.0,43,0.00,,SKC,0.00,VWS V13.01,2013-05-05 21:44:00,
2013-05-05 14:45:00,72.2,49.7,29.61,East,88,3.0,4.0,45,0.00,,SKC,0.00,VWS V13.01,2013-05-05 21:45:00,
2013-05-05 14:46:00,72.3,49.8,29.61,NW,317,2.0,5.0,45,0.00,,SKC,0.00,VWS V13.01,2013-05-05 21:46:00,
2013-05-05 14:47:00,72.4,50.5,29.61,NW,317,3.0,5.0,46,0.00,,SKC,0.00,VWS V13.01,2013-05-05 21:47:00,
2013-05-05 14:48:00,72.5,49.4,29.61,WNW,301,9.0,9.0,44,0.00,,SKC,0.00,VWS V13.01,2013-05-05 21:48:00,
2013-05-05 14:49:00,72.5,49.4,29.61,NW,310,6.0,9.0,44,0.00,,SKC,0.00,VWS V13.01,2013-05-05 21:49:00,
2013-05-05 14:50:00,72.5,49.4,29.61,NW,310,3.0,9.0,44,0.00,,SKC,0.00,VWS V13.01,2013-05-05 21:50:00,
2013-05-05 14:51:00,72.4,49.9,29.61,NW,307,4.0,5.0,45,0.00,,SKC,0.00,VWS V13.01,2013-05-05 21:51:00,
2013-05-05 14:52:00,72.3,48.6,29.61,NW,304,3.0,5.0,43,0.00,,SKC,0.00,VWS V13.01,2013-05-05 21:52:00,
2013-05-05 14:53:00,72.1,49.0,29.61,NW,304,1.0,5.0,44,0.00,,SKC,0.00,VWS V13.01,2013-05-05 21:53:00,
2013-05-05 14:54:00,72.1,49.6,29.61,WNW,296,6.0,7.0,45,0.00,,SKC,0.00,VWS V13.01,2013-05-05 21:54:00,
2013-05-05 14:55:00,72.0,49.5,29.61,WNW,294,7.0,7.0,45,0.00,,SKC,0.00,VWS V13.01,2013-05-05 21:55:00,
2013-05-05 14:56:00,72.0,48.9,29.61,WNW,294,4.0,7.0,44,0.00,,SKC,0.00,VWS V13.01,2013-05-05 21:56:00,
2013-05-05 14:57:00,72.0,50.1,29.61,WNW,294,0.0,7.0,46,0.00,,SKC,0.00,VWS V13.01,2013-05-05 21:57:00,
2013-05-05 14:58:00,72.1,49.0,29.61,WNW,294,0.0,7.0,44,0.00,,SKC,0.00,VWS V13.01,2013-05-05 21:58:00,
2013-05-05 14:59:00,72.1,49.0,29.61,NNW,328,3.0,7.0,44,0.00,,SKC,0.00,VWS V13.01,2013-05-05 21:59:00,
2013-05-05 15:00:00,72.0,48.9,29.61,NNW,328,2.0,7.0,44,0.00,,SKC,0.00,VWS V13.01,2013-05-05 22:00:00,
2013-05-05 15:01:00,72.0,48.9,29.62,NNW,328,0.0,3.0,44,0.00,,SKC,0.00,VWS V13.01,2013-05-05 22:01:00,
2013-05-05 15:02:00,72.0,48.3,29.61,NNW,328,0.0,3.0,43,0.00,,SKC,0.00,VWS V13.01,2013-05-05 22:02:00,
2013-05-05 15:03:00,71.9,48.2,29.62,NNW,328,0.0,3.0,43,0.00,,SKC,0.00,VWS V13.01,2013-05-05 22:03:00,
2013-05-05 15:04:00,71.9,48.8,29.61,NNW,328,0.0,3.0,44,0.00,,SKC,0.00,VWS V13.01,2013-05-05 22:04:00,
2013-05-05 15:05:00,72.0,49.5,29.61,NNW,343,3.0,4.0,45,0.00,,SKC,0.00,VWS V13.01,2013-05-05 22:05:00,
2013-05-05 15:06:00,72.0,48.3,29.62,NNW,343,4.0,4.0,43,0.00,,SKC,0.00,VWS V13.01,2013-05-05 22:06:00,
2013-05-05 15:07:00,72.1,49.6,29.61,NE,34,2.0,5.0,45,0.00,,SKC,0.00,VWS V13.01,2013-05-05 22:07:00,
2013-05-05 15:08:00,72.0,48.9,29.62,NNW,333,3.0,6.0,44,0.00,,SKC,0.00,VWS V13.01,2013-05-05 22:08:00,
2013-05-05 15:09:00,72.0,49.5,29.61,NNW,336,3.0,6.0,45,0.00,,SKC,0.00,VWS V13.01,2013-05-05 22:09:00,
2013-05-05 15:10:00,72.0,49.5,29.61,NNW,336,2.0,6.0,45,0.00,,SKC,0.00,VWS V13.01,2013-05-05 22:10:00,
2013-05-05 15:11:00,72.0,48.9,29.61,NW,309,8.0,8.0,44,0.00,,SKC,0.00,VWS V13.01,2013-05-05 22:11:00,
2013-05-05 15:12:00,71.9,48.8,29.61,WNW,296,5.0,9.0,44,0.00,,SKC,0.00,VWS V13.01,2013-05-05 22:12:00,
2013-05-05 15:13:00,71.7,49.2,29.61,WNW,298,3.0,9.0,45,0.00,,SKC,0.00,VWS V13.01,2013-05-05 22:13:00,
2013-05-05 15:14:00,71.6,49.2,29.61,WNW,298,0.0,9.0,45,0.00,,SKC,0.00,VWS V13.01,2013-05-05 22:14:00,
2013-05-05 15:15:00,71.7,49.8,29.61,NW,315,3.0,9.0,46,0.00,,SKC,0.00,VWS V13.01,2013-05-05 22:15:00,
2013-05-05 15:16:00,71.7,48.7,29.61,NW,315,3.0,6.0,44,0.00,,SKC,0.00,VWS V13.01,2013-05-05 22:16:00,
2013-05-05 15:17:00,71.6,48.6,29.61,NW,315,2.0,6.0,44,0.00,,SKC,0.00,VWS V13.01,2013-05-05 22:17:00,
2013-05-05 15:18:00,71.6,48.6,29.61,NW,315,0.0,6.0,44,0.00,,SKC,0.00,VWS V13.01,2013-05-05 22:18:00,
2013-05-05 15:19:00,71.6,48.6,29.61,NW,315,0.0,6.0,44,0.00,,SKC,0.00,VWS V13.01,2013-05-05 22:19:00,
2013-05-05 15:20:00,71.6,48.6,29.61,NW,315,0.0,6.0,44,0.00,,SKC,0.00,VWS V13.01,2013-05-05 22:20:00,
2013-05-05 15:21:00,71.6,48.6,29.61,NW,315,4.0,4.0,44,0.00,,SKC,0.00,VWS V13.01,2013-05-05 22:21:00,
2013-05-05 15:22:00,71.7,49.2,29.61,NW,315,0.0,4.0,45,0.00,,SKC,0.00,VWS V13.01,2013-05-05 22:22:00,
2013-05-05 15:23:00,71.7,48.7,29.61,NW,315,3.0,4.0,44,0.00,,SKC,0.00,VWS V13.01,2013-05-05 22:23:00,
2013-05-05 15:24:00,71.7,48.7,29.61,NW,315,0.0,4.0,44,0.00,,SKC,0.00,VWS V13.01,2013-05-05 22:24:00,
2013-05-05 15:25:00,71.7,49.2,29.61,NW,315,0.0,4.0,45,0.00,,SKC,0.00,VWS V13.01,2013-05-05 22:25:00,
2013-05-05 15:26:00,71.7,48.7,29.61,NW,315,0.0,0.0,44,0.00,,SKC,0.00,VWS V13.01,2013-05-05 22:26:00,
2013-05-05 15:27:00,71.8,48.7,29.61,NW,315,0.0,0.0,44,0.00,,SKC,0.00,VWS V13.01,2013-05-05 22:27:00,
2013-05-05 15:28:00,71.8,48.1,29.61,NW,315,0.0,0.0,43,0.00,,SKC,0.00,VWS V13.01,2013-05-05 22:28:00,
2013-05-05 15:29:00,71.9,48.8,29.61,NW,311,4.0,5.0,44,0.00,,SKC,0.00,VWS V13.01,2013-05-05 22:29:00,
2013-05-05 15:30:00,71.9,48.2,29.61,WNW,284,1.0,9.0,43,0.00,,SKC,0.00,VWS V13.01,2013-05-05 22:30:00,
2013-05-05 15:31:00,71.9,49.4,29.61,NW,309,3.0,6.0,45,0.00,,SKC,0.00,VWS V13.01,2013-05-05 22:31:00,
2013-05-05 15:32:00,72.0,50.1,29.61,WNW,298,3.0,7.0,46,0.00,,SKC,0.00,VWS V13.01,2013-05-05 22:32:00,
2013-05-05 15:33:00,72.0,48.9,29.61,WNW,282,5.0,12.0,44,0.00,,SKC,0.00,VWS V13.01,2013-05-05 22:33:00,
2013-05-05 15:34:00,71.9,49.4,29.61,West,273,6.0,12.0,45,0.00,,SKC,0.00,VWS V13.01,2013-05-05 22:34:00,
2013-05-05 15:35:00,71.9,48.2,29.61,West,261,4.0,12.0,43,0.00,,SKC,0.00,VWS V13.01,2013-05-05 22:35:00,
2013-05-05 15:36:00,71.8,48.1,29.61,WSW,244,5.0,7.0,43,0.00,,SKC,0.00,VWS V13.01,2013-05-05 22:36:00,
2013-05-05 15:37:00,71.6,47.9,29.61,WSW,241,4.0,7.0,43,0.00,,SKC,0.00,VWS V13.01,2013-05-05 22:37:00,
2013-05-05 15:38:00,71.5,47.8,29.61,WSW,241,3.0,7.0,43,0.00,,SKC,0.00,VWS V13.01,2013-05-05 22:38:00,
2013-05-05 15:39:00,71.4,47.8,29.61,WSW,241,2.0,7.0,43,0.00,,SKC,0.00,VWS V13.01,2013-05-05 22:39:00,
2013-05-05 15:40:00,71.3,48.3,29.61,WSW,241,0.0,7.0,44,0.00,,SKC,0.00,VWS V13.01,2013-05-05 22:40:00,
2013-05-05 15:41:00,71.3,48.3,29.61,WSW,241,0.0,0.0,44,0.00,,SKC,0.00,VWS V13.01,2013-05-05 22:41:00,
2013-05-05 15:42:00,71.3,48.3,29.61,WSW,241,0.0,3.0,44,0.00,,SKC,0.00,VWS V13.01,2013-05-05 22:42:00,
2013-05-05 15:43:00,71.4,48.4,29.61,WSW,241,0.0,3.0,44,0.00,,SKC,0.00,VWS V13.01,2013-05-05 22:43:00,
2013-05-05 15:44:00,71.4,48.4,29.62,WSW,241,0.0,3.0,44,0.00,,SKC,0.00,VWS V13.01,2013-05-05 22:44:00,
2013-05-05 15:45:00,71.5,49.1,29.62,WSW,241,0.0,3.0,45,0.00,,SKC,0.00,VWS V13.01,2013-05-05 22:45:00,
2013-05-05 15:46:00,71.6,48.6,29.61,WSW,241,0.0,0.0,44,0.00,,SKC,0.00,VWS V13.01,2013-05-05 22:46:00,
2013-05-05 15:47:00,71.7,48.7,29.61,WSW,241,0.0,0.0,44,0.00,,SKC,0.00,VWS V13.01,2013-05-05 22:47:00,
2013-05-05 15:48:00,71.8,48.7,29.61,WSW,248,3.0,3.0,44,0.00,,SKC,0.00,VWS V13.01,2013-05-05 22:48:00,
2013-05-05 15:49:00,71.9,48.8,29.61,West,276,1.0,5.0,44,0.00,,SKC,0.00,VWS V13.01,2013-05-05 22:49:00,
2013-05-05 15:50:00,71.9,49.4,29.61,West,276,0.0,5.0,45,0.00,,SKC,0.00,VWS V13.01,2013-05-05 22:50:00,
2013-05-05 15:51:00,72.0,48.9,29.61,West,276,0.0,0.0,44,0.00,,SKC,0.00,VWS V13.01,2013-05-05 22:51:00,
2013-05-05 15:52:00,72.0,48.3,29.62,West,276,0.0,0.0,43,0.00,,SKC,0.00,VWS V13.01,2013-05-05 22:52:00,
2013-05-05 15:53:00,72.1,48.4,29.62,West,276,0.0,0.0,43,0.00,,SKC,0.00,VWS V13.01,2013-05-05 22:53:00,
2013-05-05 15:54:00,72.1,47.8,29.62,West,276,0.0,0.0,42,0.00,,SKC,0.00,VWS V13.01,2013-05-05 22:54:00,
2013-05-05 15:55:00,72.1,48.4,29.62,West,276,0.0,0.0,43,0.00,,SKC,0.00,VWS V13.01,2013-05-05 22:55:00,
2013-05-05 15:56:00,72.1,48.4,29.62,West,276,0.0,0.0,43,0.00,,SKC,0.00,VWS V13.01,2013-05-05 22:56:00,
2013-05-05 15:57:00,72.1,48.4,29.62,West,276,0.0,0.0,43,0.00,,SKC,0.00,VWS V13.01,2013-05-05 22:57:00,
2013-05-05 15:58:00,72.1,48.4,29.62,West,276,0.0,0.0,43,0.00,,SKC,0.00,VWS V13.01,2013-05-05 22:58:00,
2013-05-05 15:59:00,72.2,48.5,29.62,West,276,0.0,0.0,43,0.00,,SKC,0.00,VWS V13.01,2013-05-05 22:59:00,
2013-05-05 16:00:00,72.2,48.5,29.62,West,276,0.0,2.0,43,0.00,,SKC,0.00,VWS V13.01,2013-05-05 23:00:00,
2013-05-05 16:01:00,72.3,48.6,29.62,West,276,2.0,4.0,43,0.00,,SKC,0.00,VWS V13.01,2013-05-05 23:01:00,
2013-05-05 16:02:00,72.3,49.2,29.62,West,276,3.0,4.0,44,0.00,,SKC,0.00,VWS V13.01,2013-05-05 23:02:00,
2013-05-05 16:03:00,72.3,49.2,29.61,West,278,0.0,5.0,44,0.00,,SKC,0.00,VWS V13.01,2013-05-05 23:03:00,
2013-05-05 16:04:00,72.3,49.2,29.61,West,278,4.0,5.0,44,0.00,,SKC,0.00,VWS V13.01,2013-05-05 23:04:00,
2013-05-05 16:05:00,72.3,49.2,29.61,West,278,0.0,5.0,44,0.00,,SKC,0.00,VWS V13.01,2013-05-05 23:05:00,
2013-05-05 16:06:00,72.3,49.2,29.61,NNW,329,3.0,4.0,44,0.00,,SKC,0.00,VWS V13.01,2013-05-05 23:06:00,
2013-05-05 16:07:00,72.2,48.5,29.61,NNW,338,0.0,5.0,43,0.00,,SKC,0.00,VWS V13.01,2013-05-05 23:07:00,
2013-05-05 16:08:00,72.2,48.5,29.61,NNW,338,0.0,5.0,43,0.00,,SKC,0.00,VWS V13.01,2013-05-05 23:08:00,
2013-05-05 16:09:00,72.2,48.5,29.61,NNW,338,0.0,5.0,43,0.00,,SKC,0.00,VWS V13.01,2013-05-05 23:09:00,
2013-05-05 16:10:00,72.2,49.1,29.61,NNW,338,3.0,5.0,44,0.00,,SKC,0.00,VWS V13.01,2013-05-05 23:10:00,
2013-05-05 16:11:00,72.2,49.7,29.61,NNW,338,0.0,3.0,45,0.00,,SKC,0.00,VWS V13.01,2013-05-05 23:11:00,
2013-05-05 16:12:00,72.2,49.1,29.61,NNW,338,0.0,3.0,44,0.00,,SKC,0.00,VWS V13.01,2013-05-05 23:12:00,
2013-05-05 16:13:00,72.2,49.1,29.61,NNW,338,1.0,5.0,44,0.00,,SKC,0.00,VWS V13.01,2013-05-05 23:13:00,
2013-05-05 16:14:00,72.2,49.1,29.61,NNW,338,0.0,5.0,44,0.00,,SKC,0.00,VWS V13.01,2013-05-05 23:14:00,
2013-05-05 16:15:00,72.1,48.4,29.61,NNW,338,0.0,5.0,43,0.00,,SKC,0.00,VWS V13.01,2013-05-05 23:15:00,
2013-05-05 16:16:00,72.1,48.4,29.61,NNW,338,0.0,0.0,43,0.00,,SKC,0.00,VWS V13.01,2013-05-05 23:16:00,
2013-05-05 16:17:00,72.2,49.1,29.61,NNW,338,0.0,0.0,44,0.00,,SKC,0.00,VWS V13.01,2013-05-05 23:17:00,
2013-05-05 16:18:00,72.2,49.1,29.61,NNW,338,3.0,5.0,44,0.00,,SKC,0.00,VWS V13.01,2013-05-05 23:18:00,
2013-05-05 16:19:00,72.3,49.2,29.61,NNW,338,3.0,5.0,44,0.00,,SKC,0.00,VWS V13.01,2013-05-05 23:19:00,
2013-05-05 16:20:00,72.3,48.6,29.61,NNW,338,0.0,5.0,43,0.00,,SKC,0.00,VWS V13.01,2013-05-05 23:20:00,
2013-05-05 16:21:00,72.3,48.6,29.61,NNW,338,0.0,0.0,43,0.00,,SKC,0.00,VWS V13.01,2013-05-05 23:21:00,
2013-05-05 16:22:00,72.3,49.2,29.61,NNW,338,5.0,5.0,44,0.00,,SKC,0.00,VWS V13.01,2013-05-05 23:22:00,
2013-05-05 16:23:00,72.4,48.7,29.61,WNW,302,5.0,6.0,43,0.00,,SKC,0.00,VWS V13.01,2013-05-05 23:23:00,
2013-05-05 16:24:00,72.4,49.3,29.61,WNW,302,3.0,6.0,44,0.00,,SKC,0.00,VWS V13.01,2013-05-05 23:24:00,
2013-05-05 16:25:00,72.4,49.3,29.61,WNW,302,4.0,6.0,44,0.00,,SKC,0.00,VWS V13.01,2013-05-05 23:25:00,
2013-05-05 16:26:00,72.4,49.3,29.62,WNW,302,5.0,5.0,44,0.00,,SKC,0.00,VWS V13.01,2013-05-05 23:26:00,
2013-05-05 16:27:00,72.4,48.7,29.61,WNW,302,3.0,5.0,43,0.00,,SKC,0.00,VWS V13.01,2013-05-05 23:27:00,
2013-05-05 16:28:00,72.4,48.7,29.61,WNW,302,1.0,5.0,43,0.00,,SKC,0.00,VWS V13.01,2013-05-05 23:28:00,
2013-05-05 16:29:00,72.3,48.6,29.61,WNW,302,0.0,5.0,43,0.00,,SKC,0.00,VWS V13.01,2013-05-05 23:29:00,
2013-05-05 16:30:00,72.3,48.6,29.61,WNW,302,0.0,5.0,43,0.00,,SKC,0.00,VWS V13.01,2013-05-05 23:30:00,
2013-05-05 16:31:00,72.4,49.3,29.61,WNW,302,3.0,3.0,44,0.00,,SKC,0.00,VWS V13.01,2013-05-05 23:31:00,
2013-05-05 16:32:00,72.4,49.9,29.61,WNW,302,1.0,3.0,45,0.00,,SKC,0.00,VWS V13.01,2013-05-05 23:32:00,
2013-05-05 16:33:00,72.6,48.8,29.61,WNW,302,0.0,3.0,43,0.00,,SKC,0.00,VWS V13.01,2013-05-05 23:33:00,
2013-05-05 16:34:00,72.6,48.8,29.61,WNW,302,0.0,3.0,43,0.00,,SKC,0.00,VWS V13.01,2013-05-05 23:34:00,
2013-05-05 16:35:00,72.6,48.8,29.61,WNW,302,0.0,3.0,43,0.00,,SKC,0.00,VWS V13.01,2013-05-05 23:35:00,
2013-05-05 16:36:00,72.7,48.9,29.61,WNW,302,0.0,0.0,43,0.00,,SKC,0.00,VWS V13.01,2013-05-05 23:36:00,
2013-05-05 16:37:00,72.8,49.6,29.61,WNW,302,3.0,3.0,44,0.00,,SKC,0.00,VWS V13.01,2013-05-05 23:37:00,
2013-05-05 16:38:00,72.8,49.6,29.61,West,279,5.0,6.0,44,0.00,,SKC,0.00,VWS V13.01,2013-05-05 23:38:00,
2013-05-05 16:39:00,72.8,48.4,29.61,West,279,1.0,6.0,42,0.00,,SKC,0.00,VWS V13.01,2013-05-05 23:39:00,
2013-05-05 16:40:00,72.8,49.0,29.61,West,279,3.0,6.0,43,0.00,,SKC,0.00,VWS V13.01,2013-05-05 23:40:00,
2013-05-05 16:41:00,72.8,48.4,29.61,West,279,3.0,3.0,42,0.00,,SKC,0.00,VWS V13.01,2013-05-05 23:41:00,
2013-05-05 16:42:00,72.8,48.4,29.61,West,279,0.0,3.0,42,0.00,,SKC,0.00,VWS V13.01,2013-05-05 23:42:00,
2013-05-05 16:43:00,72.8,48.4,29.61,West,279,0.0,3.0,42,0.00,,SKC,0.00,VWS V13.01,2013-05-05 23:43:00,
2013-05-05 16:44:00,72.8,49.0,29.61,West,279,0.0,3.0,43,0.00,,SKC,0.00,VWS V13.01,2013-05-05 23:44:00,
2013-05-05 16:45:00,72.9,49.1,29.61,West,279,3.0,4.0,43,0.00,,SKC,0.00,VWS V13.01,2013-05-05 23:45:00,
2013-05-05 16:46:00,72.9,48.5,29.61,West,279,0.0,3.0,42,0.00,,SKC,0.00,VWS V13.01,2013-05-05 23:46:00,
2013-05-05 16:47:00,72.9,48.5,29.61,West,279,0.0,3.0,42,0.00,,SKC,0.00,VWS V13.01,2013-05-05 23:47:00,
2013-05-05 16:48:00,73.0,49.2,29.61,West,279,2.0,3.0,43,0.00,,SKC,0.00,VWS V13.01,2013-05-05 23:48:00,
2013-05-05 16:49:00,73.0,48.6,29.61,West,279,0.0,3.0,42,0.00,,SKC,0.00,VWS V13.01,2013-05-05 23:49:00,
2013-05-05 16:50:00,73.1,49.3,29.61,West,279,0.0,3.0,43,0.00,,SKC,0.00,VWS V13.01,2013-05-05 23:50:00,
2013-05-05 16:51:00,73.2,49.4,29.61,West,279,0.0,0.0,43,0.00,,SKC,0.00,VWS V13.01,2013-05-05 23:51:00,
2013-05-05 16:52:00,73.3,48.8,29.61,West,279,2.0,4.0,42,0.00,,SKC,0.00,VWS V13.01,2013-05-05 23:52:00,
2013-05-05 16:53:00,73.3,48.8,29.61,West,279,0.0,4.0,42,0.00,,SKC,0.00,VWS V13.01,2013-05-05 23:53:00,
2013-05-05 16:54:00,73.3,48.8,29.61,West,277,4.0,5.0,42,0.00,,SKC,0.00,VWS V13.01,2013-05-05 23:54:00,
2013-05-05 16:55:00,73.2,48.1,29.61,West,277,2.0,5.0,41,0.00,,SKC,0.00,VWS V13.01,2013-05-05 23:55:00,
2013-05-05 16:56:00,73.2,48.8,29.62,WSW,257,5.0,6.0,42,0.00,,SKC,0.00,VWS V13.01,2013-05-05 23:56:00,
2013-05-05 16:57:00,73.1,48.0,29.61,SSW,211,0.0,6.0,41,0.00,,SKC,0.00,VWS V13.01,2013-05-05 23:57:00,
2013-05-05 16:58:00,72.9,47.8,29.61,SSW,211,0.0,6.0,41,0.00,,SKC,0.00,VWS V13.01,2013-05-05 23:58:00,
2013-05-05 16:59:00,72.8,48.4,29.62,SSW,211,0.0,6.0,42,0.00,,SKC,0.00,VWS V13.01,2013-05-05 23:59:00,
2013-05-05 17:00:00,72.8,48.4,29.62,SSW,211,0.0,6.0,42,0.00,,SKC,0.00,VWS V13.01,2013-05-06 00:00:00,
2013-05-05 17:01:00,72.8,48.4,29.62,SSW,211,0.0,2.0,42,0.00,,SKC,0.00,VWS V13.01,2013-05-06 00:01:00,
2013-05-05 17:02:00,72.8,49.0,29.61,SSW,211,1.0,3.0,43,0.00,,SKC,0.00,VWS V13.01,2013-05-06 00:02:00,
2013-05-05 17:03:00,72.8,48.4,29.62,SSW,211,0.0,3.0,42,0.00,,SKC,0.00,VWS V13.01,2013-05-06 00:03:00,
2013-05-05 17:04:00,72.7,48.3,29.62,SSW,211,3.0,3.0,42,0.00,,SKC,0.00,VWS V13.01,2013-05-06 00:04:00,
2013-05-05 17:05:00,72.6,48.2,29.62,SSW,211,0.0,3.0,42,0.00,,SKC,0.00,VWS V13.01,2013-05-06 00:05:00,
2013-05-05 17:06:00,72.6,48.8,29.62,SSW,211,0.0,0.0,43,0.00,,SKC,0.00,VWS V13.01,2013-05-06 00:06:00,
2013-05-05 17:07:00,72.5,48.8,29.62,South,190,0.0,3.0,43,0.00,,SKC,0.00,VWS V13.01,2013-05-06 00:07:00,
2013-05-05 17:08:00,72.4,48.7,29.62,South,190,0.0,3.0,43,0.00,,SKC,0.00,VWS V13.01,2013-05-06 00:08:00,
2013-05-05 17:09:00,72.4,48.7,29.62,South,190,0.0,3.0,43,0.00,,SKC,0.00,VWS V13.01,2013-05-06 00:09:00,
2013-05-05 17:10:00,72.3,48.6,29.62,South,190,0.0,3.0,43,0.00,,SKC,0.00,VWS V13.01,2013-05-06 00:10:00,
2013-05-05 17:11:00,72.3,48.6,29.62,South,190,0.0,0.0,43,0.00,,SKC,0.00,VWS V13.01,2013-05-06 00:11:00,
2013-05-05 17:12:00,72.3,48.6,29.62,South,190,4.0,5.0,43,0.00,,SKC,0.00,VWS V13.01,2013-05-06 00:12:00,
2013-05-05 17:13:00,72.2,48.5,29.62,SSW,192,2.0,9.0,43,0.00,,SKC,0.00,VWS V13.01,2013-05-06 00:13:00,
2013-05-05 17:14:00,72.2,48.5,29.62,SSW,193,3.0,9.0,43,0.00,,SKC,0.00,VWS V13.01,2013-05-06 00:14:00,
2013-05-05 17:15:00,72.1,47.8,29.62,South,185,4.0,9.0,42,0.00,,SKC,0.00,VWS V13.01,2013-05-06 00:15:00,
2013-05-05 17:16:00,72.1,47.8,29.62,South,183,1.0,4.0,42,0.00,,SKC,0.00,VWS V13.01,2013-05-06 00:16:00,
2013-05-05 17:17:00,72.0,47.7,29.62,South,190,7.0,9.0,42,0.00,,SKC,0.00,VWS V13.01,2013-05-06 00:17:00,
2013-05-05 17:18:00,72.0,48.3,29.62,South,185,3.0,11.0,43,0.00,,SKC,0.00,VWS V13.01,2013-05-06 00:18:00,
2013-05-05 17:19:00,71.9,48.2,29.62,South,184,2.0,11.0,43,0.00,,SKC,0.00,VWS V13.01,2013-05-06 00:19:00,
2013-05-05 17:20:00,71.9,48.2,29.62,South,186,4.0,11.0,43,0.00,,SKC,0.00,VWS V13.01,2013-05-06 00:20:00,
2013-05-05 17:21:00,71.8,48.1,29.62,South,186,1.0,7.0,43,0.00,,SKC,0.00,VWS V13.01,2013-05-06 00:21:00,
2013-05-05 17:22:00,71.7,48.0,29.62,South,186,0.0,7.0,43,0.00,,SKC,0.00,VWS V13.01,2013-05-06 00:22:00,
2013-05-05 17:23:00,71.7,48.0,29.62,South,186,4.0,7.0,43,0.00,,SKC,0.00,VWS V13.01,2013-05-06 00:23:00,
2013-05-05 17:24:00,71.7,48.0,29.62,South,186,2.0,7.0,43,0.00,,SKC,0.00,VWS V13.01,2013-05-06 00:24:00,
2013-05-05 17:25:00,71.7,48.7,29.62,South,186,0.0,7.0,44,0.00,,SKC,0.00,VWS V13.01,2013-05-06 00:25:00,
2013-05-05 17:26:00,71.7,48.0,29.62,South,186,0.0,0.0,43,0.00,,SKC,0.00,VWS V13.01,2013-05-06 00:26:00,
2013-05-05 17:27:00,71.7,48.0,29.62,South,186,0.0,0.0,43,0.00,,SKC,0.00,VWS V13.01,2013-05-06 00:27:00,
2013-05-05 17:28:00,71.7,48.0,29.62,South,186,0.0,0.0,43,0.00,,SKC,0.00,VWS V13.01,2013-05-06 00:28:00,
2013-05-05 17:29:00,71.7,48.0,29.62,South,186,0.0,0.0,43,0.00,,SKC,0.00,VWS V13.01,2013-05-06 00:29:00,
2013-05-05 17:30:00,71.8,48.1,29.62,South,186,0.0,0.0,43,0.00,,SKC,0.00,VWS V13.01,2013-05-06 00:30:00,
2013-05-05 17:31:00,71.8,48.1,29.62,South,187,3.0,4.0,43,0.00,,SKC,0.00,VWS V13.01,2013-05-06 00:31:00,
2013-05-05 17:32:00,71.8,48.1,29.62,South,187,2.0,4.0,43,0.00,,SKC,0.00,VWS V13.01,2013-05-06 00:32:00,
2013-05-05 17:33:00,71.9,48.8,29.62,SSW,192,4.0,5.0,44,0.00,,SKC,0.00,VWS V13.01,2013-05-06 00:33:00,
2013-05-05 17:34:00,71.9,48.8,29.62,SSW,192,2.0,5.0,44,0.00,,SKC,0.00,VWS V13.01,2013-05-06 00:34:00,
2013-05-05 17:35:00,72.0,49.5,29.62,SSW,192,1.0,5.0,45,0.00,,SKC,0.00,VWS V13.01,2013-05-06 00:35:00,
2013-05-05 17:36:00,72.0,49.5,29.62,SSW,192,4.0,4.0,45,0.00,,SKC,0.00,VWS V13.01,2013-05-06 00:36:00,
2013-05-05 17:37:00,72.0,48.3,29.62,SSW,192,1.0,4.0,43,0.00,,SKC,0.00,VWS V13.01,2013-05-06 00:37:00,
2013-05-05 17:38:00,72.0,48.3,29.62,SSW,192,0.0,4.0,43,0.00,,SKC,0.00,VWS V13.01,2013-05-06 00:38:00,
2013-05-05 17:39:00,72.0,48.3,29.62,SSW,192,0.0,4.0,43,0.00,,SKC,0.00,VWS V13.01,2013-05-06 00:39:00,
2013-05-05 17:40:00,72.0,48.3,29.62,SSW,192,0.0,4.0,43,0.00,,SKC,0.00,VWS V13.01,2013-05-06 00:40:00,
2013-05-05 17:41:00,72.0,48.3,29.63,SSW,192,0.0,0.0,43,0.00,,SKC,0.00,VWS V13.01,2013-05-06 00:41:00,
2013-05-05 17:42:00,72.0,48.3,29.63,South,188,2.0,3.0,43,0.00,,SKC,0.00,VWS V13.01,2013-05-06 00:42:00,
2013-05-05 17:43:00,71.9,48.2,29.63,South,188,0.0,3.0,43,0.00,,SKC,0.00,VWS V13.01,2013-05-06 00:43:00,
2013-05-05 17:44:00,71.9,48.2,29.63,South,188,4.0,4.0,43,0.00,,SKC,0.00,VWS V13.01,2013-05-06 00:44:00,
2013-05-05 17:45:00,71.9,48.2,29.62,South,188,0.0,4.0,43,0.00,,SKC,0.00,VWS V13.01,2013-05-06 00:45:00,
2013-05-05 17:46:00,71.8,48.1,29.62,South,188,0.0,0.0,43,0.00,,SKC,0.00,VWS V13.01,2013-05-06 00:46:00,
2013-05-05 17:47:00,71.7,48.7,29.62,South,188,0.0,0.0,44,0.00,,SKC,0.00,VWS V13.01,2013-05-06 00:47:00,
2013-05-05 17:48:00,71.7,48.0,29.62,South,188,0.0,2.0,43,0.00,,SKC,0.00,VWS V13.01,2013-05-06 00:48:00,
2013-05-05 17:49:00,71.7,48.0,29.62,South,188,0.0,2.0,43,0.00,,SKC,0.00,VWS V13.01,2013-05-06 00:49:00,
2013-05-05 17:50:00,71.7,48.0,29.62,South,188,0.0,2.0,43,0.00,,SKC,0.00,VWS V13.01,2013-05-06 00:50:00,
2013-05-05 17:51:00,71.7,48.0,29.62,South,188,0.0,0.0,43,0.00,,SKC,0.00,VWS V13.01,2013-05-06 00:51:00,
2013-05-05 17:52:00,71.7,48.0,29.62,South,188,0.0,0.0,43,0.00,,SKC,0.00,VWS V13.01,2013-05-06 00:52:00,
2013-05-05 17:53:00,71.7,48.7,29.63,South,190,2.0,3.0,44,0.00,,SKC,0.00,VWS V13.01,2013-05-06 00:53:00,
2013-05-05 17:54:00,71.7,48.7,29.63,South,189,2.0,4.0,44,0.00,,SKC,0.00,VWS V13.01,2013-05-06 00:54:00,
2013-05-05 17:55:00,71.7,48.7,29.63,South,190,0.0,4.0,44,0.00,,SKC,0.00,VWS V13.01,2013-05-06 00:55:00,
2013-05-05 17:56:00,71.8,48.7,29.63,South,190,2.0,4.0,44,0.00,,SKC,0.00,VWS V13.01,2013-05-06 00:56:00,
2013-05-05 17:57:00,71.8,49.3,29.63,South,190,0.0,4.0,45,0.00,,SKC,0.00,VWS V13.01,2013-05-06 00:57:00,
2013-05-05 17:58:00,71.8,49.3,29.63,South,190,4.0,4.0,45,0.00,,SKC,0.00,VWS V13.01,2013-05-06 00:58:00,
2013-05-05 17:59:00,71.9,48.8,29.63,South,190,2.0,4.0,44,0.00,,SKC,0.00,VWS V13.01,2013-05-06 00:59:00,
2013-05-05 18:00:00,71.9,48.2,29.63,South,190,0.0,4.0,43,0.00,,SKC,0.00,VWS V13.01,2013-05-06 01:00:00,
2013-05-05 18:01:00,71.9,48.2,29.63,SSW,198,7.0,10.0,43,0.00,,SKC,0.00,VWS V13.01,2013-05-06 01:01:00,
2013-05-05 18:02:00,71.9,47.6,29.62,WSW,238,9.0,12.0,42,0.00,,SKC,0.00,VWS V13.01,2013-05-06 01:02:00,
2013-05-05 18:03:00,71.9,47.0,29.63,SW,230,10.0,14.0,41,0.00,,SKC,0.00,VWS V13.01,2013-05-06 01:03:00,
2013-05-05 18:04:00,71.9,47.0,29.62,SSW,212,3.0,14.0,41,0.00,,SKC,0.00,VWS V13.01,2013-05-06 01:04:00,
2013-05-05 18:05:00,71.9,47.0,29.62,SW,217,7.0,7.0,41,0.00,,SKC,0.00,VWS V13.01,2013-05-06 01:05:00,
2013-05-05 18:06:00,71.9,47.0,29.62,SSW,211,6.0,8.0,41,0.00,,SKC,0.00,VWS V13.01,2013-05-06 01:06:00,
2013-05-05 18:07:00,71.9,47.0,29.62,SSW,194,9.0,10.0,41,0.00,,SKC,0.00,VWS V13.01,2013-05-06 01:07:00,
2013-05-05 18:08:00,72.0,47.0,29.62,SW,214,6.0,10.0,41,0.00,,SKC,0.00,VWS V13.01,2013-05-06 01:08:00,
2013-05-05 18:09:00,72.0,47.0,29.63,South,189,10.0,13.0,41,0.00,,SKC,0.00,VWS V13.01,2013-05-06 01:09:00,
2013-05-05 18:10:00,72.0,47.0,29.62,SW,221,9.0,13.0,41,0.00,,SKC,0.00,VWS V13.01,2013-05-06 01:10:00,
2013-05-05 18:11:00,72.0,46.4,29.63,SSW,200,5.0,11.0,40,0.00,,SKC,0.00,VWS V13.01,2013-05-06 01:11:00,
2013-05-05 18:12:00,72.0,46.4,29.62,SSW,202,7.0,11.0,40,0.00,,SKC,0.00,VWS V13.01,2013-05-06 01:12:00,
2013-05-05 18:13:00,72.0,46.4,29.62,SW,217,4.0,11.0,40,0.00,,SKC,0.00,VWS V13.01,2013-05-06 01:13:00,
2013-05-05 18:14:00,72.0,46.4,29.62,SW,218,1.0,11.0,40,0.00,,SKC,0.00,VWS V13.01,2013-05-06 01:14:00,
2013-05-05 18:15:00,72.0,46.4,29.63,SW,218,3.0,11.0,40,0.00,,SKC,0.00,VWS V13.01,2013-05-06 01:15:00,
2013-05-05 18:16:00,72.0,46.4,29.63,SW,220,2.0,5.0,40,0.00,,SKC,0.00,VWS V13.01,2013-05-06 01:16:00,
2013-05-05 18:17:00,71.9,47.0,29.62,SW,217,5.0,5.0,41,0.00,,SKC,0.00,VWS V13.01,2013-05-06 01:17:00,
2013-05-05 18:18:00,72.0,46.4,29.63,SSW,199,14.0,14.0,40,0.00,,SKC,0.00,VWS V13.01,2013-05-06 01:18:00,
2013-05-05 18:19:00,71.9,46.3,29.63,SSW,209,6.0,14.0,40,0.00,,SKC,0.00,VWS V13.01,2013-05-06 01:19:00,
2013-05-05 18:20:00,71.9,46.3,29.63,WSW,238,7.0,14.0,40,0.00,,SKC,0.00,VWS V13.01,2013-05-06 01:20:00,
2013-05-05 18:21:00,71.9,46.3,29.62,SW,220,5.0,10.0,40,0.00,,SKC,0.00,VWS V13.01,2013-05-06 01:21:00,
2013-05-05 18:22:00,71.9,46.3,29.63,SSW,196,11.0,12.0,40,0.00,,SKC,0.00,VWS V13.01,2013-05-06 01:22:00,
2013-05-05 18:23:00,71.9,46.3,29.63,SW,222,9.0,12.0,40,0.00,,SKC,0.00,VWS V13.01,2013-05-06 01:23:00,
2013-05-05 18:24:00,71.9,46.3,29.63,SW,229,8.0,12.0,40,0.00,,SKC,0.00,VWS V13.01,2013-05-06 01:24:00,
2013-05-05 18:25:00,71.8,46.2,29.63,SSW,199,6.0,14.0,40,0.00,,SKC,0.00,VWS V13.01,2013-05-06 01:25:00,
2013-05-05 18:26:00,71.8,46.2,29.63,WSW,238,0.0,12.0,40,0.00,,SKC,0.00,VWS V13.01,2013-05-06 01:26:00,
2013-05-05 18:27:00,71.7,46.1,29.63,SSW,200,13.0,15.0,40,0.00,,SKC,0.00,VWS V13.01,2013-05-06 01:27:00,
2013-05-05 18:28:00,71.7,46.1,29.63,South,171,6.0,15.0,40,0.00,,SKC,0.00,VWS V13.01,2013-05-06 01:28:00,
2013-05-05 18:29:00,71.7,46.1,29.63,SSW,194,5.0,15.0,40,0.00,,SKC,0.00,VWS V13.01,2013-05-06 01:29:00,
2013-05-05 18:30:00,71.7,46.1,29.63,SW,229,5.0,15.0,40,0.00,,SKC,0.00,VWS V13.01,2013-05-06 01:30:00,
2013-05-05 18:31:00,71.6,46.0,29.63,South,186,7.0,13.0,40,0.00,,SKC,0.00,VWS V13.01,2013-05-06 01:31:00,
2013-05-05 18:32:00,71.6,46.7,29.63,SW,220,8.0,13.0,41,0.00,,SKC,0.00,VWS V13.01,2013-05-06 01:32:00,
2013-05-05 18:33:00,71.5,46.6,29.63,SSW,207,11.0,13.0,41,0.00,,SKC,0.00,VWS V13.01,2013-05-06 01:33:00,
2013-05-05 18:34:00,71.5,46.6,29.63,SSW,197,6.0,13.0,41,0.00,,SKC,0.00,VWS V13.01,2013-05-06 01:34:00,
2013-05-05 18:35:00,71.5,46.6,29.63,SSW,213,10.0,13.0,41,0.00,,SKC,0.00,VWS V13.01,2013-05-06 01:35:00,
2013-05-05 18:36:00,71.5,46.6,29.63,SSW,201,5.0,13.0,41,0.00,,SKC,0.00,VWS V13.01,2013-05-06 01:36:00,
2013-05-05 18:37:00,71.5,46.6,29.63,SSW,192,6.0,13.0,41,0.00,,SKC,0.00,VWS V13.01,2013-05-06 01:37:00,
2013-05-05 18:38:00,71.5,46.6,29.63,SSW,211,5.0,13.0,41,0.00,,SKC,0.00,VWS V13.01,2013-05-06 01:38:00,
2013-05-05 18:39:00,71.5,47.2,29.63,SSW,196,9.0,13.0,42,0.00,,SKC,0.00,VWS V13.01,2013-05-06 01:39:00,
2013-05-05 18:40:00,71.4,46.5,29.63,SSW,213,10.0,13.0,41,0.00,,SKC,0.00,VWS V13.01,2013-05-06 01:40:00,
2013-05-05 18:41:00,71.4,46.5,29.64,SSW,211,10.0,10.0,41,0.00,,SKC,0.00,VWS V13.01,2013-05-06 01:41:00,
2013-05-05 18:42:00,71.4,46.5,29.64,South,190,4.0,11.0,41,0.00,,SKC,0.00,VWS V13.01,2013-05-06 01:42:00,
2013-05-05 18:43:00,71.3,47.0,29.64,SW,220,5.0,11.0,42,0.00,,SKC,0.00,VWS V13.01,2013-05-06 01:43:00,
2013-05-05 18:44:00,71.3,47.0,29.64,SSW,198,4.0,11.0,42,0.00,,SKC,0.00,VWS V13.01,2013-05-06 01:44:00,
2013-05-05 18:45:00,71.3,47.0,29.64,SSW,201,4.0,11.0,42,0.00,,SKC,0.00,VWS V13.01,2013-05-06 01:45:00,
2013-05-05 18:46:00,71.3,47.0,29.64,South,184,3.0,9.0,42,0.00,,SKC,0.00,VWS V13.01,2013-05-06 01:46:00,
2013-05-05 18:47:00,71.3,47.0,29.64,SSW,209,11.0,11.0,42,0.00,,SKC,0.00,VWS V13.01,2013-05-06 01:47:00,
2013-05-05 18:48:00,71.3,47.0,29.64,SSW,205,11.0,14.0,42,0.00,,SKC,0.00,VWS V13.01,2013-05-06 01:48:00,
2013-05-05 18:49:00,71.2,47.0,29.64,SSW,196,6.0,14.0,42,0.00,,SKC,0.00,VWS V13.01,2013-05-06 01:49:00,
2013-05-05 18:50:00,71.2,47.0,29.64,SSW,203,11.0,14.0,42,0.00,,SKC,0.00,VWS V13.01,2013-05-06 01:50:00,
2013-05-05 18:51:00,71.2,47.0,29.64,SSW,209,5.0,12.0,42,0.00,,SKC,0.00,VWS V13.01,2013-05-06 01:51:00,
2013-05-05 18:52:00,71.2,47.0,29.64,SW,230,14.0,14.0,42,0.00,,SKC,0.00,VWS V13.01,2013-05-06 01:52:00,
2013-05-05 18:53:00,71.1,47.5,29.64,SSW,207,5.0,15.0,43,0.00,,SKC,0.00,VWS V13.01,2013-05-06 01:53:00,
2013-05-05 18:54:00,71.1,47.5,29.64,SW,219,5.0,15.0,43,0.00,,SKC,0.00,VWS V13.01,2013-05-06 01:54:00,
2013-05-05 18:55:00,71.0,47.4,29.64,SSW,210,6.0,15.0,43,0.00,,SKC,0.00,VWS V13.01,2013-05-06 01:55:00,
2013-05-05 18:56:00,71.0,47.4,29.64,SSE,165,6.0,11.0,43,0.00,,SKC,0.00,VWS V13.01,2013-05-06 01:56:00,
2013-05-05 18:57:00,71.0,47.4,29.64,SSW,200,4.0,12.0,43,0.00,,SKC,0.00,VWS V13.01,2013-05-06 01:57:00,
2013-05-05 18:58:00,71.0,47.4,29.64,SSW,198,10.0,14.0,43,0.00,,SKC,0.00,VWS V13.01,2013-05-06 01:58:00,
2013-05-05 18:59:00,70.9,47.3,29.64,SSW,211,14.0,14.0,43,0.00,,SKC,0.00,VWS V13.01,2013-05-06 01:59:00,
2013-05-05 19:00:00,70.9,47.9,29.64,SSW,194,6.0,15.0,44,0.00,,SKC,0.00,VWS V13.01,2013-05-06 02:00:00,
2013-05-05 19:01:00,70.8,47.8,29.64,SSW,198,12.0,13.0,44,0.00,,SKC,0.00,VWS V13.01,2013-05-06 02:01:00,
2013-05-05 19:02:00,70.8,47.8,29.64,SW,228,8.0,15.0,44,0.00,,SKC,0.00,VWS V13.01,2013-05-06 02:02:00,
2013-05-05 19:03:00,70.8,47.8,29.64,SSW,192,5.0,15.0,44,0.00,,SKC,0.00,VWS V13.01,2013-05-06 02:03:00,
2013-05-05 19:04:00,70.8,47.8,29.64,SSW,209,10.0,16.0,44,0.00,,SKC,0.00,VWS V13.01,2013-05-06 02:04:00,
2013-05-05 19:05:00,70.7,47.7,29.64,South,190,8.0,16.0,44,0.00,,SKC,0.00,VWS V13.01,2013-05-06 02:05:00,
2013-05-05 19:06:00,70.7,47.7,29.64,SSW,207,7.0,10.0,44,0.00,,SKC,0.00,VWS V13.01,2013-05-06 02:06:00,
2013-05-05 19:07:00,70.7,48.3,29.64,SSW,212,9.0,12.0,45,0.00,,SKC,0.00,VWS V13.01,2013-05-06 02:07:00,
2013-05-05 19:08:00,70.6,48.2,29.64,SSE,164,3.0,12.0,45,0.00,,SKC,0.00,VWS V13.01,2013-05-06 02:08:00,
2013-05-05 19:09:00,70.6,48.2,29.64,SSW,205,5.0,12.0,45,0.00,,SKC,0.00,VWS V13.01,2013-05-06 02:09:00,
2013-05-05 19:10:00,70.6,48.2,29.64,SSW,209,6.0,12.0,45,0.00,,SKC,0.00,VWS V13.01,2013-05-06 02:10:00,
2013-05-05 19:11:00,70.5,48.2,29.64,SSW,209,6.0,11.0,45,0.00,,SKC,0.00,VWS V13.01,2013-05-06 02:11:00,
2013-05-05 19:12:00,70.5,48.2,29.64,SSW,195,10.0,11.0,45,0.00,,SKC,0.00,VWS V13.01,2013-05-06 02:12:00,
2013-05-05 19:13:00,70.4,48.1,29.65,SW,225,12.0,13.0,45,0.00,,SKC,0.00,VWS V13.01,2013-05-06 02:13:00,
2013-05-05 19:14:00,70.4,48.1,29.65,SSW,199,6.0,13.0,45,0.00,,SKC,0.00,VWS V13.01,2013-05-06 02:14:00,
2013-05-05 19:15:00,70.4,48.1,29.65,SW,231,10.0,13.0,45,0.00,,SKC,0.00,VWS V13.01,2013-05-06 02:15:00,
2013-05-05 19:16:00,70.4,48.1,29.65,SSW,205,5.0,13.0,45,0.00,,SKC,0.00,VWS V13.01,2013-05-06 02:16:00,
2013-05-05 19:17:00,70.3,48.0,29.65,SSW,213,9.0,13.0,45,0.00,,SKC,0.00,VWS V13.01,2013-05-06 02:17:00,
2013-05-05 19:18:00,70.3,48.0,29.65,SSW,213,6.0,13.0,45,0.00,,SKC,0.00,VWS V13.01,2013-05-06 02:18:00,
2013-05-05 19:19:00,70.3,48.0,29.65,SW,215,9.0,13.0,45,0.00,,SKC,0.00,VWS V13.01,2013-05-06 02:19:00,
2013-05-05 19:20:00,70.3,48.0,29.65,SW,236,6.0,13.0,45,0.00,,SKC,0.00,VWS V13.01,2013-05-06 02:20:00,
2013-05-05 19:21:00,70.2,47.9,29.65,SW,221,6.0,7.0,45,0.00,,SKC,0.00,VWS V13.01,2013-05-06 02:21:00,
2013-05-05 19:22:00,70.2,47.9,29.65,SW,223,3.0,7.0,45,0.00,,SKC,0.00,VWS V13.01,2013-05-06 02:22:00,
2013-05-05 19:23:00,70.2,47.9,29.65,WSW,238,7.0,9.0,45,0.00,,SKC,0.00,VWS V13.01,2013-05-06 02:23:00,
2013-05-05 19:24:00,70.2,47.9,29.65,SSW,207,5.0,10.0,45,0.00,,SKC,0.00,VWS V13.01,2013-05-06 02:24:00,
2013-05-05 19:25:00,70.1,47.8,29.65,SW,217,9.0,10.0,45,0.00,,SKC,0.00,VWS V13.01,2013-05-06 02:25:00,
2013-05-05 19:26:00,70.1,47.8,29.65,SW,224,4.0,10.0,45,0.00,,SKC,0.00,VWS V13.01,2013-05-06 02:26:00,
2013-05-05 19:27:00,70.0,47.7,29.65,SW,236,11.0,11.0,45,0.00,,SKC,0.00,VWS V13.01,2013-05-06 02:27:00,
2013-05-05 19:28:00,70.0,47.7,29.65,SW,224,9.0,14.0,45,0.00,,SKC,0.00,VWS V13.01,2013-05-06 02:28:00,
2013-05-05 19:29:00,69.9,47.6,29.65,SSW,202,11.0,14.0,45,0.00,,SKC,0.00,VWS V13.01,2013-05-06 02:29:00,
2013-05-05 19:30:00,69.9,47.6,29.65,SW,220,10.0,17.0,45,0.00,,SKC,0.00,VWS V13.01,2013-05-06 02:30:00,
2013-05-05 19:31:00,69.8,47.5,29.65,WSW,241,9.0,10.0,45,0.00,,SKC,0.00,VWS V13.01,2013-05-06 02:31:00,
2013-05-05 19:32:00,69.8,47.5,29.65,SW,215,8.0,14.0,45,0.00,,SKC,0.00,VWS V13.01,2013-05-06 02:32:00,
2013-05-05 19:33:00,69.8,47.5,29.65,SSW,202,10.0,14.0,45,0.00,,SKC,0.00,VWS V13.01,2013-05-06 02:33:00,
2013-05-05 19:34:00,69.7,47.4,29.65,SSW,212,10.0,14.0,45,0.00,,SKC,0.00,VWS V13.01,2013-05-06 02:34:00,
2013-05-05 19:35:00,69.6,47.3,29.66,SW,220,7.0,14.0,45,0.00,,SKC,0.00,VWS V13.01,2013-05-06 02:35:00,
2013-05-05 19:36:00,69.6,47.3,29.65,SW,221,6.0,12.0,45,0.00,,SKC,0.00,VWS V13.01,2013-05-06 02:36:00,
2013-05-05 19:37:00,69.5,47.2,29.65,SSW,202,9.0,12.0,45,0.00,,SKC,0.00,VWS V13.01,2013-05-06 02:37:00,
2013-05-05 19:38:00,69.5,47.2,29.65,SW,215,9.0,12.0,45,0.00,,SKC,0.00,VWS V13.01,2013-05-06 02:38:00,
2013-05-05 19:39:00,69.4,47.2,29.65,SSW,213,9.0,12.0,45,0.00,,SKC,0.00,VWS V13.01,2013-05-06 02:39:00,
2013-05-05 19:40:00,69.4,47.2,29.65,SSW,213,9.0,13.0,45,0.00,,SKC,0.00,VWS V13.01,2013-05-06 02:40:00,
2013-05-05 19:41:00,69.4,47.2,29.65,SW,228,6.0,10.0,45,0.00,,SKC,0.00,VWS V13.01,2013-05-06 02:41:00,
2013-05-05 19:42:00,69.3,47.1,29.65,SW,215,7.0,11.0,45,0.00,,SKC,0.00,VWS V13.01,2013-05-06 02:42:00,
2013-05-05 19:43:00,69.3,47.1,29.66,SW,215,12.0,17.0,45,0.00,,SKC,0.00,VWS V13.01,2013-05-06 02:43:00,
2013-05-05 19:44:00,69.2,47.0,29.66,SSW,207,9.0,17.0,45,0.00,,SKC,0.00,VWS V13.01,2013-05-06 02:44:00,
2013-05-05 19:45:00,69.2,47.0,29.66,WSW,242,5.0,17.0,45,0.00,,SKC,0.00,VWS V13.01,2013-05-06 02:45:00,
2013-05-05 19:46:00,69.2,47.0,29.65,SW,229,5.0,11.0,45,0.00,,SKC,0.00,VWS V13.01,2013-05-06 02:46:00,
2013-05-05 19:47:00,69.1,46.9,29.65,SSW,211,9.0,11.0,45,0.00,,SKC,0.00,VWS V13.01,2013-05-06 02:47:00,
2013-05-05 19:48:00,69.1,46.9,29.66,SW,226,6.0,11.0,45,0.00,,SKC,0.00,VWS V13.01,2013-05-06 02:48:00,
2013-05-05 19:49:00,69.0,46.8,29.66,SSW,209,10.0,11.0,45,0.00,,SKC,0.00,VWS V13.01,2013-05-06 02:49:00,
2013-05-05 19:50:00,69.0,46.8,29.66,SW,226,9.0,11.0,45,0.00,,SKC,0.00,VWS V13.01,2013-05-06 02:50:00,
2013-05-05 19:51:00,69.0,46.8,29.66,SSW,207,5.0,13.0,45,0.00,,SKC,0.00,VWS V13.01,2013-05-06 02:51:00,
2013-05-05 19:52:00,68.9,46.7,29.66,SW,229,7.0,13.0,45,0.00,,SKC,0.00,VWS V13.01,2013-05-06 02:52:00,
2013-05-05 19:53:00,68.8,46.6,29.66,WSW,252,12.0,13.0,45,0.00,,SKC,0.00,VWS V13.01,2013-05-06 02:53:00,
2013-05-05 19:54:00,68.8,46.6,29.66,SW,223,11.0,14.0,45,0.00,,SKC,0.00,VWS V13.01,2013-05-06 02:54:00,
2013-05-05 19:55:00,68.8,46.6,29.66,SW,214,7.0,14.0,45,0.00,,SKC,0.00,VWS V13.01,2013-05-06 02:55:00,
2013-05-05 19:56:00,68.8,46.6,29.66,SW,227,5.0,8.0,45,0.00,,SKC,0.00,VWS V13.01,2013-05-06 02:56:00,
2013-05-05 19:57:00,68.8,46.6,29.66,SW,235,3.0,8.0,45,0.00,,SKC,0.00,VWS V13.01,2013-05-06 02:57:00,
2013-05-05 19:58:00,68.7,46.5,29.66,SW,224,7.0,8.0,45,0.00,,SKC,0.00,VWS V13.01,2013-05-06 02:58:00,
2013-05-05 19:59:00,68.6,46.4,29.66,SW,217,6.0,10.0,45,0.00,,SKC,0.00,VWS V13.01,2013-05-06 02:59:00,
2013-05-05 20:00:00,68.6,47.0,29.66,SW,216,4.0,10.0,46,0.00,,SKC,0.00,VWS V13.01,2013-05-06 03:00:00,
2013-05-05 20:01:00,68.6,47.0,29.66,SSW,210,8.0,9.0,46,0.00,,SKC,0.00,VWS V13.01,2013-05-06 03:01:00,
2013-05-05 20:02:00,68.6,47.0,29.66,SSW,209,3.0,9.0,46,0.00,,SKC,0.00,VWS V13.01,2013-05-06 03:02:00,
2013-05-05 20:03:00,68.5,46.9,29.66,SSW,209,4.0,9.0,46,0.00,,SKC,0.00,VWS V13.01,2013-05-06 03:03:00,
2013-05-05 20:04:00,68.5,46.9,29.66,SSW,199,7.0,10.0,46,0.00,,SKC,0.00,VWS V13.01,2013-05-06 03:04:00,
2013-05-05 20:05:00,68.4,46.8,29.66,SSW,199,4.0,10.0,46,0.00,,SKC,0.00,VWS V13.01,2013-05-06 03:05:00,
2013-05-05 20:06:00,68.3,46.7,29.66,South,191,2.0,9.0,46,0.00,,SKC,0.00,VWS V13.01,2013-05-06 03:06:00,
2013-05-05 20:07:00,68.3,46.7,29.66,SSW,192,3.0,9.0,46,0.00,,SKC,0.00,VWS V13.01,2013-05-06 03:07:00,
2013-05-05 20:08:00,68.2,46.7,29.66,SSW,194,0.0,9.0,46,0.00,,SKC,0.00,VWS V13.01,2013-05-06 03:08:00,
2013-05-05 20:09:00,68.2,46.7,29.66,SSW,206,2.0,9.0,46,0.00,,SKC,0.00,VWS V13.01,2013-05-06 03:09:00,
2013-05-05 20:10:00,68.1,46.6,29.66,SSW,211,8.0,10.0,46,0.00,,SKC,0.00,VWS V13.01,2013-05-06 03:10:00,
2013-05-05 20:11:00,68.1,46.6,29.66,SSW,202,7.0,10.0,46,0.00,,SKC,0.00,VWS V13.01,2013-05-06 03:11:00,
2013-05-05 20:12:00,68.1,46.6,29.67,SSW,207,8.0,10.0,46,0.00,,SKC,0.00,VWS V13.01,2013-05-06 03:12:00,
2013-05-05 20:13:00,68.0,46.5,29.67,SW,231,9.0,13.0,46,0.00,,SKC,0.00,VWS V13.01,2013-05-06 03:13:00,
2013-05-05 20:14:00,68.0,46.5,29.67,SSW,208,7.0,13.0,46,0.00,,SKC,0.00,VWS V13.01,2013-05-06 03:14:00,
2013-05-05 20:15:00,68.0,46.5,29.67,SSW,207,4.0,13.0,46,0.00,,SKC,0.00,VWS V13.01,2013-05-06 03:15:00,
2013-05-05 20:16:00,68.0,46.5,29.67,South,186,5.0,11.0,46,0.00,,SKC,0.00,VWS V13.01,2013-05-06 03:16:00,
2013-05-05 20:17:00,68.0,46.5,29.67,South,190,4.0,11.0,46,0.00,,SKC,0.00,VWS V13.01,2013-05-06 03:17:00,
2013-05-05 20:18:00,68.0,46.5,29.67,SW,218,6.0,11.0,46,0.00,,SKC,0.00,VWS V13.01,2013-05-06 03:18:00,
2013-05-05 20:19:00,67.9,46.4,29.67,SW,227,7.0,11.0,46,0.00,,SKC,0.00,VWS V13.01,2013-05-06 03:19:00,
2013-05-05 20:20:00,67.9,46.4,29.67,SSW,207,6.0,11.0,46,0.00,,SKC,0.00,VWS V13.01,2013-05-06 03:20:00,
2013-05-05 20:21:00,67.9,46.4,29.67,SSW,192,5.0,7.0,46,0.00,,SKC,0.00,VWS V13.01,2013-05-06 03:21:00,
2013-05-05 20:22:00,67.9,46.4,29.67,SSW,202,4.0,9.0,46,0.00,,SKC,0.00,VWS V13.01,2013-05-06 03:22:00,
2013-05-05 20:23:00,67.8,46.3,29.67,SSW,201,5.0,9.0,46,0.00,,SKC,0.00,VWS V13.01,2013-05-06 03:23:00,
2013-05-05 20:24:00,67.8,46.3,29.67,SSW,202,4.0,9.0,46,0.00,,SKC,0.00,VWS V13.01,2013-05-06 03:24:00,
2013-05-05 20:25:00,67.7,46.2,29.67,SSW,211,7.0,9.0,46,0.00,,SKC,0.00,VWS V13.01,2013-05-06 03:25:00,
2013-05-05 20:26:00,67.7,46.2,29.67,SW,214,5.0,10.0,46,0.00,,SKC,0.00,VWS V13.01,2013-05-06 03:26:00,
2013-05-05 20:27:00,67.7,46.2,29.67,SW,214,3.0,10.0,46,0.00,,SKC,0.00,VWS V13.01,2013-05-06 03:27:00,
2013-05-05 20:28:00,67.7,46.8,29.67,SW,214,3.0,10.0,47,0.00,,SKC,0.00,VWS V13.01,2013-05-06 03:28:00,
2013-05-05 20:29:00,67.6,46.7,29.67,SW,214,2.0,10.0,47,0.00,,SKC,0.00,VWS V13.01,2013-05-06 03:29:00,
2013-05-05 20:30:00,67.6,46.7,29.67,SW,214,1.0,10.0,47,0.00,,SKC,0.00,VWS V13.01,2013-05-06 03:30:00,
2013-05-05 20:31:00,67.6,46.7,29.67,SW,214,3.0,5.0,47,0.00,,SKC,0.00,VWS V13.01,2013-05-06 03:31:00,
2013-05-05 20:32:00,67.5,46.6,29.67,SSW,211,2.0,5.0,47,0.00,,SKC,0.00,VWS V13.01,2013-05-06 03:32:00,
2013-05-05 20:33:00,67.4,46.5,29.67,SSW,211,4.0,7.0,47,0.00,,SKC,0.00,VWS V13.01,2013-05-06 03:33:00,
2013-05-05 20:34:00,67.4,46.5,29.67,SSW,211,5.0,8.0,47,0.00,,SKC,0.00,VWS V13.01,2013-05-06 03:34:00,
2013-05-05 20:35:00,67.4,46.5,29.67,SSW,211,5.0,8.0,47,0.00,,SKC,0.00,VWS V13.01,2013-05-06 03:35:00,
2013-05-05 20:36:00,67.3,46.4,29.67,SW,217,6.0,10.0,47,0.00,,SKC,0.00,VWS V13.01,2013-05-06 03:36:00,
2013-05-05 20:37:00,67.2,46.3,29.67,SSW,209,3.0,10.0,47,0.00,,SKC,0.00,VWS V13.01,2013-05-06 03:37:00,
2013-05-05 20:38:00,67.2,46.3,29.67,SSW,209,3.0,10.0,47,0.00,,SKC,0.00,VWS V13.01,2013-05-06 03:38:00,
2013-05-05 20:39:00,67.2,46.3,29.67,SSW,210,5.0,10.0,47,0.00,,SKC,0.00,VWS V13.01,2013-05-06 03:39:00,
2013-05-05 20:40:00,67.1,46.2,29.67,SW,215,4.0,10.0,47,0.00,,SKC,0.00,VWS V13.01,2013-05-06 03:40:00,
2013-05-05 20:41:00,67.0,46.1,29.67,SW,225,9.0,9.0,47,0.00,,SKC,0.00,VWS V13.01,2013-05-06 03:41:00,
2013-05-05 20:42:00,67.0,46.1,29.68,SW,219,7.0,9.0,47,0.00,,SKC,0.00,VWS V13.01,2013-05-06 03:42:00,
2013-05-05 20:43:00,67.0,46.1,29.68,SW,232,5.0,10.0,47,0.00,,SKC,0.00,VWS V13.01,2013-05-06 03:43:00,
2013-05-05 20:44:00,67.0,46.1,29.68,SW,220,4.0,10.0,47,0.00,,SKC,0.00,VWS V13.01,2013-05-06 03:44:00,
2013-05-05 20:45:00,67.0,46.1,29.68,SSW,211,4.0,10.0,47,0.00,,SKC,0.00,VWS V13.01,2013-05-06 03:45:00,
2013-05-05 20:46:00,67.0,46.1,29.68,SW,217,6.0,7.0,47,0.00,,SKC,0.00,VWS V13.01,2013-05-06 03:46:00,
2013-05-05 20:47:00,67.0,46.1,29.68,SW,226,7.0,7.0,47,0.00,,SKC,0.00,VWS V13.01,2013-05-06 03:47:00,
2013-05-05 20:48:00,66.9,46.0,29.68,SW,227,3.0,7.0,47,0.00,,SKC,0.00,VWS V13.01,2013-05-06 03:48:00,
2013-05-05 20:49:00,66.9,46.0,29.68,SW,221,4.0,7.0,47,0.00,,SKC,0.00,VWS V13.01,2013-05-06 03:49:00,
2013-05-05 20:50:00,66.9,46.0,29.68,SW,221,2.0,7.0,47,0.00,,SKC,0.00,VWS V13.01,2013-05-06 03:50:00,
2013-05-05 20:51:00,66.9,46.0,29.68,SW,221,2.0,4.0,47,0.00,,SKC,0.00,VWS V13.01,2013-05-06 03:51:00,
2013-05-05 20:52:00,66.8,45.9,29.68,SW,221,0.0,5.0,47,0.00,,SKC,0.00,VWS V13.01,2013-05-06 03:52:00,
2013-05-05 20:53:00,66.8,45.9,29.68,WSW,249,4.0,7.0,47,0.00,,SKC,0.00,VWS V13.01,2013-05-06 03:53:00,
2013-05-05 20:54:00,66.7,45.8,29.68,SW,227,3.0,7.0,47,0.00,,SKC,0.00,VWS V13.01,2013-05-06 03:54:00,
2013-05-05 20:55:00,66.6,45.8,29.68,SW,220,6.0,7.0,47,0.00,,SKC,0.00,VWS V13.01,2013-05-06 03:55:00,
2013-05-05 20:56:00,66.6,46.3,29.68,SW,222,3.0,6.0,48,0.00,,SKC,0.00,VWS V13.01,2013-05-06 03:56:00,
2013-05-05 20:57:00,66.6,46.3,29.68,SW,217,6.0,7.0,48,0.00,,SKC,0.00,VWS V13.01,2013-05-06 03:57:00,
2013-05-05 20:58:00,66.5,46.2,29.68,SW,221,6.0,7.0,48,0.00,,SKC,0.00,VWS V13.01,2013-05-06 03:58:00,
2013-05-05 20:59:00,66.5,46.2,29.68,SW,221,3.0,7.0,48,0.00,,SKC,0.00,VWS V13.01,2013-05-06 03:59:00,
2013-05-05 21:00:00,66.4,46.7,29.68,SW,221,3.0,7.0,49,0.00,,SKC,0.00,VWS V13.01,2013-05-06 04:00:00,
2013-05-05 21:01:00,66.4,46.7,29.68,SW,222,4.0,5.0,49,0.00,,SKC,0.00,VWS V13.01,2013-05-06 04:01:00,
2013-05-05 21:02:00,66.3,46.6,29.68,SW,228,1.0,5.0,49,0.00,,SKC,0.00,VWS V13.01,2013-05-06 04:02:00,
2013-05-05 21:03:00,66.3,47.1,29.68,SW,228,3.0,5.0,50,0.00,,SKC,0.00,VWS V13.01,2013-05-06 04:03:00,
2013-05-05 21:04:00,66.2,47.0,29.68,SW,228,2.0,5.0,50,0.00,,SKC,0.00,VWS V13.01,2013-05-06 04:04:00,
2013-05-05 21:05:00,66.1,46.9,29.68,SW,228,0.0,5.0,50,0.00,,SKC,0.00,VWS V13.01,2013-05-06 04:05:00,
2013-05-05 21:06:00,66.1,46.9,29.68,SW,228,2.0,4.0,50,0.00,,SKC,0.00,VWS V13.01,2013-05-06 04:06:00,
2013-05-05 21:07:00,66.0,46.8,29.68,SW,229,4.0,4.0,50,0.00,,SKC,0.00,VWS V13.01,2013-05-06 04:07:00,
2013-05-05 21:08:00,66.0,46.8,29.69,SW,229,2.0,5.0,50,0.00,,SKC,0.00,VWS V13.01,2013-05-06 04:08:00,
2013-05-05 21:09:00,65.9,47.3,29.69,SW,229,2.0,5.0,51,0.00,,SKC,0.00,VWS V13.01,2013-05-06 04:09:00,
2013-05-05 21:10:00,65.8,47.2,29.69,SW,229,3.0,5.0,51,0.00,,SKC,0.00,VWS V13.01,2013-05-06 04:10:00,
2013-05-05 21:11:00,65.8,47.2,29.69,SW,229,2.0,5.0,51,0.00,,SKC,0.00,VWS V13.01,2013-05-06 04:11:00,
2013-05-05 21:12:00,65.7,47.6,29.69,SW,229,1.0,5.0,52,0.00,,SKC,0.00,VWS V13.01,2013-05-06 04:12:00,
2013-05-05 21:13:00,65.6,47.5,29.69,SW,229,2.0,5.0,52,0.00,,SKC,0.00,VWS V13.01,2013-05-06 04:13:00,
2013-05-05 21:14:00,65.5,47.4,29.69,SW,229,3.0,5.0,52,0.00,,SKC,0.00,VWS V13.01,2013-05-06 04:14:00,
2013-05-05 21:15:00,65.4,47.3,29.69,SW,229,1.0,5.0,52,0.00,,SKC,0.00,VWS V13.01,2013-05-06 04:15:00,
2013-05-05 21:16:00,65.4,47.8,29.69,SW,229,2.0,4.0,53,0.00,,SKC,0.00,VWS V13.01,2013-05-06 04:16:00,
2013-05-05 21:17:00,65.3,47.8,29.69,SW,229,0.0,4.0,53,0.00,,SKC,0.00,VWS V13.01,2013-05-06 04:17:00,
2013-05-05 21:18:00,65.2,47.7,29.69,SW,229,0.0,4.0,53,0.00,,SKC,0.00,VWS V13.01,2013-05-06 04:18:00,
2013-05-05 21:19:00,65.2,47.7,29.69,SW,229,0.0,4.0,53,0.00,,SKC,0.00,VWS V13.01,2013-05-06 04:19:00,
2013-05-05 21:20:00,65.1,48.1,29.69,SW,229,0.0,4.0,54,0.00,,SKC,0.00,VWS V13.01,2013-05-06 04:20:00,
2013-05-05 21:21:00,65.0,48.0,29.69,SW,229,2.0,3.0,54,0.00,,SKC,0.00,VWS V13.01,2013-05-06 04:21:00,
2013-05-05 21:22:00,65.0,48.0,29.69,SW,229,1.0,3.0,54,0.00,,SKC,0.00,VWS V13.01,2013-05-06 04:22:00,
2013-05-05 21:23:00,64.9,47.9,29.69,SW,229,1.0,3.0,54,0.00,,SKC,0.00,VWS V13.01,2013-05-06 04:23:00,
2013-05-05 21:24:00,64.8,48.3,29.69,SW,229,1.0,3.0,55,0.00,,SKC,0.00,VWS V13.01,2013-05-06 04:24:00,
2013-05-05 21:25:00,64.8,48.3,29.70,SW,229,0.0,3.0,55,0.00,,SKC,0.00,VWS V13.01,2013-05-06 04:25:00,
2013-05-05 21:26:00,64.7,48.2,29.70,SW,229,0.0,0.0,55,0.00,,SKC,0.00,VWS V13.01,2013-05-06 04:26:00,
2013-05-05 21:27:00,64.6,48.1,29.70,SW,229,3.0,3.0,55,0.00,,SKC,0.00,VWS V13.01,2013-05-06 04:27:00,
2013-05-05 21:28:00,64.5,48.0,29.69,SW,229,2.0,4.0,55,0.00,,SKC,0.00,VWS V13.01,2013-05-06 04:28:00,
2013-05-05 21:29:00,64.5,48.0,29.70,SW,229,2.0,4.0,55,0.00,,SKC,0.00,VWS V13.01,2013-05-06 04:29:00,
2013-05-05 21:30:00,64.4,47.9,29.70,SW,229,2.0,4.0,55,0.00,,SKC,0.00,VWS V13.01,2013-05-06 04:30:00,
2013-05-05 21:31:00,64.4,48.4,29.70,SW,229,2.0,3.0,56,0.00,,SKC,0.00,VWS V13.01,2013-05-06 04:31:00,
2013-05-05 21:32:00,64.3,48.3,29.70,SW,229,2.0,3.0,56,0.00,,SKC,0.00,VWS V13.01,2013-05-06 04:32:00,
2013-05-05 21:33:00,64.3,48.3,29.70,SW,229,0.0,3.0,56,0.00,,SKC,0.00,VWS V13.01,2013-05-06 04:33:00,
2013-05-05 21:34:00,64.2,48.2,29.70,SW,229,0.0,3.0,56,0.00,,SKC,0.00,VWS V13.01,2013-05-06 04:34:00,
2013-05-05 21:35:00,64.1,48.1,29.70,SW,229,0.0,3.0,56,0.00,,SKC,0.00,VWS V13.01,2013-05-06 04:35:00,
2013-05-05 21:36:00,64.1,48.6,29.70,SW,229,0.0,0.0,57,0.00,,SKC,0.00,VWS V13.01,2013-05-06 04:36:00,
2013-05-05 21:37:00,64.1,48.6,29.70,SW,229,0.0,0.0,57,0.00,,SKC,0.00,VWS V13.01,2013-05-06 04:37:00,
2013-05-05 21:38:00,64.0,48.5,29.70,SW,229,2.0,4.0,57,0.00,,SKC,0.00,VWS V13.01,2013-05-06 04:38:00,
2013-05-05 21:39:00,64.0,48.5,29.70,SW,229,1.0,4.0,57,0.00,,SKC,0.00,VWS V13.01,2013-05-06 04:39:00,
2013-05-05 21:40:00,63.9,48.4,29.70,SW,229,2.0,4.0,57,0.00,,SKC,0.00,VWS V13.01,2013-05-06 04:40:00,
2013-05-05 21:41:00,63.9,48.4,29.70,SW,229,2.0,3.0,57,0.00,,SKC,0.00,VWS V13.01,2013-05-06 04:41:00,
2013-05-05 21:42:00,63.9,48.4,29.70,SW,229,2.0,3.0,57,0.00,,SKC,0.00,VWS V13.01,2013-05-06 04:42:00,
2013-05-05 21:43:00,63.8,48.8,29.70,SW,229,3.0,4.0,58,0.00,,SKC,0.00,VWS V13.01,2013-05-06 04:43:00,
2013-05-05 21:44:00,63.8,48.8,29.70,SW,229,0.0,4.0,58,0.00,,SKC,0.00,VWS V13.01,2013-05-06 04:44:00,
2013-05-05 21:45:00,63.7,48.7,29.70,SW,229,0.0,4.0,58,0.00,,SKC,0.00,VWS V13.01,2013-05-06 04:45:00,
2013-05-05 21:46:00,63.7,48.7,29.70,SW,229,0.0,0.0,58,0.00,,SKC,0.00,VWS V13.01,2013-05-06 04:46:00,
2013-05-05 21:47:00,63.6,48.6,29.70,SW,229,0.0,0.0,58,0.00,,SKC,0.00,VWS V13.01,2013-05-06 04:47:00,
2013-05-05 21:48:00,63.6,49.0,29.70,SW,229,0.0,0.0,59,0.00,,SKC,0.00,VWS V13.01,2013-05-06 04:48:00,
2013-05-05 21:49:00,63.5,48.9,29.70,SW,229,0.0,0.0,59,0.00,,SKC,0.00,VWS V13.01,2013-05-06 04:49:00,
2013-05-05 21:50:00,63.5,48.9,29.70,SW,229,0.0,0.0,59,0.00,,SKC,0.00,VWS V13.01,2013-05-06 04:50:00,
2013-05-05 21:51:00,63.4,48.8,29.70,SW,229,0.0,0.0,59,0.00,,SKC,0.00,VWS V13.01,2013-05-06 04:51:00,
2013-05-05 21:52:00,63.3,49.2,29.70,SW,229,0.0,0.0,60,0.00,,SKC,0.00,VWS V13.01,2013-05-06 04:52:00,
2013-05-05 21:53:00,63.2,49.1,29.70,SW,229,0.0,0.0,60,0.00,,SKC,0.00,VWS V13.01,2013-05-06 04:53:00,
2013-05-05 21:54:00,63.1,48.6,29.70,SW,229,0.0,0.0,59,0.00,,SKC,0.00,VWS V13.01,2013-05-06 04:54:00,
2013-05-05 21:55:00,63.1,49.0,29.70,SW,229,0.0,0.0,60,0.00,,SKC,0.00,VWS V13.01,2013-05-06 04:55:00,
2013-05-05 21:56:00,63.0,48.9,29.70,SW,229,0.0,0.0,60,0.00,,SKC,0.00,VWS V13.01,2013-05-06 04:56:00,
2013-05-05 21:57:00,62.9,48.8,29.70,SW,229,0.0,0.0,60,0.00,,SKC,0.00,VWS V13.01,2013-05-06 04:57:00,
2013-05-05 21:58:00,62.8,48.7,29.70,SW,229,0.0,0.0,60,0.00,,SKC,0.00,VWS V13.01,2013-05-06 04:58:00,
2013-05-05 21:59:00,62.8,48.7,29.70,SW,229,0.0,0.0,60,0.00,,SKC,0.00,VWS V13.01,2013-05-06 04:59:00,
2013-05-05 22:00:00,62.7,48.6,29.70,SW,229,0.0,0.0,60,0.00,,SKC,0.00,VWS V13.01,2013-05-06 05:00:00,
2013-05-05 22:01:00,62.7,48.6,29.70,SW,229,0.0,0.0,60,0.00,,SKC,0.00,VWS V13.01,2013-05-06 05:01:00,
2013-05-05 22:02:00,62.6,48.5,29.70,SW,229,0.0,0.0,60,0.00,,SKC,0.00,VWS V13.01,2013-05-06 05:02:00,
2013-05-05 22:03:00,62.5,48.4,29.70,SW,229,0.0,0.0,60,0.00,,SKC,0.00,VWS V13.01,2013-05-06 05:03:00,
2013-05-05 22:04:00,62.5,48.9,29.70,SW,229,0.0,0.0,61,0.00,,SKC,0.00,VWS V13.01,2013-05-06 05:04:00,
2013-05-05 22:05:00,62.4,48.8,29.70,SW,229,0.0,0.0,61,0.00,,SKC,0.00,VWS V13.01,2013-05-06 05:05:00,
2013-05-05 22:06:00,62.3,48.7,29.70,SW,229,0.0,0.0,61,0.00,,SKC,0.00,VWS V13.01,2013-05-06 05:06:00,
2013-05-05 22:07:00,62.3,48.7,29.70,SW,229,0.0,0.0,61,0.00,,SKC,0.00,VWS V13.01,2013-05-06 05:07:00,
2013-05-05 22:08:00,62.2,48.6,29.70,SW,229,3.0,3.0,61,0.00,,SKC,0.00,VWS V13.01,2013-05-06 05:08:00,
2013-05-05 22:09:00,62.2,49.0,29.70,SW,229,2.0,4.0,62,0.00,,SKC,0.00,VWS V13.01,2013-05-06 05:09:00,
2013-05-05 22:10:00,62.2,49.0,29.70,SW,229,2.0,4.0,62,0.00,,SKC,0.00,VWS V13.01,2013-05-06 05:10:00,
2013-05-05 22:11:00,62.2,49.0,29.70,SW,229,3.0,3.0,62,0.00,,SKC,0.00,VWS V13.01,2013-05-06 05:11:00,
2013-05-05 22:12:00,62.1,48.9,29.70,SW,229,2.0,3.0,62,0.00,,SKC,0.00,VWS V13.01,2013-05-06 05:12:00,
2013-05-05 22:13:00,62.1,48.9,29.70,SW,229,1.0,3.0,62,0.00,,SKC,0.00,VWS V13.01,2013-05-06 05:13:00,
2013-05-05 22:14:00,62.1,48.9,29.70,SW,229,2.0,3.0,62,0.00,,SKC,0.00,VWS V13.01,2013-05-06 05:14:00,
2013-05-05 22:15:00,62.1,48.9,29.70,SW,229,0.0,3.0,62,0.00,,SKC,0.00,VWS V13.01,2013-05-06 05:15:00,
2013-05-05 22:16:00,62.1,48.9,29.70,SW,229,2.0,3.0,62,0.00,,SKC,0.00,VWS V13.01,2013-05-06 05:16:00,
2013-05-05 22:17:00,62.1,48.9,29.70,SW,229,2.0,3.0,62,0.00,,SKC,0.00,VWS V13.01,2013-05-06 05:17:00,
2013-05-05 22:18:00,62.1,49.4,29.70,SW,229,0.0,4.0,63,0.00,,SKC,0.00,VWS V13.01,2013-05-06 05:18:00,
2013-05-05 22:19:00,62.1,49.4,29.70,SW,229,0.0,4.0,63,0.00,,SKC,0.00,VWS V13.01,2013-05-06 05:19:00,
2013-05-05 22:20:00,62.1,49.8,29.70,SW,229,0.0,4.0,64,0.00,,SKC,0.00,VWS V13.01,2013-05-06 05:20:00,
2013-05-05 22:21:00,62.0,49.7,29.70,SW,229,0.0,0.0,64,0.00,,SKC,0.00,VWS V13.01,2013-05-06 05:21:00,
2013-05-05 22:22:00,61.9,49.6,29.70,SW,229,0.0,0.0,64,0.00,,SKC,0.00,VWS V13.01,2013-05-06 05:22:00,
2013-05-05 22:23:00,61.8,49.5,29.70,SW,229,0.0,0.0,64,0.00,,SKC,0.00,VWS V13.01,2013-05-06 05:23:00,
2013-05-05 22:24:00,61.8,49.5,29.71,SW,229,0.0,0.0,64,0.00,,SKC,0.00,VWS V13.01,2013-05-06 05:24:00,
2013-05-05 22:25:00,61.7,49.4,29.71,SW,229,0.0,0.0,64,0.00,,SKC,0.00,VWS V13.01,2013-05-06 05:25:00,
2013-05-05 22:26:00,61.6,49.3,29.71,SW,229,0.0,0.0,64,0.00,,SKC,0.00,VWS V13.01,2013-05-06 05:26:00,
2013-05-05 22:27:00,61.6,49.7,29.71,SW,229,0.0,0.0,65,0.00,,SKC,0.00,VWS V13.01,2013-05-06 05:27:00,
2013-05-05 22:28:00,61.5,49.6,29.71,SW,229,0.0,0.0,65,0.00,,SKC,0.00,VWS V13.01,2013-05-06 05:28:00,
2013-05-05 22:29:00,61.4,49.5,29.71,SW,229,0.0,0.0,65,0.00,,SKC,0.00,VWS V13.01,2013-05-06 05:29:00,
2013-05-05 22:30:00,61.4,50.0,29.71,SW,229,0.0,0.0,66,0.00,,SKC,0.00,VWS V13.01,2013-05-06 05:30:00,
2013-05-05 22:31:00,61.3,49.9,29.71,SW,229,0.0,0.0,66,0.00,,SKC,0.00,VWS V13.01,2013-05-06 05:31:00,
2013-05-05 22:32:00,61.2,49.8,29.71,SW,229,0.0,0.0,66,0.00,,SKC,0.00,VWS V13.01,2013-05-06 05:32:00,
2013-05-05 22:33:00,61.1,49.7,29.71,SW,229,0.0,0.0,66,0.00,,SKC,0.00,VWS V13.01,2013-05-06 05:33:00,
2013-05-05 22:34:00,61.0,49.6,29.71,SW,229,0.0,0.0,66,0.00,,SKC,0.00,VWS V13.01,2013-05-06 05:34:00,
2013-05-05 22:35:00,60.9,49.5,29.71,SW,229,0.0,0.0,66,0.00,,SKC,0.00,VWS V13.01,2013-05-06 05:35:00,
2013-05-05 22:36:00,60.8,49.8,29.71,SW,229,0.0,0.0,67,0.00,,SKC,0.00,VWS V13.01,2013-05-06 05:36:00,
2013-05-05 22:37:00,60.7,49.7,29.71,SW,229,0.0,0.0,67,0.00,,SKC,0.00,VWS V13.01,2013-05-06 05:37:00,
2013-05-05 22:38:00,60.6,49.6,29.71,SW,229,0.0,0.0,67,0.00,,SKC,0.00,VWS V13.01,2013-05-06 05:38:00,
2013-05-05 22:39:00,60.5,49.5,29.72,SW,229,0.0,0.0,67,0.00,,SKC,0.00,VWS V13.01,2013-05-06 05:39:00,
2013-05-05 22:40:00,60.4,49.4,29.71,SW,229,0.0,0.0,67,0.00,,SKC,0.00,VWS V13.01,2013-05-06 05:40:00,
2013-05-05 22:41:00,60.4,49.4,29.72,SW,229,0.0,0.0,67,0.00,,SKC,0.00,VWS V13.01,2013-05-06 05:41:00,
2013-05-05 22:42:00,60.4,49.4,29.72,SW,229,0.0,0.0,67,0.00,,SKC,0.00,VWS V13.01,2013-05-06 05:42:00,
2013-05-05 22:43:00,60.3,49.7,29.72,SW,229,0.0,0.0,68,0.00,,SKC,0.00,VWS V13.01,2013-05-06 05:43:00,
2013-05-05 22:44:00,60.3,49.7,29.72,SW,229,0.0,0.0,68,0.00,,SKC,0.00,VWS V13.01,2013-05-06 05:44:00,
2013-05-05 22:45:00,60.3,49.7,29.72,SW,229,0.0,0.0,68,0.00,,SKC,0.00,VWS V13.01,2013-05-06 05:45:00,
2013-05-05 22:46:00,60.3,49.7,29.71,SW,229,0.0,0.0,68,0.00,,SKC,0.00,VWS V13.01,2013-05-06 05:46:00,
2013-05-05 22:47:00,60.3,49.7,29.72,SW,229,0.0,0.0,68,0.00,,SKC,0.00,VWS V13.01,2013-05-06 05:47:00,
2013-05-05 22:48:00,60.3,49.7,29.72,SW,229,0.0,0.0,68,0.00,,SKC,0.00,VWS V13.01,2013-05-06 05:48:00,
2013-05-05 22:49:00,60.3,49.7,29.72,SW,229,0.0,0.0,68,0.00,,SKC,0.00,VWS V13.01,2013-05-06 05:49:00,
2013-05-05 22:50:00,60.3,49.7,29.71,SW,229,0.0,0.0,68,0.00,,SKC,0.00,VWS V13.01,2013-05-06 05:50:00,
2013-05-05 22:51:00,60.3,49.7,29.72,SW,229,0.0,0.0,68,0.00,,SKC,0.00,VWS V13.01,2013-05-06 05:51:00,
2013-05-05 22:52:00,60.3,49.7,29.72,SW,229,0.0,0.0,68,0.00,,SKC,0.00,VWS V13.01,2013-05-06 05:52:00,
2013-05-05 22:53:00,60.3,49.7,29.72,SW,229,0.0,0.0,68,0.00,,SKC,0.00,VWS V13.01,2013-05-06 05:53:00,
2013-05-05 22:54:00,60.3,49.7,29.72,SW,229,0.0,0.0,68,0.00,,SKC,0.00,VWS V13.01,2013-05-06 05:54:00,
2013-05-05 22:55:00,60.3,49.7,29.72,SW,229,0.0,0.0,68,0.00,,SKC,0.00,VWS V13.01,2013-05-06 05:55:00,
2013-05-05 22:56:00,60.3,49.7,29.72,SW,229,0.0,0.0,68,0.00,,SKC,0.00,VWS V13.01,2013-05-06 05:56:00,
2013-05-05 22:57:00,60.4,49.8,29.72,SW,229,0.0,0.0,68,0.00,,SKC,0.00,VWS V13.01,2013-05-06 05:57:00,
2013-05-05 22:58:00,60.4,49.8,29.72,SW,229,0.0,0.0,68,0.00,,SKC,0.00,VWS V13.01,2013-05-06 05:58:00,
2013-05-05 22:59:00,60.4,49.8,29.72,SW,229,0.0,0.0,68,0.00,,SKC,0.00,VWS V13.01,2013-05-06 05:59:00,
2013-05-05 23:00:00,60.4,50.2,29.72,SW,229,0.0,0.0,69,0.00,,SKC,0.00,VWS V13.01,2013-05-06 06:00:00,
2013-05-05 23:01:00,60.4,50.2,29.71,SW,229,0.0,0.0,69,0.00,,SKC,0.00,VWS V13.01,2013-05-06 06:01:00,
2013-05-05 23:02:00,60.3,50.1,29.72,SW,229,0.0,0.0,69,0.00,,SKC,0.00,VWS V13.01,2013-05-06 06:02:00,
2013-05-05 23:03:00,60.3,50.1,29.72,SW,229,0.0,0.0,69,0.00,,SKC,0.00,VWS V13.01,2013-05-06 06:03:00,
2013-05-05 23:04:00,60.3,50.1,29.72,SW,229,0.0,0.0,69,0.00,,SKC,0.00,VWS V13.01,2013-05-06 06:04:00,
2013-05-05 23:05:00,60.2,50.0,29.72,SW,229,0.0,0.0,69,0.00,,SKC,0.00,VWS V13.01,2013-05-06 06:05:00,
2013-05-05 23:06:00,60.1,50.3,29.72,SW,229,0.0,0.0,70,0.00,,SKC,0.00,VWS V13.01,2013-05-06 06:06:00,
2013-05-05 23:07:00,60.1,50.3,29.72,SW,229,0.0,0.0,70,0.00,,SKC,0.00,VWS V13.01,2013-05-06 06:07:00,
2013-05-05 23:08:00,60.0,50.2,29.72,SW,229,0.0,0.0,70,0.00,,SKC,0.00,VWS V13.01,2013-05-06 06:08:00,
2013-05-05 23:09:00,60.0,50.2,29.72,SW,229,0.0,0.0,70,0.00,,SKC,0.00,VWS V13.01,2013-05-06 06:09:00,
2013-05-05 23:10:00,59.9,50.1,29.72,SW,229,0.0,0.0,70,0.00,,SKC,0.00,VWS V13.01,2013-05-06 06:10:00,
2013-05-05 23:11:00,59.9,50.5,29.72,SW,229,0.0,0.0,71,0.00,,SKC,0.00,VWS V13.01,2013-05-06 06:11:00,
2013-05-05 23:12:00,59.8,50.4,29.72,SW,229,0.0,0.0,71,0.00,,SKC,0.00,VWS V13.01,2013-05-06 06:12:00,
2013-05-05 23:13:00,59.7,50.3,29.72,SW,229,0.0,0.0,71,0.00,,SKC,0.00,VWS V13.01,2013-05-06 06:13:00,
2013-05-05 23:14:00,59.6,50.2,29.72,SW,229,0.0,0.0,71,0.00,,SKC,0.00,VWS V13.01,2013-05-06 06:14:00,
2013-05-05 23:15:00,59.6,50.2,29.72,SW,229,0.0,0.0,71,0.00,,SKC,0.00,VWS V13.01,2013-05-06 06:15:00,
2013-05-05 23:16:00,59.5,50.1,29.72,SW,229,0.0,0.0,71,0.00,,SKC,0.00,VWS V13.01,2013-05-06 06:16:00,
2013-05-05 23:17:00,59.4,50.0,29.72,SW,229,0.0,0.0,71,0.00,,SKC,0.00,VWS V13.01,2013-05-06 06:17:00,
2013-05-05 23:18:00,59.3,50.3,29.72,SW,229,0.0,0.0,72,0.00,,SKC,0.00,VWS V13.01,2013-05-06 06:18:00,
2013-05-05 23:19:00,59.2,50.2,29.72,SW,229,0.0,0.0,72,0.00,,SKC,0.00,VWS V13.01,2013-05-06 06:19:00,
2013-05-05 23:20:00,59.1,50.1,29.72,SW,229,0.0,0.0,72,0.00,,SKC,0.00,VWS V13.01,2013-05-06 06:20:00,
2013-05-05 23:21:00,59.0,50.0,29.72,SW,229,0.0,0.0,72,0.00,,SKC,0.00,VWS V13.01,2013-05-06 06:21:00,
2013-05-05 23:22:00,59.0,50.0,29.72,SW,229,0.0,0.0,72,0.00,,SKC,0.00,VWS V13.01,2013-05-06 06:22:00,
2013-05-05 23:23:00,59.0,50.0,29.72,SW,229,0.0,0.0,72,0.00,,SKC,0.00,VWS V13.01,2013-05-06 06:23:00,
2013-05-05 23:24:00,59.0,50.0,29.72,SW,229,0.0,0.0,72,0.00,,SKC,0.00,VWS V13.01,2013-05-06 06:24:00,
2013-05-05 23:25:00,59.0,50.0,29.72,SW,229,0.0,0.0,72,0.00,,SKC,0.00,VWS V13.01,2013-05-06 06:25:00,
2013-05-05 23:26:00,59.0,50.0,29.73,SW,229,0.0,0.0,72,0.00,,SKC,0.00,VWS V13.01,2013-05-06 06:26:00,
2013-05-05 23:27:00,59.0,50.0,29.73,SW,229,0.0,0.0,72,0.00,,SKC,0.00,VWS V13.01,2013-05-06 06:27:00,
2013-05-05 23:28:00,58.8,50.2,29.73,SW,229,0.0,0.0,73,0.00,,SKC,0.00,VWS V13.01,2013-05-06 06:28:00,
2013-05-05 23:29:00,58.7,50.1,29.73,SW,229,0.0,0.0,73,0.00,,SKC,0.00,VWS V13.01,2013-05-06 06:29:00,
2013-05-05 23:30:00,58.6,50.0,29.73,SW,229,0.0,0.0,73,0.00,,SKC,0.00,VWS V13.01,2013-05-06 06:30:00,
2013-05-05 23:31:00,58.6,50.0,29.73,SW,229,0.0,0.0,73,0.00,,SKC,0.00,VWS V13.01,2013-05-06 06:31:00,
2013-05-05 23:32:00,58.5,49.9,29.73,SW,229,0.0,0.0,73,0.00,,SKC,0.00,VWS V13.01,2013-05-06 06:32:00,
2013-05-05 23:33:00,58.5,49.9,29.73,SW,229,0.0,0.0,73,0.00,,SKC,0.00,VWS V13.01,2013-05-06 06:33:00,
2013-05-05 23:34:00,58.4,49.8,29.73,SW,229,0.0,0.0,73,0.00,,SKC,0.00,VWS V13.01,2013-05-06 06:34:00,
2013-05-05 23:35:00,58.4,49.8,29.73,SW,229,0.0,0.0,73,0.00,,SKC,0.00,VWS V13.01,2013-05-06 06:35:00,
2013-05-05 23:36:00,58.3,49.7,29.73,SW,229,0.0,0.0,73,0.00,,SKC,0.00,VWS V13.01,2013-05-06 06:36:00,
2013-05-05 23:37:00,58.3,50.1,29.73,SW,229,0.0,0.0,74,0.00,,SKC,0.00,VWS V13.01,2013-05-06 06:37:00,
2013-05-05 23:38:00,58.2,50.0,29.73,SW,229,0.0,0.0,74,0.00,,SKC,0.00,VWS V13.01,2013-05-06 06:38:00,
2013-05-05 23:39:00,58.2,50.0,29.73,SW,229,0.0,0.0,74,0.00,,SKC,0.00,VWS V13.01,2013-05-06 06:39:00,
2013-05-05 23:40:00,58.1,49.9,29.73,SW,229,0.0,0.0,74,0.00,,SKC,0.00,VWS V13.01,2013-05-06 06:40:00,
2013-05-05 23:41:00,58.1,49.9,29.73,SW,229,0.0,0.0,74,0.00,,SKC,0.00,VWS V13.01,2013-05-06 06:41:00,
2013-05-05 23:42:00,58.0,49.8,29.73,SW,229,0.0,0.0,74,0.00,,SKC,0.00,VWS V13.01,2013-05-06 06:42:00,
2013-05-05 23:43:00,58.0,49.8,29.73,SW,229,0.0,0.0,74,0.00,,SKC,0.00,VWS V13.01,2013-05-06 06:43:00,
2013-05-05 23:44:00,57.9,49.7,29.73,SW,229,0.0,0.0,74,0.00,,SKC,0.00,VWS V13.01,2013-05-06 06:44:00,
2013-05-05 23:45:00,57.9,49.7,29.73,SW,229,0.0,0.0,74,0.00,,SKC,0.00,VWS V13.01,2013-05-06 06:45:00,
2013-05-05 23:46:00,57.9,49.7,29.73,SW,229,0.0,0.0,74,0.00,,SKC,0.00,VWS V13.01,2013-05-06 06:46:00,
2013-05-05 23:47:00,57.8,49.6,29.73,SW,229,0.0,0.0,74,0.00,,SKC,0.00,VWS V13.01,2013-05-06 06:47:00,
2013-05-05 23:48:00,57.8,49.6,29.73,SW,229,0.0,0.0,74,0.00,,SKC,0.00,VWS V13.01,2013-05-06 06:48:00,
2013-05-05 23:49:00,57.8,49.6,29.73,SW,229,0.0,0.0,74,0.00,,SKC,0.00,VWS V13.01,2013-05-06 06:49:00,
2013-05-05 23:50:00,57.7,49.8,29.73,SW,229,0.0,0.0,75,0.00,,SKC,0.00,VWS V13.01,2013-05-06 06:50:00,
2013-05-05 23:51:00,57.7,49.5,29.73,SW,229,0.0,0.0,74,0.00,,SKC,0.00,VWS V13.01,2013-05-06 06:51:00,
2013-05-05 23:52:00,57.7,49.8,29.74,SW,229,0.0,0.0,75,0.00,,SKC,0.00,VWS V13.01,2013-05-06 06:52:00,
2013-05-05 23:53:00,57.6,49.8,29.74,SW,229,0.0,0.0,75,0.00,,SKC,0.00,VWS V13.01,2013-05-06 06:53:00,
2013-05-05 23:54:00,57.6,49.8,29.74,SW,229,0.0,0.0,75,0.00,,SKC,0.00,VWS V13.01,2013-05-06 06:54:00,
2013-05-05 23:55:00,57.5,49.7,29.74,SW,229,0.0,0.0,75,0.00,,SKC,0.00,VWS V13.01,2013-05-06 06:55:00,
2013-05-05 23:56:00,57.5,49.7,29.74,SW,229,0.0,0.0,75,0.00,,SKC,0.00,VWS V13.01,2013-05-06 06:56:00,
2013-05-05 23:57:00,57.5,49.7,29.74,SW,229,0.0,0.0,75,0.00,,SKC,0.00,VWS V13.01,2013-05-06 06:57:00,
2013-05-05 23:58:00,57.5,49.7,29.74,SW,229,0.0,0.0,75,0.00,,SKC,0.00,VWS V13.01,2013-05-06 06:58:00,
2013-05-05 23:59:00,57.4,49.5,29.74,SW,229,0.0,0.0,75,0.00,,SKC,0.00,VWS V13.01,2013-05-06 06:59:00,